<?xml version="1.0" encoding="UTF-8" standalone="no" ?>
<gpx xmlns="http://www.topografix.com/GPX/1/1" xmlns:xsi="http://www.w3.org/2001/XMLSchema-instance" xsi:schemaLocation="http://www.topografix.com/GPX/1/1 http://www.topografix.com/GPX/1/1/gpx.xsd" version="1.1" creator="VisuGPX - https://www.visugpx.com">
  <metadata>
    <name>TEST TRAIL 2</name>
    <desc><![CDATA[A TESTER DIMANCHE parcours trail]]></desc>
  </metadata>
  <trk>
    <name><![CDATA[20180106182813-GHwxz]]></name>
    <trkseg>
      <trkpt lat="44.4304" lon="2.47541">
        <ele>544</ele>
        <time>2017-12-03T07:30:40.000Z</time>
      </trkpt>
      <trkpt lat="44.43038" lon="2.4755">
        <ele>544</ele>
        <time>2017-12-03T07:30:43.000Z</time>
      </trkpt>
      <trkpt lat="44.43032" lon="2.47575">
        <ele>544</ele>
        <time>2017-12-03T07:30:51.000Z</time>
      </trkpt>
      <trkpt lat="44.4303" lon="2.47581">
        <ele>544</ele>
        <time>2017-12-03T07:30:53.000Z</time>
      </trkpt>
      <trkpt lat="44.43023" lon="2.47595">
        <ele>546</ele>
        <time>2017-12-03T07:30:58.000Z</time>
      </trkpt>
      <trkpt lat="44.43015" lon="2.47607">
        <ele>546</ele>
        <time>2017-12-03T07:31:03.000Z</time>
      </trkpt>
      <trkpt lat="44.42997" lon="2.47617">
        <ele>548</ele>
        <time>2017-12-03T07:31:11.000Z</time>
      </trkpt>
      <trkpt lat="44.42992" lon="2.4762">
        <ele>548</ele>
        <time>2017-12-03T07:31:13.000Z</time>
      </trkpt>
      <trkpt lat="44.42979" lon="2.47638">
        <ele>548</ele>
        <time>2017-12-03T07:31:21.000Z</time>
      </trkpt>
      <trkpt lat="44.42967" lon="2.4766">
        <ele>549</ele>
        <time>2017-12-03T07:31:28.000Z</time>
      </trkpt>
      <trkpt lat="44.42956" lon="2.4768">
        <ele>551</ele>
        <time>2017-12-03T07:31:35.000Z</time>
      </trkpt>
      <trkpt lat="44.42947" lon="2.47691">
        <ele>551</ele>
        <time>2017-12-03T07:31:40.000Z</time>
      </trkpt>
      <trkpt lat="44.4294" lon="2.47699">
        <ele>551</ele>
        <time>2017-12-03T07:31:45.000Z</time>
      </trkpt>
      <trkpt lat="44.42922" lon="2.47697">
        <ele>551</ele>
        <time>2017-12-03T07:31:53.000Z</time>
      </trkpt>
      <trkpt lat="44.42902" lon="2.47704">
        <ele>552</ele>
        <time>2017-12-03T07:32:01.000Z</time>
      </trkpt>
      <trkpt lat="44.42886" lon="2.47718">
        <ele>552</ele>
        <time>2017-12-03T07:32:09.000Z</time>
      </trkpt>
      <trkpt lat="44.42875" lon="2.47741">
        <ele>552</ele>
        <time>2017-12-03T07:32:17.000Z</time>
      </trkpt>
      <trkpt lat="44.42868" lon="2.47751">
        <ele>553</ele>
        <time>2017-12-03T07:32:22.000Z</time>
      </trkpt>
      <trkpt lat="44.42863" lon="2.47764">
        <ele>554</ele>
        <time>2017-12-03T07:32:27.000Z</time>
      </trkpt>
      <trkpt lat="44.42865" lon="2.47777">
        <ele>554</ele>
        <time>2017-12-03T07:32:32.000Z</time>
      </trkpt>
      <trkpt lat="44.42869" lon="2.4779">
        <ele>554</ele>
        <time>2017-12-03T07:32:37.000Z</time>
      </trkpt>
      <trkpt lat="44.42875" lon="2.47814">
        <ele>554</ele>
        <time>2017-12-03T07:32:45.000Z</time>
      </trkpt>
      <trkpt lat="44.42878" lon="2.47824">
        <ele>554</ele>
        <time>2017-12-03T07:32:48.000Z</time>
      </trkpt>
      <trkpt lat="44.4288" lon="2.4783">
        <ele>554</ele>
        <time>2017-12-03T07:32:51.000Z</time>
      </trkpt>
      <trkpt lat="44.42868" lon="2.47815">
        <ele>555</ele>
        <time>2017-12-03T07:32:59.000Z</time>
      </trkpt>
      <trkpt lat="44.42867" lon="2.47816">
        <ele>555</ele>
        <time>2017-12-03T07:33:00.000Z</time>
      </trkpt>
      <trkpt lat="44.42861" lon="2.47826">
        <ele>555</ele>
        <time>2017-12-03T07:33:04.000Z</time>
      </trkpt>
      <trkpt lat="44.42857" lon="2.47835">
        <ele>558</ele>
        <time>2017-12-03T07:33:08.000Z</time>
      </trkpt>
      <trkpt lat="44.4285" lon="2.47848">
        <ele>559</ele>
        <time>2017-12-03T07:33:14.000Z</time>
      </trkpt>
      <trkpt lat="44.42846" lon="2.47854">
        <ele>559</ele>
        <time>2017-12-03T07:33:17.000Z</time>
      </trkpt>
      <trkpt lat="44.42842" lon="2.47861">
        <ele>559</ele>
        <time>2017-12-03T07:33:20.000Z</time>
      </trkpt>
      <trkpt lat="44.42837" lon="2.47872">
        <ele>560</ele>
        <time>2017-12-03T07:33:25.000Z</time>
      </trkpt>
      <trkpt lat="44.42831" lon="2.47883">
        <ele>565</ele>
        <time>2017-12-03T07:33:30.000Z</time>
      </trkpt>
      <trkpt lat="44.42826" lon="2.47891">
        <ele>566</ele>
        <time>2017-12-03T07:33:34.000Z</time>
      </trkpt>
      <trkpt lat="44.42819" lon="2.47903">
        <ele>566</ele>
        <time>2017-12-03T07:33:40.000Z</time>
      </trkpt>
      <trkpt lat="44.42812" lon="2.47912">
        <ele>566</ele>
        <time>2017-12-03T07:33:45.000Z</time>
      </trkpt>
      <trkpt lat="44.42802" lon="2.47923">
        <ele>570</ele>
        <time>2017-12-03T07:33:52.000Z</time>
      </trkpt>
      <trkpt lat="44.42794" lon="2.47935">
        <ele>571</ele>
        <time>2017-12-03T07:33:58.000Z</time>
      </trkpt>
      <trkpt lat="44.42789" lon="2.47943">
        <ele>572</ele>
        <time>2017-12-03T07:34:02.000Z</time>
      </trkpt>
      <trkpt lat="44.42784" lon="2.4795">
        <ele>572</ele>
        <time>2017-12-03T07:34:06.000Z</time>
      </trkpt>
      <trkpt lat="44.42779" lon="2.47956">
        <ele>573</ele>
        <time>2017-12-03T07:34:10.000Z</time>
      </trkpt>
      <trkpt lat="44.42777" lon="2.4796">
        <ele>573</ele>
        <time>2017-12-03T07:34:12.000Z</time>
      </trkpt>
      <trkpt lat="44.42772" lon="2.47967">
        <ele>573</ele>
        <time>2017-12-03T07:34:16.000Z</time>
      </trkpt>
      <trkpt lat="44.42767" lon="2.47976">
        <ele>574</ele>
        <time>2017-12-03T07:34:21.000Z</time>
      </trkpt>
      <trkpt lat="44.42763" lon="2.47984">
        <ele>575</ele>
        <time>2017-12-03T07:34:25.000Z</time>
      </trkpt>
      <trkpt lat="44.42758" lon="2.4799">
        <ele>576</ele>
        <time>2017-12-03T07:34:29.000Z</time>
      </trkpt>
      <trkpt lat="44.42751" lon="2.47999">
        <ele>578</ele>
        <time>2017-12-03T07:34:34.000Z</time>
      </trkpt>
      <trkpt lat="44.42746" lon="2.48008">
        <ele>579</ele>
        <time>2017-12-03T07:34:39.000Z</time>
      </trkpt>
      <trkpt lat="44.42738" lon="2.48019">
        <ele>580</ele>
        <time>2017-12-03T07:34:45.000Z</time>
      </trkpt>
      <trkpt lat="44.42727" lon="2.48034">
        <ele>581</ele>
        <time>2017-12-03T07:34:53.000Z</time>
      </trkpt>
      <trkpt lat="44.42719" lon="2.48044">
        <ele>581</ele>
        <time>2017-12-03T07:34:59.000Z</time>
      </trkpt>
      <trkpt lat="44.42707" lon="2.48062">
        <ele>581</ele>
        <time>2017-12-03T07:35:07.000Z</time>
      </trkpt>
      <trkpt lat="44.42696" lon="2.48084">
        <ele>582</ele>
        <time>2017-12-03T07:35:15.000Z</time>
      </trkpt>
      <trkpt lat="44.42682" lon="2.48102">
        <ele>582</ele>
        <time>2017-12-03T07:35:23.000Z</time>
      </trkpt>
      <trkpt lat="44.42668" lon="2.48117">
        <ele>582</ele>
        <time>2017-12-03T07:35:31.000Z</time>
      </trkpt>
      <trkpt lat="44.42652" lon="2.48134">
        <ele>585</ele>
        <time>2017-12-03T07:35:39.000Z</time>
      </trkpt>
      <trkpt lat="44.42637" lon="2.48153">
        <ele>585</ele>
        <time>2017-12-03T07:35:48.000Z</time>
      </trkpt>
      <trkpt lat="44.42631" lon="2.48161">
        <ele>586</ele>
        <time>2017-12-03T07:35:52.000Z</time>
      </trkpt>
      <trkpt lat="44.42627" lon="2.48165">
        <ele>586</ele>
        <time>2017-12-03T07:35:55.000Z</time>
      </trkpt>
      <trkpt lat="44.42621" lon="2.48168">
        <ele>583</ele>
        <time>2017-12-03T07:35:58.000Z</time>
      </trkpt>
      <trkpt lat="44.42607" lon="2.48168">
        <ele>585</ele>
        <time>2017-12-03T07:36:04.000Z</time>
      </trkpt>
      <trkpt lat="44.42589" lon="2.48165">
        <ele>588</ele>
        <time>2017-12-03T07:36:12.000Z</time>
      </trkpt>
      <trkpt lat="44.42576" lon="2.48165">
        <ele>589</ele>
        <time>2017-12-03T07:36:19.000Z</time>
      </trkpt>
      <trkpt lat="44.42569" lon="2.48166">
        <ele>590</ele>
        <time>2017-12-03T07:36:23.000Z</time>
      </trkpt>
      <trkpt lat="44.42562" lon="2.48162">
        <ele>590</ele>
        <time>2017-12-03T07:36:27.000Z</time>
      </trkpt>
      <trkpt lat="44.42554" lon="2.48158">
        <ele>590</ele>
        <time>2017-12-03T07:36:32.000Z</time>
      </trkpt>
      <trkpt lat="44.42544" lon="2.48163">
        <ele>590</ele>
        <time>2017-12-03T07:36:37.000Z</time>
      </trkpt>
      <trkpt lat="44.42525" lon="2.48167">
        <ele>587</ele>
        <time>2017-12-03T07:36:46.000Z</time>
      </trkpt>
      <trkpt lat="44.42514" lon="2.48169">
        <ele>588</ele>
        <time>2017-12-03T07:36:52.000Z</time>
      </trkpt>
      <trkpt lat="44.42507" lon="2.48176">
        <ele>588</ele>
        <time>2017-12-03T07:36:56.000Z</time>
      </trkpt>
      <trkpt lat="44.42504" lon="2.48203">
        <ele>586</ele>
        <time>2017-12-03T07:37:04.000Z</time>
      </trkpt>
      <trkpt lat="44.42504" lon="2.48205">
        <ele>586</ele>
        <time>2017-12-03T07:37:05.000Z</time>
      </trkpt>
      <trkpt lat="44.42504" lon="2.48209">
        <ele>586</ele>
        <time>2017-12-03T07:37:07.000Z</time>
      </trkpt>
      <trkpt lat="44.42503" lon="2.48211">
        <ele>586</ele>
        <time>2017-12-03T07:37:09.000Z</time>
      </trkpt>
      <trkpt lat="44.42503" lon="2.48212">
        <ele>586</ele>
        <time>2017-12-03T07:37:10.000Z</time>
      </trkpt>
      <trkpt lat="44.42503" lon="2.48212">
        <ele>585</ele>
        <time>2017-12-03T07:37:13.000Z</time>
      </trkpt>
      <trkpt lat="44.42501" lon="2.48225">
        <ele>585</ele>
        <time>2017-12-03T07:37:51.000Z</time>
      </trkpt>
      <trkpt lat="44.42498" lon="2.48227">
        <ele>585</ele>
        <time>2017-12-03T07:37:54.000Z</time>
      </trkpt>
      <trkpt lat="44.42492" lon="2.48223">
        <ele>585</ele>
        <time>2017-12-03T07:38:01.000Z</time>
      </trkpt>
      <trkpt lat="44.42487" lon="2.48219">
        <ele>585</ele>
        <time>2017-12-03T07:38:04.000Z</time>
      </trkpt>
      <trkpt lat="44.42486" lon="2.48221">
        <ele>585</ele>
        <time>2017-12-03T07:38:08.000Z</time>
      </trkpt>
      <trkpt lat="44.42487" lon="2.48228">
        <ele>585</ele>
        <time>2017-12-03T07:38:11.000Z</time>
      </trkpt>
      <trkpt lat="44.42488" lon="2.4823">
        <ele>585</ele>
        <time>2017-12-03T07:38:12.000Z</time>
      </trkpt>
      <trkpt lat="44.42491" lon="2.48237">
        <ele>584</ele>
        <time>2017-12-03T07:38:15.000Z</time>
      </trkpt>
      <trkpt lat="44.42491" lon="2.48238">
        <ele>584</ele>
        <time>2017-12-03T07:38:16.000Z</time>
      </trkpt>
      <trkpt lat="44.42489" lon="2.48242">
        <ele>584</ele>
        <time>2017-12-03T07:38:19.000Z</time>
      </trkpt>
      <trkpt lat="44.42488" lon="2.48244">
        <ele>584</ele>
        <time>2017-12-03T07:38:20.000Z</time>
      </trkpt>
      <trkpt lat="44.42484" lon="2.4825">
        <ele>581</ele>
        <time>2017-12-03T07:38:24.000Z</time>
      </trkpt>
      <trkpt lat="44.4248" lon="2.48254">
        <ele>580</ele>
        <time>2017-12-03T07:38:27.000Z</time>
      </trkpt>
      <trkpt lat="44.42478" lon="2.48261">
        <ele>580</ele>
        <time>2017-12-03T07:38:30.000Z</time>
      </trkpt>
      <trkpt lat="44.42474" lon="2.48267">
        <ele>579</ele>
        <time>2017-12-03T07:38:33.000Z</time>
      </trkpt>
      <trkpt lat="44.42469" lon="2.48271">
        <ele>579</ele>
        <time>2017-12-03T07:38:36.000Z</time>
      </trkpt>
      <trkpt lat="44.42464" lon="2.48274">
        <ele>579</ele>
        <time>2017-12-03T07:38:39.000Z</time>
      </trkpt>
      <trkpt lat="44.42462" lon="2.48274">
        <ele>579</ele>
        <time>2017-12-03T07:38:40.000Z</time>
      </trkpt>
      <trkpt lat="44.42457" lon="2.48276">
        <ele>579</ele>
        <time>2017-12-03T07:38:43.000Z</time>
      </trkpt>
      <trkpt lat="44.42454" lon="2.48282">
        <ele>578</ele>
        <time>2017-12-03T07:38:46.000Z</time>
      </trkpt>
      <trkpt lat="44.42446" lon="2.48295">
        <ele>578</ele>
        <time>2017-12-03T07:38:52.000Z</time>
      </trkpt>
      <trkpt lat="44.4244" lon="2.48303">
        <ele>577</ele>
        <time>2017-12-03T07:38:56.000Z</time>
      </trkpt>
      <trkpt lat="44.42435" lon="2.48311">
        <ele>577</ele>
        <time>2017-12-03T07:38:59.000Z</time>
      </trkpt>
      <trkpt lat="44.42431" lon="2.48318">
        <ele>576</ele>
        <time>2017-12-03T07:39:02.000Z</time>
      </trkpt>
      <trkpt lat="44.42426" lon="2.48326">
        <ele>575</ele>
        <time>2017-12-03T07:39:05.000Z</time>
      </trkpt>
      <trkpt lat="44.42422" lon="2.48336">
        <ele>573</ele>
        <time>2017-12-03T07:39:08.000Z</time>
      </trkpt>
      <trkpt lat="44.4242" lon="2.48342">
        <ele>573</ele>
        <time>2017-12-03T07:39:10.000Z</time>
      </trkpt>
      <trkpt lat="44.42418" lon="2.48348">
        <ele>573</ele>
        <time>2017-12-03T07:39:12.000Z</time>
      </trkpt>
      <trkpt lat="44.42414" lon="2.48357">
        <ele>573</ele>
        <time>2017-12-03T07:39:15.000Z</time>
      </trkpt>
      <trkpt lat="44.42412" lon="2.48363">
        <ele>573</ele>
        <time>2017-12-03T07:39:17.000Z</time>
      </trkpt>
      <trkpt lat="44.42409" lon="2.48371">
        <ele>572</ele>
        <time>2017-12-03T07:39:20.000Z</time>
      </trkpt>
      <trkpt lat="44.42406" lon="2.48377">
        <ele>572</ele>
        <time>2017-12-03T07:39:23.000Z</time>
      </trkpt>
      <trkpt lat="44.42399" lon="2.4839">
        <ele>572</ele>
        <time>2017-12-03T07:39:27.000Z</time>
      </trkpt>
      <trkpt lat="44.42395" lon="2.48399">
        <ele>572</ele>
        <time>2017-12-03T07:39:30.000Z</time>
      </trkpt>
      <trkpt lat="44.4239" lon="2.48407">
        <ele>571</ele>
        <time>2017-12-03T07:39:33.000Z</time>
      </trkpt>
      <trkpt lat="44.42385" lon="2.48418">
        <ele>567</ele>
        <time>2017-12-03T07:39:37.000Z</time>
      </trkpt>
      <trkpt lat="44.42383" lon="2.48424">
        <ele>567</ele>
        <time>2017-12-03T07:39:39.000Z</time>
      </trkpt>
      <trkpt lat="44.4238" lon="2.48434">
        <ele>566</ele>
        <time>2017-12-03T07:39:42.000Z</time>
      </trkpt>
      <trkpt lat="44.42376" lon="2.48444">
        <ele>566</ele>
        <time>2017-12-03T07:39:45.000Z</time>
      </trkpt>
      <trkpt lat="44.42373" lon="2.48458">
        <ele>565</ele>
        <time>2017-12-03T07:39:50.000Z</time>
      </trkpt>
      <trkpt lat="44.4237" lon="2.48469">
        <ele>565</ele>
        <time>2017-12-03T07:39:53.000Z</time>
      </trkpt>
      <trkpt lat="44.42368" lon="2.48479">
        <ele>564</ele>
        <time>2017-12-03T07:39:56.000Z</time>
      </trkpt>
      <trkpt lat="44.42362" lon="2.48495">
        <ele>563</ele>
        <time>2017-12-03T07:40:02.000Z</time>
      </trkpt>
      <trkpt lat="44.42359" lon="2.48511">
        <ele>560</ele>
        <time>2017-12-03T07:40:06.000Z</time>
      </trkpt>
      <trkpt lat="44.42355" lon="2.48527">
        <ele>560</ele>
        <time>2017-12-03T07:40:10.000Z</time>
      </trkpt>
      <trkpt lat="44.42352" lon="2.4854">
        <ele>560</ele>
        <time>2017-12-03T07:40:13.000Z</time>
      </trkpt>
      <trkpt lat="44.42351" lon="2.48555">
        <ele>559</ele>
        <time>2017-12-03T07:40:17.000Z</time>
      </trkpt>
      <trkpt lat="44.42345" lon="2.48573">
        <ele>556</ele>
        <time>2017-12-03T07:40:23.000Z</time>
      </trkpt>
      <trkpt lat="44.42341" lon="2.48587">
        <ele>553</ele>
        <time>2017-12-03T07:40:27.000Z</time>
      </trkpt>
      <trkpt lat="44.4234" lon="2.48598">
        <ele>553</ele>
        <time>2017-12-03T07:40:30.000Z</time>
      </trkpt>
      <trkpt lat="44.42338" lon="2.48613">
        <ele>554</ele>
        <time>2017-12-03T07:40:34.000Z</time>
      </trkpt>
      <trkpt lat="44.42336" lon="2.48637">
        <ele>553</ele>
        <time>2017-12-03T07:40:40.000Z</time>
      </trkpt>
      <trkpt lat="44.42336" lon="2.48653">
        <ele>550</ele>
        <time>2017-12-03T07:40:44.000Z</time>
      </trkpt>
      <trkpt lat="44.42336" lon="2.48671">
        <ele>546</ele>
        <time>2017-12-03T07:40:49.000Z</time>
      </trkpt>
      <trkpt lat="44.42336" lon="2.48675">
        <ele>546</ele>
        <time>2017-12-03T07:40:50.000Z</time>
      </trkpt>
      <trkpt lat="44.42337" lon="2.48686">
        <ele>547</ele>
        <time>2017-12-03T07:40:53.000Z</time>
      </trkpt>
      <trkpt lat="44.42337" lon="2.48703">
        <ele>547</ele>
        <time>2017-12-03T07:40:58.000Z</time>
      </trkpt>
      <trkpt lat="44.42338" lon="2.48714">
        <ele>546</ele>
        <time>2017-12-03T07:41:02.000Z</time>
      </trkpt>
      <trkpt lat="44.42343" lon="2.48734">
        <ele>545</ele>
        <time>2017-12-03T07:41:08.000Z</time>
      </trkpt>
      <trkpt lat="44.42347" lon="2.48751">
        <ele>543</ele>
        <time>2017-12-03T07:41:13.000Z</time>
      </trkpt>
      <trkpt lat="44.4235" lon="2.48761">
        <ele>543</ele>
        <time>2017-12-03T07:41:17.000Z</time>
      </trkpt>
      <trkpt lat="44.42351" lon="2.48763">
        <ele>543</ele>
        <time>2017-12-03T07:41:18.000Z</time>
      </trkpt>
      <trkpt lat="44.42353" lon="2.48765">
        <ele>543</ele>
        <time>2017-12-03T07:41:20.000Z</time>
      </trkpt>
      <trkpt lat="44.42354" lon="2.48767">
        <ele>544</ele>
        <time>2017-12-03T07:41:22.000Z</time>
      </trkpt>
      <trkpt lat="44.42356" lon="2.48769">
        <ele>544</ele>
        <time>2017-12-03T07:41:24.000Z</time>
      </trkpt>
      <trkpt lat="44.42359" lon="2.48771">
        <ele>544</ele>
        <time>2017-12-03T07:41:28.000Z</time>
      </trkpt>
      <trkpt lat="44.42361" lon="2.48772">
        <ele>544</ele>
        <time>2017-12-03T07:41:32.000Z</time>
      </trkpt>
      <trkpt lat="44.42382" lon="2.4877">
        <ele>545</ele>
        <time>2017-12-03T07:42:01.000Z</time>
      </trkpt>
      <trkpt lat="44.42388" lon="2.4877">
        <ele>545</ele>
        <time>2017-12-03T07:42:05.000Z</time>
      </trkpt>
      <trkpt lat="44.42401" lon="2.48765">
        <ele>545</ele>
        <time>2017-12-03T07:42:11.000Z</time>
      </trkpt>
      <trkpt lat="44.42414" lon="2.48762">
        <ele>546</ele>
        <time>2017-12-03T07:42:19.000Z</time>
      </trkpt>
      <trkpt lat="44.4242" lon="2.48758">
        <ele>546</ele>
        <time>2017-12-03T07:42:23.000Z</time>
      </trkpt>
      <trkpt lat="44.42431" lon="2.48757">
        <ele>546</ele>
        <time>2017-12-03T07:42:30.000Z</time>
      </trkpt>
      <trkpt lat="44.42435" lon="2.48757">
        <ele>546</ele>
        <time>2017-12-03T07:42:33.000Z</time>
      </trkpt>
      <trkpt lat="44.42436" lon="2.48757">
        <ele>546</ele>
        <time>2017-12-03T07:42:34.000Z</time>
      </trkpt>
      <trkpt lat="44.42437" lon="2.48757">
        <ele>546</ele>
        <time>2017-12-03T07:42:35.000Z</time>
      </trkpt>
      <trkpt lat="44.42443" lon="2.48761">
        <ele>546</ele>
        <time>2017-12-03T07:42:38.000Z</time>
      </trkpt>
      <trkpt lat="44.42445" lon="2.48762">
        <ele>546</ele>
        <time>2017-12-03T07:42:39.000Z</time>
      </trkpt>
      <trkpt lat="44.42449" lon="2.48766">
        <ele>546</ele>
        <time>2017-12-03T07:42:41.000Z</time>
      </trkpt>
      <trkpt lat="44.42453" lon="2.48767">
        <ele>546</ele>
        <time>2017-12-03T07:42:43.000Z</time>
      </trkpt>
      <trkpt lat="44.42459" lon="2.48774">
        <ele>546</ele>
        <time>2017-12-03T07:42:47.000Z</time>
      </trkpt>
      <trkpt lat="44.42468" lon="2.48782">
        <ele>546</ele>
        <time>2017-12-03T07:42:52.000Z</time>
      </trkpt>
      <trkpt lat="44.42474" lon="2.4879">
        <ele>546</ele>
        <time>2017-12-03T07:42:56.000Z</time>
      </trkpt>
      <trkpt lat="44.42482" lon="2.48796">
        <ele>546</ele>
        <time>2017-12-03T07:43:01.000Z</time>
      </trkpt>
      <trkpt lat="44.42487" lon="2.48798">
        <ele>546</ele>
        <time>2017-12-03T07:43:04.000Z</time>
      </trkpt>
      <trkpt lat="44.42488" lon="2.488">
        <ele>546</ele>
        <time>2017-12-03T07:43:05.000Z</time>
      </trkpt>
      <trkpt lat="44.42492" lon="2.48803">
        <ele>546</ele>
        <time>2017-12-03T07:43:08.000Z</time>
      </trkpt>
      <trkpt lat="44.42494" lon="2.48807">
        <ele>545</ele>
        <time>2017-12-03T07:43:10.000Z</time>
      </trkpt>
      <trkpt lat="44.42496" lon="2.48813">
        <ele>545</ele>
        <time>2017-12-03T07:43:13.000Z</time>
      </trkpt>
      <trkpt lat="44.42499" lon="2.48818">
        <ele>545</ele>
        <time>2017-12-03T07:43:16.000Z</time>
      </trkpt>
      <trkpt lat="44.42505" lon="2.48822">
        <ele>545</ele>
        <time>2017-12-03T07:43:20.000Z</time>
      </trkpt>
      <trkpt lat="44.42506" lon="2.48822">
        <ele>545</ele>
        <time>2017-12-03T07:43:21.000Z</time>
      </trkpt>
      <trkpt lat="44.42525" lon="2.48829">
        <ele>545</ele>
        <time>2017-12-03T07:43:31.000Z</time>
      </trkpt>
      <trkpt lat="44.42531" lon="2.48832">
        <ele>545</ele>
        <time>2017-12-03T07:43:33.000Z</time>
      </trkpt>
      <trkpt lat="44.42543" lon="2.4884">
        <ele>545</ele>
        <time>2017-12-03T07:43:39.000Z</time>
      </trkpt>
      <trkpt lat="44.4255" lon="2.4884">
        <ele>545</ele>
        <time>2017-12-03T07:43:43.000Z</time>
      </trkpt>
      <trkpt lat="44.42563" lon="2.4885">
        <ele>545</ele>
        <time>2017-12-03T07:43:49.000Z</time>
      </trkpt>
      <trkpt lat="44.42573" lon="2.48853">
        <ele>545</ele>
        <time>2017-12-03T07:43:52.000Z</time>
      </trkpt>
      <trkpt lat="44.42591" lon="2.48853">
        <ele>541</ele>
        <time>2017-12-03T07:43:58.000Z</time>
      </trkpt>
      <trkpt lat="44.42596" lon="2.48851">
        <ele>541</ele>
        <time>2017-12-03T07:44:00.000Z</time>
      </trkpt>
      <trkpt lat="44.42615" lon="2.48849">
        <ele>540</ele>
        <time>2017-12-03T07:44:08.000Z</time>
      </trkpt>
      <trkpt lat="44.4262" lon="2.48846">
        <ele>540</ele>
        <time>2017-12-03T07:44:10.000Z</time>
      </trkpt>
      <trkpt lat="44.42632" lon="2.48843">
        <ele>539</ele>
        <time>2017-12-03T07:44:16.000Z</time>
      </trkpt>
      <trkpt lat="44.42635" lon="2.48842">
        <ele>539</ele>
        <time>2017-12-03T07:44:18.000Z</time>
      </trkpt>
      <trkpt lat="44.42636" lon="2.48843">
        <ele>539</ele>
        <time>2017-12-03T07:44:20.000Z</time>
      </trkpt>
      <trkpt lat="44.4264" lon="2.48847">
        <ele>539</ele>
        <time>2017-12-03T07:44:24.000Z</time>
      </trkpt>
      <trkpt lat="44.42641" lon="2.48851">
        <ele>539</ele>
        <time>2017-12-03T07:44:26.000Z</time>
      </trkpt>
      <trkpt lat="44.4264" lon="2.48855">
        <ele>539</ele>
        <time>2017-12-03T07:44:29.000Z</time>
      </trkpt>
      <trkpt lat="44.42639" lon="2.48857">
        <ele>539</ele>
        <time>2017-12-03T07:44:30.000Z</time>
      </trkpt>
      <trkpt lat="44.42641" lon="2.48863">
        <ele>539</ele>
        <time>2017-12-03T07:44:32.000Z</time>
      </trkpt>
      <trkpt lat="44.42642" lon="2.48865">
        <ele>539</ele>
        <time>2017-12-03T07:44:33.000Z</time>
      </trkpt>
      <trkpt lat="44.42644" lon="2.48867">
        <ele>539</ele>
        <time>2017-12-03T07:44:34.000Z</time>
      </trkpt>
      <trkpt lat="44.42648" lon="2.48869">
        <ele>539</ele>
        <time>2017-12-03T07:44:36.000Z</time>
      </trkpt>
      <trkpt lat="44.42651" lon="2.48871">
        <ele>538</ele>
        <time>2017-12-03T07:44:38.000Z</time>
      </trkpt>
      <trkpt lat="44.42655" lon="2.48872">
        <ele>538</ele>
        <time>2017-12-03T07:44:40.000Z</time>
      </trkpt>
      <trkpt lat="44.42661" lon="2.48874">
        <ele>538</ele>
        <time>2017-12-03T07:44:42.000Z</time>
      </trkpt>
      <trkpt lat="44.42668" lon="2.48871">
        <ele>530</ele>
        <time>2017-12-03T07:44:45.000Z</time>
      </trkpt>
      <trkpt lat="44.42687" lon="2.48868">
        <ele>528</ele>
        <time>2017-12-03T07:44:52.000Z</time>
      </trkpt>
      <trkpt lat="44.42696" lon="2.48868">
        <ele>528</ele>
        <time>2017-12-03T07:44:56.000Z</time>
      </trkpt>
      <trkpt lat="44.4271" lon="2.48868">
        <ele>526</ele>
        <time>2017-12-03T07:45:01.000Z</time>
      </trkpt>
      <trkpt lat="44.42726" lon="2.48864">
        <ele>524</ele>
        <time>2017-12-03T07:45:06.000Z</time>
      </trkpt>
      <trkpt lat="44.42744" lon="2.48854">
        <ele>521</ele>
        <time>2017-12-03T07:45:12.000Z</time>
      </trkpt>
      <trkpt lat="44.42747" lon="2.48853">
        <ele>520</ele>
        <time>2017-12-03T07:45:13.000Z</time>
      </trkpt>
      <trkpt lat="44.42765" lon="2.48845">
        <ele>515</ele>
        <time>2017-12-03T07:45:21.000Z</time>
      </trkpt>
      <trkpt lat="44.42785" lon="2.48844">
        <ele>515</ele>
        <time>2017-12-03T07:45:31.000Z</time>
      </trkpt>
      <trkpt lat="44.42792" lon="2.48841">
        <ele>514</ele>
        <time>2017-12-03T07:45:34.000Z</time>
      </trkpt>
      <trkpt lat="44.428" lon="2.48836">
        <ele>514</ele>
        <time>2017-12-03T07:45:38.000Z</time>
      </trkpt>
      <trkpt lat="44.42815" lon="2.48829">
        <ele>513</ele>
        <time>2017-12-03T07:45:44.000Z</time>
      </trkpt>
      <trkpt lat="44.42833" lon="2.48817">
        <ele>509</ele>
        <time>2017-12-03T07:45:51.000Z</time>
      </trkpt>
      <trkpt lat="44.42838" lon="2.48814">
        <ele>509</ele>
        <time>2017-12-03T07:45:53.000Z</time>
      </trkpt>
      <trkpt lat="44.42841" lon="2.48813">
        <ele>509</ele>
        <time>2017-12-03T07:45:55.000Z</time>
      </trkpt>
      <trkpt lat="44.42842" lon="2.48812">
        <ele>509</ele>
        <time>2017-12-03T07:45:56.000Z</time>
      </trkpt>
      <trkpt lat="44.42847" lon="2.48812">
        <ele>509</ele>
        <time>2017-12-03T07:45:58.000Z</time>
      </trkpt>
      <trkpt lat="44.42849" lon="2.48808">
        <ele>509</ele>
        <time>2017-12-03T07:46:01.000Z</time>
      </trkpt>
      <trkpt lat="44.42854" lon="2.48803">
        <ele>510</ele>
        <time>2017-12-03T07:46:08.000Z</time>
      </trkpt>
      <trkpt lat="44.42856" lon="2.48802">
        <ele>510</ele>
        <time>2017-12-03T07:46:10.000Z</time>
      </trkpt>
      <trkpt lat="44.42858" lon="2.48801">
        <ele>510</ele>
        <time>2017-12-03T07:46:14.000Z</time>
      </trkpt>
      <trkpt lat="44.42857" lon="2.48801">
        <ele>510</ele>
        <time>2017-12-03T07:46:16.000Z</time>
      </trkpt>
      <trkpt lat="44.42862" lon="2.48776">
        <ele>511</ele>
        <time>2017-12-03T07:47:05.000Z</time>
      </trkpt>
      <trkpt lat="44.42865" lon="2.4877">
        <ele>511</ele>
        <time>2017-12-03T07:47:08.000Z</time>
      </trkpt>
      <trkpt lat="44.4287" lon="2.48768">
        <ele>510</ele>
        <time>2017-12-03T07:47:12.000Z</time>
      </trkpt>
      <trkpt lat="44.42875" lon="2.48769">
        <ele>510</ele>
        <time>2017-12-03T07:47:15.000Z</time>
      </trkpt>
      <trkpt lat="44.4288" lon="2.4877">
        <ele>510</ele>
        <time>2017-12-03T07:47:19.000Z</time>
      </trkpt>
      <trkpt lat="44.42884" lon="2.48771">
        <ele>510</ele>
        <time>2017-12-03T07:47:22.000Z</time>
      </trkpt>
      <trkpt lat="44.42892" lon="2.48772">
        <ele>509</ele>
        <time>2017-12-03T07:47:27.000Z</time>
      </trkpt>
      <trkpt lat="44.42913" lon="2.48769">
        <ele>509</ele>
        <time>2017-12-03T07:47:36.000Z</time>
      </trkpt>
      <trkpt lat="44.42927" lon="2.48768">
        <ele>505</ele>
        <time>2017-12-03T07:47:44.000Z</time>
      </trkpt>
      <trkpt lat="44.42938" lon="2.48768">
        <ele>505</ele>
        <time>2017-12-03T07:47:50.000Z</time>
      </trkpt>
      <trkpt lat="44.42944" lon="2.48767">
        <ele>505</ele>
        <time>2017-12-03T07:47:53.000Z</time>
      </trkpt>
      <trkpt lat="44.4295" lon="2.48765">
        <ele>504</ele>
        <time>2017-12-03T07:47:56.000Z</time>
      </trkpt>
      <trkpt lat="44.42955" lon="2.48765">
        <ele>504</ele>
        <time>2017-12-03T07:47:59.000Z</time>
      </trkpt>
      <trkpt lat="44.42957" lon="2.48765">
        <ele>504</ele>
        <time>2017-12-03T07:48:01.000Z</time>
      </trkpt>
      <trkpt lat="44.4296" lon="2.48767">
        <ele>504</ele>
        <time>2017-12-03T07:48:03.000Z</time>
      </trkpt>
      <trkpt lat="44.42963" lon="2.48769">
        <ele>504</ele>
        <time>2017-12-03T07:48:05.000Z</time>
      </trkpt>
      <trkpt lat="44.42966" lon="2.48772">
        <ele>503</ele>
        <time>2017-12-03T07:48:08.000Z</time>
      </trkpt>
      <trkpt lat="44.4298" lon="2.48779">
        <ele>503</ele>
        <time>2017-12-03T07:48:13.000Z</time>
      </trkpt>
      <trkpt lat="44.42998" lon="2.48789">
        <ele>502</ele>
        <time>2017-12-03T07:48:20.000Z</time>
      </trkpt>
      <trkpt lat="44.43016" lon="2.48799">
        <ele>503</ele>
        <time>2017-12-03T07:48:28.000Z</time>
      </trkpt>
      <trkpt lat="44.43018" lon="2.48809">
        <ele>502</ele>
        <time>2017-12-03T07:48:32.000Z</time>
      </trkpt>
      <trkpt lat="44.43021" lon="2.48822">
        <ele>502</ele>
        <time>2017-12-03T07:48:37.000Z</time>
      </trkpt>
      <trkpt lat="44.4303" lon="2.48829">
        <ele>502</ele>
        <time>2017-12-03T07:48:43.000Z</time>
      </trkpt>
      <trkpt lat="44.43041" lon="2.48839">
        <ele>500</ele>
        <time>2017-12-03T07:48:49.000Z</time>
      </trkpt>
      <trkpt lat="44.43053" lon="2.48851">
        <ele>500</ele>
        <time>2017-12-03T07:48:55.000Z</time>
      </trkpt>
      <trkpt lat="44.43064" lon="2.4886">
        <ele>500</ele>
        <time>2017-12-03T07:49:00.000Z</time>
      </trkpt>
      <trkpt lat="44.43081" lon="2.48873">
        <ele>500</ele>
        <time>2017-12-03T07:49:11.000Z</time>
      </trkpt>
      <trkpt lat="44.43095" lon="2.48889">
        <ele>502</ele>
        <time>2017-12-03T07:49:21.000Z</time>
      </trkpt>
      <trkpt lat="44.431" lon="2.48893">
        <ele>502</ele>
        <time>2017-12-03T07:49:25.000Z</time>
      </trkpt>
      <trkpt lat="44.43109" lon="2.48898">
        <ele>502</ele>
        <time>2017-12-03T07:49:29.000Z</time>
      </trkpt>
      <trkpt lat="44.43118" lon="2.48904">
        <ele>502</ele>
        <time>2017-12-03T07:49:34.000Z</time>
      </trkpt>
      <trkpt lat="44.43127" lon="2.48907">
        <ele>502</ele>
        <time>2017-12-03T07:49:38.000Z</time>
      </trkpt>
      <trkpt lat="44.43137" lon="2.48913">
        <ele>503</ele>
        <time>2017-12-03T07:49:44.000Z</time>
      </trkpt>
      <trkpt lat="44.43144" lon="2.48921">
        <ele>506</ele>
        <time>2017-12-03T07:49:50.000Z</time>
      </trkpt>
      <trkpt lat="44.43151" lon="2.48928">
        <ele>506</ele>
        <time>2017-12-03T07:49:55.000Z</time>
      </trkpt>
      <trkpt lat="44.43156" lon="2.48933">
        <ele>506</ele>
        <time>2017-12-03T07:50:00.000Z</time>
      </trkpt>
      <trkpt lat="44.4316" lon="2.48938">
        <ele>507</ele>
        <time>2017-12-03T07:50:04.000Z</time>
      </trkpt>
      <trkpt lat="44.43162" lon="2.48943">
        <ele>507</ele>
        <time>2017-12-03T07:50:07.000Z</time>
      </trkpt>
      <trkpt lat="44.43165" lon="2.48949">
        <ele>508</ele>
        <time>2017-12-03T07:50:10.000Z</time>
      </trkpt>
      <trkpt lat="44.43167" lon="2.48954">
        <ele>505</ele>
        <time>2017-12-03T07:50:13.000Z</time>
      </trkpt>
      <trkpt lat="44.43168" lon="2.48958">
        <ele>505</ele>
        <time>2017-12-03T07:50:15.000Z</time>
      </trkpt>
      <trkpt lat="44.43169" lon="2.48962">
        <ele>505</ele>
        <time>2017-12-03T07:50:17.000Z</time>
      </trkpt>
      <trkpt lat="44.4317" lon="2.48966">
        <ele>506</ele>
        <time>2017-12-03T07:50:19.000Z</time>
      </trkpt>
      <trkpt lat="44.43173" lon="2.4897">
        <ele>506</ele>
        <time>2017-12-03T07:50:22.000Z</time>
      </trkpt>
      <trkpt lat="44.43173" lon="2.4897">
        <ele>507</ele>
        <time>2017-12-03T07:50:23.000Z</time>
      </trkpt>
      <trkpt lat="44.43175" lon="2.48972">
        <ele>507</ele>
        <time>2017-12-03T07:50:25.000Z</time>
      </trkpt>
      <trkpt lat="44.43176" lon="2.48974">
        <ele>507</ele>
        <time>2017-12-03T07:50:27.000Z</time>
      </trkpt>
      <trkpt lat="44.43177" lon="2.48978">
        <ele>508</ele>
        <time>2017-12-03T07:50:31.000Z</time>
      </trkpt>
      <trkpt lat="44.43177" lon="2.48981">
        <ele>508</ele>
        <time>2017-12-03T07:50:34.000Z</time>
      </trkpt>
      <trkpt lat="44.43178" lon="2.48987">
        <ele>509</ele>
        <time>2017-12-03T07:50:38.000Z</time>
      </trkpt>
      <trkpt lat="44.43179" lon="2.48997">
        <ele>511</ele>
        <time>2017-12-03T07:50:44.000Z</time>
      </trkpt>
      <trkpt lat="44.43183" lon="2.49005">
        <ele>515</ele>
        <time>2017-12-03T07:50:50.000Z</time>
      </trkpt>
      <trkpt lat="44.43191" lon="2.49011">
        <ele>514</ele>
        <time>2017-12-03T07:50:58.000Z</time>
      </trkpt>
      <trkpt lat="44.43193" lon="2.49012">
        <ele>514</ele>
        <time>2017-12-03T07:51:00.000Z</time>
      </trkpt>
      <trkpt lat="44.43199" lon="2.49014">
        <ele>513</ele>
        <time>2017-12-03T07:51:07.000Z</time>
      </trkpt>
      <trkpt lat="44.43203" lon="2.49019">
        <ele>513</ele>
        <time>2017-12-03T07:51:10.000Z</time>
      </trkpt>
      <trkpt lat="44.43204" lon="2.4902">
        <ele>513</ele>
        <time>2017-12-03T07:51:11.000Z</time>
      </trkpt>
      <trkpt lat="44.43215" lon="2.49043">
        <ele>514</ele>
        <time>2017-12-03T07:51:24.000Z</time>
      </trkpt>
      <trkpt lat="44.43222" lon="2.49055">
        <ele>514</ele>
        <time>2017-12-03T07:51:32.000Z</time>
      </trkpt>
      <trkpt lat="44.4323" lon="2.49065">
        <ele>514</ele>
        <time>2017-12-03T07:51:40.000Z</time>
      </trkpt>
      <trkpt lat="44.43234" lon="2.49071">
        <ele>515</ele>
        <time>2017-12-03T07:51:45.000Z</time>
      </trkpt>
      <trkpt lat="44.43234" lon="2.49074">
        <ele>515</ele>
        <time>2017-12-03T07:51:47.000Z</time>
      </trkpt>
      <trkpt lat="44.43238" lon="2.4908">
        <ele>515</ele>
        <time>2017-12-03T07:51:51.000Z</time>
      </trkpt>
      <trkpt lat="44.43241" lon="2.49087">
        <ele>518</ele>
        <time>2017-12-03T07:51:55.000Z</time>
      </trkpt>
      <trkpt lat="44.43242" lon="2.4909">
        <ele>519</ele>
        <time>2017-12-03T07:51:57.000Z</time>
      </trkpt>
      <trkpt lat="44.43246" lon="2.49103">
        <ele>521</ele>
        <time>2017-12-03T07:52:04.000Z</time>
      </trkpt>
      <trkpt lat="44.43247" lon="2.49112">
        <ele>522</ele>
        <time>2017-12-03T07:52:09.000Z</time>
      </trkpt>
      <trkpt lat="44.43247" lon="2.49114">
        <ele>522</ele>
        <time>2017-12-03T07:52:10.000Z</time>
      </trkpt>
      <trkpt lat="44.43251" lon="2.49126">
        <ele>517</ele>
        <time>2017-12-03T07:52:17.000Z</time>
      </trkpt>
      <trkpt lat="44.43256" lon="2.49135">
        <ele>518</ele>
        <time>2017-12-03T07:52:23.000Z</time>
      </trkpt>
      <trkpt lat="44.43263" lon="2.49144">
        <ele>518</ele>
        <time>2017-12-03T07:52:30.000Z</time>
      </trkpt>
      <trkpt lat="44.43274" lon="2.49161">
        <ele>518</ele>
        <time>2017-12-03T07:52:42.000Z</time>
      </trkpt>
      <trkpt lat="44.43277" lon="2.49165">
        <ele>518</ele>
        <time>2017-12-03T07:52:45.000Z</time>
      </trkpt>
      <trkpt lat="44.43279" lon="2.49172">
        <ele>521</ele>
        <time>2017-12-03T07:52:49.000Z</time>
      </trkpt>
      <trkpt lat="44.43281" lon="2.49178">
        <ele>521</ele>
        <time>2017-12-03T07:52:52.000Z</time>
      </trkpt>
      <trkpt lat="44.43283" lon="2.49204">
        <ele>521</ele>
        <time>2017-12-03T07:53:04.000Z</time>
      </trkpt>
      <trkpt lat="44.43286" lon="2.49232">
        <ele>522</ele>
        <time>2017-12-03T07:53:13.000Z</time>
      </trkpt>
      <trkpt lat="44.4329" lon="2.49259">
        <ele>524</ele>
        <time>2017-12-03T07:53:22.000Z</time>
      </trkpt>
      <trkpt lat="44.43294" lon="2.49285">
        <ele>524</ele>
        <time>2017-12-03T07:53:33.000Z</time>
      </trkpt>
      <trkpt lat="44.43295" lon="2.49291">
        <ele>524</ele>
        <time>2017-12-03T07:53:41.000Z</time>
      </trkpt>
      <trkpt lat="44.43295" lon="2.49291">
        <ele>524</ele>
        <time>2017-12-03T07:53:45.000Z</time>
      </trkpt>
      <trkpt lat="44.43294" lon="2.49299">
        <ele>524</ele>
        <time>2017-12-03T07:54:27.000Z</time>
      </trkpt>
      <trkpt lat="44.43296" lon="2.49308">
        <ele>524</ele>
        <time>2017-12-03T07:54:30.000Z</time>
      </trkpt>
      <trkpt lat="44.43296" lon="2.49333">
        <ele>526</ele>
        <time>2017-12-03T07:54:37.000Z</time>
      </trkpt>
      <trkpt lat="44.43297" lon="2.49343">
        <ele>526</ele>
        <time>2017-12-03T07:54:40.000Z</time>
      </trkpt>
      <trkpt lat="44.43303" lon="2.49368">
        <ele>526</ele>
        <time>2017-12-03T07:54:48.000Z</time>
      </trkpt>
      <trkpt lat="44.43309" lon="2.49395">
        <ele>526</ele>
        <time>2017-12-03T07:54:57.000Z</time>
      </trkpt>
      <trkpt lat="44.43313" lon="2.49413">
        <ele>526</ele>
        <time>2017-12-03T07:55:03.000Z</time>
      </trkpt>
      <trkpt lat="44.43319" lon="2.49435">
        <ele>527</ele>
        <time>2017-12-03T07:55:10.000Z</time>
      </trkpt>
      <trkpt lat="44.43322" lon="2.49449">
        <ele>528</ele>
        <time>2017-12-03T07:55:14.000Z</time>
      </trkpt>
      <trkpt lat="44.43324" lon="2.49462">
        <ele>528</ele>
        <time>2017-12-03T07:55:18.000Z</time>
      </trkpt>
      <trkpt lat="44.43327" lon="2.49487">
        <ele>527</ele>
        <time>2017-12-03T07:55:26.000Z</time>
      </trkpt>
      <trkpt lat="44.43327" lon="2.49493">
        <ele>526</ele>
        <time>2017-12-03T07:55:28.000Z</time>
      </trkpt>
      <trkpt lat="44.43327" lon="2.4952">
        <ele>528</ele>
        <time>2017-12-03T07:55:37.000Z</time>
      </trkpt>
      <trkpt lat="44.43327" lon="2.49529">
        <ele>529</ele>
        <time>2017-12-03T07:55:40.000Z</time>
      </trkpt>
      <trkpt lat="44.43327" lon="2.49557">
        <ele>530</ele>
        <time>2017-12-03T07:55:49.000Z</time>
      </trkpt>
      <trkpt lat="44.43327" lon="2.49579">
        <ele>529</ele>
        <time>2017-12-03T07:55:56.000Z</time>
      </trkpt>
      <trkpt lat="44.43326" lon="2.49605">
        <ele>532</ele>
        <time>2017-12-03T07:56:04.000Z</time>
      </trkpt>
      <trkpt lat="44.43326" lon="2.49608">
        <ele>532</ele>
        <time>2017-12-03T07:56:05.000Z</time>
      </trkpt>
      <trkpt lat="44.43325" lon="2.49629">
        <ele>533</ele>
        <time>2017-12-03T07:56:12.000Z</time>
      </trkpt>
      <trkpt lat="44.43325" lon="2.49632">
        <ele>533</ele>
        <time>2017-12-03T07:56:13.000Z</time>
      </trkpt>
      <trkpt lat="44.43322" lon="2.49646">
        <ele>533</ele>
        <time>2017-12-03T07:56:18.000Z</time>
      </trkpt>
      <trkpt lat="44.43319" lon="2.49662">
        <ele>533</ele>
        <time>2017-12-03T07:56:24.000Z</time>
      </trkpt>
      <trkpt lat="44.43315" lon="2.49682">
        <ele>535</ele>
        <time>2017-12-03T07:56:31.000Z</time>
      </trkpt>
      <trkpt lat="44.43311" lon="2.49704">
        <ele>536</ele>
        <time>2017-12-03T07:56:38.000Z</time>
      </trkpt>
      <trkpt lat="44.43306" lon="2.49728">
        <ele>536</ele>
        <time>2017-12-03T07:56:46.000Z</time>
      </trkpt>
      <trkpt lat="44.43304" lon="2.49734">
        <ele>536</ele>
        <time>2017-12-03T07:56:48.000Z</time>
      </trkpt>
      <trkpt lat="44.43297" lon="2.49759">
        <ele>536</ele>
        <time>2017-12-03T07:56:56.000Z</time>
      </trkpt>
      <trkpt lat="44.43289" lon="2.49785">
        <ele>536</ele>
        <time>2017-12-03T07:57:04.000Z</time>
      </trkpt>
      <trkpt lat="44.43279" lon="2.49809">
        <ele>536</ele>
        <time>2017-12-03T07:57:12.000Z</time>
      </trkpt>
      <trkpt lat="44.43277" lon="2.49815">
        <ele>536</ele>
        <time>2017-12-03T07:57:14.000Z</time>
      </trkpt>
      <trkpt lat="44.43274" lon="2.49823">
        <ele>536</ele>
        <time>2017-12-03T07:57:17.000Z</time>
      </trkpt>
      <trkpt lat="44.4327" lon="2.49832">
        <ele>536</ele>
        <time>2017-12-03T07:57:20.000Z</time>
      </trkpt>
      <trkpt lat="44.43266" lon="2.49842">
        <ele>533</ele>
        <time>2017-12-03T07:57:23.000Z</time>
      </trkpt>
      <trkpt lat="44.43262" lon="2.49852">
        <ele>532</ele>
        <time>2017-12-03T07:57:26.000Z</time>
      </trkpt>
      <trkpt lat="44.43258" lon="2.49861">
        <ele>532</ele>
        <time>2017-12-03T07:57:29.000Z</time>
      </trkpt>
      <trkpt lat="44.43255" lon="2.49871">
        <ele>531</ele>
        <time>2017-12-03T07:57:32.000Z</time>
      </trkpt>
      <trkpt lat="44.43244" lon="2.49892">
        <ele>534</ele>
        <time>2017-12-03T07:57:39.000Z</time>
      </trkpt>
      <trkpt lat="44.43229" lon="2.49876">
        <ele>536</ele>
        <time>2017-12-03T07:57:48.000Z</time>
      </trkpt>
      <trkpt lat="44.43227" lon="2.49872">
        <ele>536</ele>
        <time>2017-12-03T07:57:50.000Z</time>
      </trkpt>
      <trkpt lat="44.4323" lon="2.49847">
        <ele>537</ele>
        <time>2017-12-03T07:58:01.000Z</time>
      </trkpt>
      <trkpt lat="44.43227" lon="2.49846">
        <ele>537</ele>
        <time>2017-12-03T07:58:03.000Z</time>
      </trkpt>
      <trkpt lat="44.43222" lon="2.4985">
        <ele>537</ele>
        <time>2017-12-03T07:58:06.000Z</time>
      </trkpt>
      <trkpt lat="44.43215" lon="2.49863">
        <ele>537</ele>
        <time>2017-12-03T07:58:12.000Z</time>
      </trkpt>
      <trkpt lat="44.43207" lon="2.4988">
        <ele>537</ele>
        <time>2017-12-03T07:58:20.000Z</time>
      </trkpt>
      <trkpt lat="44.43201" lon="2.49889">
        <ele>538</ele>
        <time>2017-12-03T07:58:25.000Z</time>
      </trkpt>
      <trkpt lat="44.43194" lon="2.49897">
        <ele>538</ele>
        <time>2017-12-03T07:58:30.000Z</time>
      </trkpt>
      <trkpt lat="44.43186" lon="2.49902">
        <ele>539</ele>
        <time>2017-12-03T07:58:36.000Z</time>
      </trkpt>
      <trkpt lat="44.43179" lon="2.49903">
        <ele>539</ele>
        <time>2017-12-03T07:58:41.000Z</time>
      </trkpt>
      <trkpt lat="44.43173" lon="2.49903">
        <ele>540</ele>
        <time>2017-12-03T07:58:45.000Z</time>
      </trkpt>
      <trkpt lat="44.43165" lon="2.49901">
        <ele>545</ele>
        <time>2017-12-03T07:58:51.000Z</time>
      </trkpt>
      <trkpt lat="44.43158" lon="2.49901">
        <ele>546</ele>
        <time>2017-12-03T07:58:56.000Z</time>
      </trkpt>
      <trkpt lat="44.43151" lon="2.49904">
        <ele>546</ele>
        <time>2017-12-03T07:59:01.000Z</time>
      </trkpt>
      <trkpt lat="44.43142" lon="2.49912">
        <ele>547</ele>
        <time>2017-12-03T07:59:07.000Z</time>
      </trkpt>
      <trkpt lat="44.43137" lon="2.49921">
        <ele>544</ele>
        <time>2017-12-03T07:59:12.000Z</time>
      </trkpt>
      <trkpt lat="44.43128" lon="2.49935">
        <ele>545</ele>
        <time>2017-12-03T07:59:19.000Z</time>
      </trkpt>
      <trkpt lat="44.43117" lon="2.49959">
        <ele>545</ele>
        <time>2017-12-03T07:59:29.000Z</time>
      </trkpt>
      <trkpt lat="44.43113" lon="2.49965">
        <ele>545</ele>
        <time>2017-12-03T07:59:32.000Z</time>
      </trkpt>
      <trkpt lat="44.4311" lon="2.49975">
        <ele>545</ele>
        <time>2017-12-03T07:59:38.000Z</time>
      </trkpt>
      <trkpt lat="44.4311" lon="2.49983">
        <ele>545</ele>
        <time>2017-12-03T07:59:45.000Z</time>
      </trkpt>
      <trkpt lat="44.43109" lon="2.4999">
        <ele>545</ele>
        <time>2017-12-03T07:59:49.000Z</time>
      </trkpt>
      <trkpt lat="44.43109" lon="2.49991">
        <ele>545</ele>
        <time>2017-12-03T07:59:50.000Z</time>
      </trkpt>
      <trkpt lat="44.43108" lon="2.49993">
        <ele>545</ele>
        <time>2017-12-03T07:59:52.000Z</time>
      </trkpt>
      <trkpt lat="44.43105" lon="2.49996">
        <ele>545</ele>
        <time>2017-12-03T07:59:54.000Z</time>
      </trkpt>
      <trkpt lat="44.43103" lon="2.50001">
        <ele>542</ele>
        <time>2017-12-03T07:59:57.000Z</time>
      </trkpt>
      <trkpt lat="44.43103" lon="2.50002">
        <ele>542</ele>
        <time>2017-12-03T07:59:58.000Z</time>
      </trkpt>
      <trkpt lat="44.43102" lon="2.50003">
        <ele>542</ele>
        <time>2017-12-03T07:59:59.000Z</time>
      </trkpt>
      <trkpt lat="44.431" lon="2.50004">
        <ele>543</ele>
        <time>2017-12-03T08:00:01.000Z</time>
      </trkpt>
      <trkpt lat="44.43099" lon="2.50007">
        <ele>543</ele>
        <time>2017-12-03T08:00:03.000Z</time>
      </trkpt>
      <trkpt lat="44.43097" lon="2.50015">
        <ele>542</ele>
        <time>2017-12-03T08:00:06.000Z</time>
      </trkpt>
      <trkpt lat="44.43097" lon="2.50023">
        <ele>541</ele>
        <time>2017-12-03T08:00:10.000Z</time>
      </trkpt>
      <trkpt lat="44.43098" lon="2.50028">
        <ele>541</ele>
        <time>2017-12-03T08:00:13.000Z</time>
      </trkpt>
      <trkpt lat="44.43097" lon="2.50031">
        <ele>541</ele>
        <time>2017-12-03T08:00:14.000Z</time>
      </trkpt>
      <trkpt lat="44.43094" lon="2.50039">
        <ele>540</ele>
        <time>2017-12-03T08:00:17.000Z</time>
      </trkpt>
      <trkpt lat="44.43094" lon="2.50044">
        <ele>540</ele>
        <time>2017-12-03T08:00:19.000Z</time>
      </trkpt>
      <trkpt lat="44.43093" lon="2.50047">
        <ele>540</ele>
        <time>2017-12-03T08:00:20.000Z</time>
      </trkpt>
      <trkpt lat="44.43091" lon="2.5006">
        <ele>540</ele>
        <time>2017-12-03T08:00:24.000Z</time>
      </trkpt>
      <trkpt lat="44.43086" lon="2.50077">
        <ele>542</ele>
        <time>2017-12-03T08:00:33.000Z</time>
      </trkpt>
      <trkpt lat="44.4308" lon="2.50102">
        <ele>546</ele>
        <time>2017-12-03T08:00:43.000Z</time>
      </trkpt>
      <trkpt lat="44.43078" lon="2.5011">
        <ele>546</ele>
        <time>2017-12-03T08:00:46.000Z</time>
      </trkpt>
      <trkpt lat="44.43076" lon="2.50118">
        <ele>546</ele>
        <time>2017-12-03T08:00:49.000Z</time>
      </trkpt>
      <trkpt lat="44.43077" lon="2.50123">
        <ele>546</ele>
        <time>2017-12-03T08:00:51.000Z</time>
      </trkpt>
      <trkpt lat="44.43077" lon="2.50125">
        <ele>545</ele>
        <time>2017-12-03T08:00:52.000Z</time>
      </trkpt>
      <trkpt lat="44.43076" lon="2.50128">
        <ele>545</ele>
        <time>2017-12-03T08:00:54.000Z</time>
      </trkpt>
      <trkpt lat="44.43074" lon="2.5013">
        <ele>545</ele>
        <time>2017-12-03T08:00:55.000Z</time>
      </trkpt>
      <trkpt lat="44.43068" lon="2.50137">
        <ele>545</ele>
        <time>2017-12-03T08:01:00.000Z</time>
      </trkpt>
      <trkpt lat="44.43063" lon="2.50153">
        <ele>544</ele>
        <time>2017-12-03T08:01:06.000Z</time>
      </trkpt>
      <trkpt lat="44.43057" lon="2.50162">
        <ele>544</ele>
        <time>2017-12-03T08:01:10.000Z</time>
      </trkpt>
      <trkpt lat="44.43051" lon="2.50174">
        <ele>543</ele>
        <time>2017-12-03T08:01:14.000Z</time>
      </trkpt>
      <trkpt lat="44.43048" lon="2.50183">
        <ele>543</ele>
        <time>2017-12-03T08:01:17.000Z</time>
      </trkpt>
      <trkpt lat="44.43043" lon="2.50209">
        <ele>544</ele>
        <time>2017-12-03T08:01:26.000Z</time>
      </trkpt>
      <trkpt lat="44.43042" lon="2.50214">
        <ele>544</ele>
        <time>2017-12-03T08:01:28.000Z</time>
      </trkpt>
      <trkpt lat="44.43043" lon="2.5024">
        <ele>543</ele>
        <time>2017-12-03T08:01:38.000Z</time>
      </trkpt>
      <trkpt lat="44.43043" lon="2.50242">
        <ele>543</ele>
        <time>2017-12-03T08:01:39.000Z</time>
      </trkpt>
      <trkpt lat="44.43042" lon="2.50249">
        <ele>543</ele>
        <time>2017-12-03T08:01:42.000Z</time>
      </trkpt>
      <trkpt lat="44.43041" lon="2.5026">
        <ele>541</ele>
        <time>2017-12-03T08:01:47.000Z</time>
      </trkpt>
      <trkpt lat="44.43041" lon="2.50264">
        <ele>541</ele>
        <time>2017-12-03T08:01:50.000Z</time>
      </trkpt>
      <trkpt lat="44.43042" lon="2.50267">
        <ele>541</ele>
        <time>2017-12-03T08:01:52.000Z</time>
      </trkpt>
      <trkpt lat="44.43041" lon="2.50272">
        <ele>541</ele>
        <time>2017-12-03T08:01:55.000Z</time>
      </trkpt>
      <trkpt lat="44.43035" lon="2.50285">
        <ele>542</ele>
        <time>2017-12-03T08:02:02.000Z</time>
      </trkpt>
      <trkpt lat="44.43029" lon="2.50303">
        <ele>542</ele>
        <time>2017-12-03T08:02:09.000Z</time>
      </trkpt>
      <trkpt lat="44.4302" lon="2.50324">
        <ele>545</ele>
        <time>2017-12-03T08:02:18.000Z</time>
      </trkpt>
      <trkpt lat="44.43021" lon="2.50339">
        <ele>542</ele>
        <time>2017-12-03T08:02:24.000Z</time>
      </trkpt>
      <trkpt lat="44.4302" lon="2.50343">
        <ele>542</ele>
        <time>2017-12-03T08:02:29.000Z</time>
      </trkpt>
      <trkpt lat="44.43024" lon="2.50347">
        <ele>541</ele>
        <time>2017-12-03T08:02:32.000Z</time>
      </trkpt>
      <trkpt lat="44.43026" lon="2.5035">
        <ele>540</ele>
        <time>2017-12-03T08:02:34.000Z</time>
      </trkpt>
      <trkpt lat="44.43028" lon="2.50351">
        <ele>539</ele>
        <time>2017-12-03T08:02:35.000Z</time>
      </trkpt>
      <trkpt lat="44.43026" lon="2.50357">
        <ele>539</ele>
        <time>2017-12-03T08:02:36.000Z</time>
      </trkpt>
      <trkpt lat="44.43043" lon="2.5035">
        <ele>536</ele>
        <time>2017-12-03T08:02:43.000Z</time>
      </trkpt>
      <trkpt lat="44.43052" lon="2.50326">
        <ele>537</ele>
        <time>2017-12-03T08:02:53.000Z</time>
      </trkpt>
      <trkpt lat="44.43054" lon="2.50321">
        <ele>537</ele>
        <time>2017-12-03T08:02:57.000Z</time>
      </trkpt>
      <trkpt lat="44.43055" lon="2.50316">
        <ele>537</ele>
        <time>2017-12-03T08:03:00.000Z</time>
      </trkpt>
      <trkpt lat="44.43063" lon="2.50329">
        <ele>534</ele>
        <time>2017-12-03T08:03:10.000Z</time>
      </trkpt>
      <trkpt lat="44.43064" lon="2.50335">
        <ele>531</ele>
        <time>2017-12-03T08:03:14.000Z</time>
      </trkpt>
      <trkpt lat="44.43063" lon="2.50339">
        <ele>532</ele>
        <time>2017-12-03T08:03:17.000Z</time>
      </trkpt>
      <trkpt lat="44.43062" lon="2.50341">
        <ele>532</ele>
        <time>2017-12-03T08:03:18.000Z</time>
      </trkpt>
      <trkpt lat="44.43063" lon="2.50343">
        <ele>532</ele>
        <time>2017-12-03T08:03:20.000Z</time>
      </trkpt>
      <trkpt lat="44.43064" lon="2.50344">
        <ele>532</ele>
        <time>2017-12-03T08:03:21.000Z</time>
      </trkpt>
      <trkpt lat="44.43064" lon="2.50345">
        <ele>532</ele>
        <time>2017-12-03T08:03:22.000Z</time>
      </trkpt>
      <trkpt lat="44.43064" lon="2.50351">
        <ele>532</ele>
        <time>2017-12-03T08:03:25.000Z</time>
      </trkpt>
      <trkpt lat="44.43064" lon="2.50353">
        <ele>532</ele>
        <time>2017-12-03T08:03:26.000Z</time>
      </trkpt>
      <trkpt lat="44.43063" lon="2.50355">
        <ele>532</ele>
        <time>2017-12-03T08:03:27.000Z</time>
      </trkpt>
      <trkpt lat="44.43064" lon="2.50359">
        <ele>532</ele>
        <time>2017-12-03T08:03:29.000Z</time>
      </trkpt>
      <trkpt lat="44.43065" lon="2.50361">
        <ele>532</ele>
        <time>2017-12-03T08:03:30.000Z</time>
      </trkpt>
      <trkpt lat="44.43066" lon="2.50362">
        <ele>532</ele>
        <time>2017-12-03T08:03:31.000Z</time>
      </trkpt>
      <trkpt lat="44.43067" lon="2.5037">
        <ele>532</ele>
        <time>2017-12-03T08:03:34.000Z</time>
      </trkpt>
      <trkpt lat="44.43065" lon="2.50377">
        <ele>532</ele>
        <time>2017-12-03T08:03:37.000Z</time>
      </trkpt>
      <trkpt lat="44.43064" lon="2.50382">
        <ele>531</ele>
        <time>2017-12-03T08:03:39.000Z</time>
      </trkpt>
      <trkpt lat="44.43063" lon="2.50386">
        <ele>531</ele>
        <time>2017-12-03T08:03:42.000Z</time>
      </trkpt>
      <trkpt lat="44.43063" lon="2.50388">
        <ele>531</ele>
        <time>2017-12-03T08:03:43.000Z</time>
      </trkpt>
      <trkpt lat="44.43063" lon="2.50391">
        <ele>531</ele>
        <time>2017-12-03T08:03:44.000Z</time>
      </trkpt>
      <trkpt lat="44.43067" lon="2.50398">
        <ele>529</ele>
        <time>2017-12-03T08:03:47.000Z</time>
      </trkpt>
      <trkpt lat="44.43065" lon="2.50404">
        <ele>528</ele>
        <time>2017-12-03T08:03:51.000Z</time>
      </trkpt>
      <trkpt lat="44.43056" lon="2.50421">
        <ele>527</ele>
        <time>2017-12-03T08:03:59.000Z</time>
      </trkpt>
      <trkpt lat="44.43055" lon="2.50447">
        <ele>528</ele>
        <time>2017-12-03T08:04:09.000Z</time>
      </trkpt>
      <trkpt lat="44.43055" lon="2.50452">
        <ele>528</ele>
        <time>2017-12-03T08:04:11.000Z</time>
      </trkpt>
      <trkpt lat="44.43056" lon="2.5046">
        <ele>528</ele>
        <time>2017-12-03T08:04:14.000Z</time>
      </trkpt>
      <trkpt lat="44.43058" lon="2.50463">
        <ele>528</ele>
        <time>2017-12-03T08:04:16.000Z</time>
      </trkpt>
      <trkpt lat="44.43056" lon="2.50473">
        <ele>527</ele>
        <time>2017-12-03T08:04:20.000Z</time>
      </trkpt>
      <trkpt lat="44.43055" lon="2.50486">
        <ele>527</ele>
        <time>2017-12-03T08:04:25.000Z</time>
      </trkpt>
      <trkpt lat="44.43051" lon="2.50512">
        <ele>526</ele>
        <time>2017-12-03T08:04:34.000Z</time>
      </trkpt>
      <trkpt lat="44.43048" lon="2.5053">
        <ele>526</ele>
        <time>2017-12-03T08:04:40.000Z</time>
      </trkpt>
      <trkpt lat="44.43047" lon="2.50535">
        <ele>527</ele>
        <time>2017-12-03T08:04:42.000Z</time>
      </trkpt>
      <trkpt lat="44.43049" lon="2.50561">
        <ele>526</ele>
        <time>2017-12-03T08:04:50.000Z</time>
      </trkpt>
      <trkpt lat="44.43054" lon="2.50579">
        <ele>524</ele>
        <time>2017-12-03T08:04:57.000Z</time>
      </trkpt>
      <trkpt lat="44.43058" lon="2.50583">
        <ele>521</ele>
        <time>2017-12-03T08:04:59.000Z</time>
      </trkpt>
      <trkpt lat="44.43059" lon="2.50585">
        <ele>521</ele>
        <time>2017-12-03T08:05:00.000Z</time>
      </trkpt>
      <trkpt lat="44.4306" lon="2.50587">
        <ele>521</ele>
        <time>2017-12-03T08:05:01.000Z</time>
      </trkpt>
      <trkpt lat="44.43064" lon="2.50596">
        <ele>520</ele>
        <time>2017-12-03T08:05:04.000Z</time>
      </trkpt>
      <trkpt lat="44.43065" lon="2.50616">
        <ele>521</ele>
        <time>2017-12-03T08:05:12.000Z</time>
      </trkpt>
      <trkpt lat="44.43064" lon="2.50631">
        <ele>521</ele>
        <time>2017-12-03T08:05:17.000Z</time>
      </trkpt>
      <trkpt lat="44.43054" lon="2.50647">
        <ele>521</ele>
        <time>2017-12-03T08:05:26.000Z</time>
      </trkpt>
      <trkpt lat="44.43049" lon="2.5065">
        <ele>522</ele>
        <time>2017-12-03T08:05:29.000Z</time>
      </trkpt>
      <trkpt lat="44.43047" lon="2.50651">
        <ele>523</ele>
        <time>2017-12-03T08:05:31.000Z</time>
      </trkpt>
      <trkpt lat="44.43045" lon="2.50653">
        <ele>523</ele>
        <time>2017-12-03T08:05:32.000Z</time>
      </trkpt>
      <trkpt lat="44.43032" lon="2.50669">
        <ele>523</ele>
        <time>2017-12-03T08:05:42.000Z</time>
      </trkpt>
      <trkpt lat="44.43028" lon="2.50673">
        <ele>523</ele>
        <time>2017-12-03T08:05:44.000Z</time>
      </trkpt>
      <trkpt lat="44.43024" lon="2.50686">
        <ele>523</ele>
        <time>2017-12-03T08:05:49.000Z</time>
      </trkpt>
      <trkpt lat="44.4302" lon="2.50692">
        <ele>524</ele>
        <time>2017-12-03T08:05:52.000Z</time>
      </trkpt>
      <trkpt lat="44.43019" lon="2.50693">
        <ele>524</ele>
        <time>2017-12-03T08:05:53.000Z</time>
      </trkpt>
      <trkpt lat="44.43015" lon="2.50696">
        <ele>524</ele>
        <time>2017-12-03T08:05:56.000Z</time>
      </trkpt>
      <trkpt lat="44.43011" lon="2.50701">
        <ele>524</ele>
        <time>2017-12-03T08:05:58.000Z</time>
      </trkpt>
      <trkpt lat="44.43009" lon="2.50714">
        <ele>523</ele>
        <time>2017-12-03T08:06:02.000Z</time>
      </trkpt>
      <trkpt lat="44.4301" lon="2.50719">
        <ele>523</ele>
        <time>2017-12-03T08:06:04.000Z</time>
      </trkpt>
      <trkpt lat="44.43011" lon="2.50722">
        <ele>523</ele>
        <time>2017-12-03T08:06:05.000Z</time>
      </trkpt>
      <trkpt lat="44.43013" lon="2.50727">
        <ele>523</ele>
        <time>2017-12-03T08:06:08.000Z</time>
      </trkpt>
      <trkpt lat="44.43014" lon="2.50732">
        <ele>523</ele>
        <time>2017-12-03T08:06:11.000Z</time>
      </trkpt>
      <trkpt lat="44.43016" lon="2.50739">
        <ele>524</ele>
        <time>2017-12-03T08:06:14.000Z</time>
      </trkpt>
      <trkpt lat="44.43017" lon="2.50743">
        <ele>524</ele>
        <time>2017-12-03T08:06:16.000Z</time>
      </trkpt>
      <trkpt lat="44.43017" lon="2.50748">
        <ele>524</ele>
        <time>2017-12-03T08:06:19.000Z</time>
      </trkpt>
      <trkpt lat="44.43018" lon="2.50753">
        <ele>522</ele>
        <time>2017-12-03T08:06:22.000Z</time>
      </trkpt>
      <trkpt lat="44.43018" lon="2.50754">
        <ele>522</ele>
        <time>2017-12-03T08:06:23.000Z</time>
      </trkpt>
      <trkpt lat="44.43017" lon="2.50754">
        <ele>522</ele>
        <time>2017-12-03T08:06:24.000Z</time>
      </trkpt>
      <trkpt lat="44.43017" lon="2.50757">
        <ele>522</ele>
        <time>2017-12-03T08:06:26.000Z</time>
      </trkpt>
      <trkpt lat="44.43016" lon="2.50763">
        <ele>521</ele>
        <time>2017-12-03T08:06:29.000Z</time>
      </trkpt>
      <trkpt lat="44.43014" lon="2.50765">
        <ele>521</ele>
        <time>2017-12-03T08:06:30.000Z</time>
      </trkpt>
      <trkpt lat="44.43013" lon="2.50768">
        <ele>521</ele>
        <time>2017-12-03T08:06:31.000Z</time>
      </trkpt>
      <trkpt lat="44.43012" lon="2.50773">
        <ele>520</ele>
        <time>2017-12-03T08:06:33.000Z</time>
      </trkpt>
      <trkpt lat="44.43013" lon="2.50776">
        <ele>520</ele>
        <time>2017-12-03T08:06:34.000Z</time>
      </trkpt>
      <trkpt lat="44.43014" lon="2.50784">
        <ele>519</ele>
        <time>2017-12-03T08:06:37.000Z</time>
      </trkpt>
      <trkpt lat="44.43015" lon="2.50792">
        <ele>518</ele>
        <time>2017-12-03T08:06:40.000Z</time>
      </trkpt>
      <trkpt lat="44.43011" lon="2.50812">
        <ele>519</ele>
        <time>2017-12-03T08:06:48.000Z</time>
      </trkpt>
      <trkpt lat="44.43011" lon="2.50814">
        <ele>519</ele>
        <time>2017-12-03T08:06:49.000Z</time>
      </trkpt>
      <trkpt lat="44.43011" lon="2.5082">
        <ele>520</ele>
        <time>2017-12-03T08:06:51.000Z</time>
      </trkpt>
      <trkpt lat="44.43013" lon="2.50823">
        <ele>520</ele>
        <time>2017-12-03T08:06:53.000Z</time>
      </trkpt>
      <trkpt lat="44.4302" lon="2.50828">
        <ele>519</ele>
        <time>2017-12-03T08:07:00.000Z</time>
      </trkpt>
      <trkpt lat="44.43023" lon="2.50833">
        <ele>518</ele>
        <time>2017-12-03T08:07:03.000Z</time>
      </trkpt>
      <trkpt lat="44.43025" lon="2.50838">
        <ele>514</ele>
        <time>2017-12-03T08:07:05.000Z</time>
      </trkpt>
      <trkpt lat="44.43028" lon="2.50846">
        <ele>512</ele>
        <time>2017-12-03T08:07:08.000Z</time>
      </trkpt>
      <trkpt lat="44.43033" lon="2.50859">
        <ele>510</ele>
        <time>2017-12-03T08:07:14.000Z</time>
      </trkpt>
      <trkpt lat="44.43034" lon="2.50863">
        <ele>509</ele>
        <time>2017-12-03T08:07:16.000Z</time>
      </trkpt>
      <trkpt lat="44.43034" lon="2.50866">
        <ele>509</ele>
        <time>2017-12-03T08:07:18.000Z</time>
      </trkpt>
      <trkpt lat="44.43033" lon="2.50869">
        <ele>509</ele>
        <time>2017-12-03T08:07:20.000Z</time>
      </trkpt>
      <trkpt lat="44.43032" lon="2.50874">
        <ele>509</ele>
        <time>2017-12-03T08:07:25.000Z</time>
      </trkpt>
      <trkpt lat="44.43032" lon="2.50875">
        <ele>509</ele>
        <time>2017-12-03T08:07:26.000Z</time>
      </trkpt>
      <trkpt lat="44.43031" lon="2.50876">
        <ele>509</ele>
        <time>2017-12-03T08:07:27.000Z</time>
      </trkpt>
      <trkpt lat="44.4303" lon="2.50879">
        <ele>509</ele>
        <time>2017-12-03T08:07:30.000Z</time>
      </trkpt>
      <trkpt lat="44.43028" lon="2.50882">
        <ele>509</ele>
        <time>2017-12-03T08:07:32.000Z</time>
      </trkpt>
      <trkpt lat="44.43027" lon="2.50884">
        <ele>509</ele>
        <time>2017-12-03T08:07:33.000Z</time>
      </trkpt>
      <trkpt lat="44.43027" lon="2.50888">
        <ele>509</ele>
        <time>2017-12-03T08:07:35.000Z</time>
      </trkpt>
      <trkpt lat="44.43027" lon="2.5089">
        <ele>509</ele>
        <time>2017-12-03T08:07:36.000Z</time>
      </trkpt>
      <trkpt lat="44.43026" lon="2.50893">
        <ele>509</ele>
        <time>2017-12-03T08:07:37.000Z</time>
      </trkpt>
      <trkpt lat="44.43025" lon="2.50899">
        <ele>509</ele>
        <time>2017-12-03T08:07:39.000Z</time>
      </trkpt>
      <trkpt lat="44.43025" lon="2.50906">
        <ele>509</ele>
        <time>2017-12-03T08:07:41.000Z</time>
      </trkpt>
      <trkpt lat="44.43026" lon="2.50915">
        <ele>508</ele>
        <time>2017-12-03T08:07:44.000Z</time>
      </trkpt>
      <trkpt lat="44.43028" lon="2.50923">
        <ele>501</ele>
        <time>2017-12-03T08:07:47.000Z</time>
      </trkpt>
      <trkpt lat="44.43029" lon="2.50929">
        <ele>500</ele>
        <time>2017-12-03T08:07:50.000Z</time>
      </trkpt>
      <trkpt lat="44.4303" lon="2.50932">
        <ele>499</ele>
        <time>2017-12-03T08:07:52.000Z</time>
      </trkpt>
      <trkpt lat="44.43031" lon="2.50932">
        <ele>499</ele>
        <time>2017-12-03T08:07:53.000Z</time>
      </trkpt>
      <trkpt lat="44.43032" lon="2.50932">
        <ele>499</ele>
        <time>2017-12-03T08:07:54.000Z</time>
      </trkpt>
      <trkpt lat="44.43032" lon="2.50933">
        <ele>499</ele>
        <time>2017-12-03T08:07:57.000Z</time>
      </trkpt>
      <trkpt lat="44.43032" lon="2.50941">
        <ele>498</ele>
        <time>2017-12-03T08:08:02.000Z</time>
      </trkpt>
      <trkpt lat="44.43033" lon="2.50946">
        <ele>497</ele>
        <time>2017-12-03T08:08:04.000Z</time>
      </trkpt>
      <trkpt lat="44.43032" lon="2.50954">
        <ele>497</ele>
        <time>2017-12-03T08:08:07.000Z</time>
      </trkpt>
      <trkpt lat="44.43032" lon="2.50963">
        <ele>496</ele>
        <time>2017-12-03T08:08:11.000Z</time>
      </trkpt>
      <trkpt lat="44.43034" lon="2.50967">
        <ele>495</ele>
        <time>2017-12-03T08:08:14.000Z</time>
      </trkpt>
      <trkpt lat="44.43036" lon="2.50971">
        <ele>495</ele>
        <time>2017-12-03T08:08:17.000Z</time>
      </trkpt>
      <trkpt lat="44.43037" lon="2.50972">
        <ele>495</ele>
        <time>2017-12-03T08:08:18.000Z</time>
      </trkpt>
      <trkpt lat="44.43039" lon="2.50976">
        <ele>494</ele>
        <time>2017-12-03T08:08:20.000Z</time>
      </trkpt>
      <trkpt lat="44.43039" lon="2.5098">
        <ele>494</ele>
        <time>2017-12-03T08:08:22.000Z</time>
      </trkpt>
      <trkpt lat="44.43039" lon="2.50987">
        <ele>493</ele>
        <time>2017-12-03T08:08:25.000Z</time>
      </trkpt>
      <trkpt lat="44.43041" lon="2.50993">
        <ele>493</ele>
        <time>2017-12-03T08:08:28.000Z</time>
      </trkpt>
      <trkpt lat="44.43042" lon="2.50997">
        <ele>492</ele>
        <time>2017-12-03T08:08:30.000Z</time>
      </trkpt>
      <trkpt lat="44.43043" lon="2.50999">
        <ele>492</ele>
        <time>2017-12-03T08:08:31.000Z</time>
      </trkpt>
      <trkpt lat="44.43044" lon="2.51005">
        <ele>483</ele>
        <time>2017-12-03T08:08:34.000Z</time>
      </trkpt>
      <trkpt lat="44.43045" lon="2.5101">
        <ele>483</ele>
        <time>2017-12-03T08:08:37.000Z</time>
      </trkpt>
      <trkpt lat="44.43046" lon="2.51012">
        <ele>482</ele>
        <time>2017-12-03T08:08:38.000Z</time>
      </trkpt>
      <trkpt lat="44.43047" lon="2.51014">
        <ele>482</ele>
        <time>2017-12-03T08:08:40.000Z</time>
      </trkpt>
      <trkpt lat="44.43049" lon="2.51018">
        <ele>481</ele>
        <time>2017-12-03T08:08:43.000Z</time>
      </trkpt>
      <trkpt lat="44.43049" lon="2.51022">
        <ele>481</ele>
        <time>2017-12-03T08:08:45.000Z</time>
      </trkpt>
      <trkpt lat="44.43049" lon="2.51024">
        <ele>481</ele>
        <time>2017-12-03T08:08:46.000Z</time>
      </trkpt>
      <trkpt lat="44.43046" lon="2.5103">
        <ele>481</ele>
        <time>2017-12-03T08:08:49.000Z</time>
      </trkpt>
      <trkpt lat="44.43044" lon="2.51038">
        <ele>481</ele>
        <time>2017-12-03T08:08:52.000Z</time>
      </trkpt>
      <trkpt lat="44.43042" lon="2.51043">
        <ele>481</ele>
        <time>2017-12-03T08:08:55.000Z</time>
      </trkpt>
      <trkpt lat="44.43039" lon="2.51052">
        <ele>481</ele>
        <time>2017-12-03T08:09:00.000Z</time>
      </trkpt>
      <trkpt lat="44.43038" lon="2.51058">
        <ele>481</ele>
        <time>2017-12-03T08:09:05.000Z</time>
      </trkpt>
      <trkpt lat="44.43036" lon="2.51064">
        <ele>481</ele>
        <time>2017-12-03T08:09:08.000Z</time>
      </trkpt>
      <trkpt lat="44.43035" lon="2.51067">
        <ele>481</ele>
        <time>2017-12-03T08:09:10.000Z</time>
      </trkpt>
      <trkpt lat="44.43035" lon="2.51067">
        <ele>481</ele>
        <time>2017-12-03T08:09:11.000Z</time>
      </trkpt>
      <trkpt lat="44.43037" lon="2.51073">
        <ele>480</ele>
        <time>2017-12-03T08:09:15.000Z</time>
      </trkpt>
      <trkpt lat="44.43038" lon="2.51077">
        <ele>480</ele>
        <time>2017-12-03T08:09:18.000Z</time>
      </trkpt>
      <trkpt lat="44.43039" lon="2.51083">
        <ele>479</ele>
        <time>2017-12-03T08:09:21.000Z</time>
      </trkpt>
      <trkpt lat="44.43038" lon="2.51089">
        <ele>472</ele>
        <time>2017-12-03T08:09:24.000Z</time>
      </trkpt>
      <trkpt lat="44.43037" lon="2.51093">
        <ele>472</ele>
        <time>2017-12-03T08:09:26.000Z</time>
      </trkpt>
      <trkpt lat="44.43037" lon="2.51097">
        <ele>472</ele>
        <time>2017-12-03T08:09:28.000Z</time>
      </trkpt>
      <trkpt lat="44.43039" lon="2.51105">
        <ele>471</ele>
        <time>2017-12-03T08:09:32.000Z</time>
      </trkpt>
      <trkpt lat="44.43043" lon="2.51109">
        <ele>470</ele>
        <time>2017-12-03T08:09:34.000Z</time>
      </trkpt>
      <trkpt lat="44.43048" lon="2.51112">
        <ele>470</ele>
        <time>2017-12-03T08:09:36.000Z</time>
      </trkpt>
      <trkpt lat="44.43055" lon="2.51117">
        <ele>468</ele>
        <time>2017-12-03T08:09:40.000Z</time>
      </trkpt>
      <trkpt lat="44.43059" lon="2.51118">
        <ele>468</ele>
        <time>2017-12-03T08:09:43.000Z</time>
      </trkpt>
      <trkpt lat="44.43054" lon="2.51123">
        <ele>468</ele>
        <time>2017-12-03T08:09:51.000Z</time>
      </trkpt>
      <trkpt lat="44.4305" lon="2.51123">
        <ele>469</ele>
        <time>2017-12-03T08:09:56.000Z</time>
      </trkpt>
      <trkpt lat="44.43044" lon="2.51125">
        <ele>469</ele>
        <time>2017-12-03T08:10:02.000Z</time>
      </trkpt>
      <trkpt lat="44.4304" lon="2.51126">
        <ele>470</ele>
        <time>2017-12-03T08:10:04.000Z</time>
      </trkpt>
      <trkpt lat="44.43035" lon="2.51128">
        <ele>470</ele>
        <time>2017-12-03T08:10:07.000Z</time>
      </trkpt>
      <trkpt lat="44.43022" lon="2.51135">
        <ele>471</ele>
        <time>2017-12-03T08:10:14.000Z</time>
      </trkpt>
      <trkpt lat="44.43013" lon="2.51155">
        <ele>471</ele>
        <time>2017-12-03T08:10:23.000Z</time>
      </trkpt>
      <trkpt lat="44.43013" lon="2.51158">
        <ele>472</ele>
        <time>2017-12-03T08:10:25.000Z</time>
      </trkpt>
      <trkpt lat="44.43012" lon="2.51158">
        <ele>472</ele>
        <time>2017-12-03T08:10:26.000Z</time>
      </trkpt>
      <trkpt lat="44.43008" lon="2.5116">
        <ele>472</ele>
        <time>2017-12-03T08:10:29.000Z</time>
      </trkpt>
      <trkpt lat="44.43005" lon="2.51161">
        <ele>472</ele>
        <time>2017-12-03T08:10:31.000Z</time>
      </trkpt>
      <trkpt lat="44.43003" lon="2.51161">
        <ele>472</ele>
        <time>2017-12-03T08:10:33.000Z</time>
      </trkpt>
      <trkpt lat="44.43" lon="2.51162">
        <ele>478</ele>
        <time>2017-12-03T08:10:35.000Z</time>
      </trkpt>
      <trkpt lat="44.42985" lon="2.51177">
        <ele>481</ele>
        <time>2017-12-03T08:10:43.000Z</time>
      </trkpt>
      <trkpt lat="44.42984" lon="2.51182">
        <ele>482</ele>
        <time>2017-12-03T08:10:45.000Z</time>
      </trkpt>
      <trkpt lat="44.42987" lon="2.51197">
        <ele>482</ele>
        <time>2017-12-03T08:10:50.000Z</time>
      </trkpt>
      <trkpt lat="44.43" lon="2.51215">
        <ele>467</ele>
        <time>2017-12-03T08:10:59.000Z</time>
      </trkpt>
      <trkpt lat="44.43004" lon="2.51229">
        <ele>468</ele>
        <time>2017-12-03T08:11:04.000Z</time>
      </trkpt>
      <trkpt lat="44.43" lon="2.51256">
        <ele>473</ele>
        <time>2017-12-03T08:11:13.000Z</time>
      </trkpt>
      <trkpt lat="44.42989" lon="2.51267">
        <ele>475</ele>
        <time>2017-12-03T08:11:19.000Z</time>
      </trkpt>
      <trkpt lat="44.42973" lon="2.51282">
        <ele>477</ele>
        <time>2017-12-03T08:11:27.000Z</time>
      </trkpt>
      <trkpt lat="44.42971" lon="2.51286">
        <ele>477</ele>
        <time>2017-12-03T08:11:29.000Z</time>
      </trkpt>
      <trkpt lat="44.42955" lon="2.51301">
        <ele>478</ele>
        <time>2017-12-03T08:11:37.000Z</time>
      </trkpt>
      <trkpt lat="44.42952" lon="2.51329">
        <ele>478</ele>
        <time>2017-12-03T08:11:46.000Z</time>
      </trkpt>
      <trkpt lat="44.4295" lon="2.51354">
        <ele>474</ele>
        <time>2017-12-03T08:11:54.000Z</time>
      </trkpt>
      <trkpt lat="44.42943" lon="2.5138">
        <ele>474</ele>
        <time>2017-12-03T08:12:02.000Z</time>
      </trkpt>
      <trkpt lat="44.42933" lon="2.514">
        <ele>475</ele>
        <time>2017-12-03T08:12:11.000Z</time>
      </trkpt>
      <trkpt lat="44.42928" lon="2.51405">
        <ele>476</ele>
        <time>2017-12-03T08:12:15.000Z</time>
      </trkpt>
      <trkpt lat="44.42922" lon="2.51414">
        <ele>477</ele>
        <time>2017-12-03T08:12:20.000Z</time>
      </trkpt>
      <trkpt lat="44.4292" lon="2.51427">
        <ele>474</ele>
        <time>2017-12-03T08:12:24.000Z</time>
      </trkpt>
      <trkpt lat="44.42919" lon="2.5143">
        <ele>474</ele>
        <time>2017-12-03T08:12:25.000Z</time>
      </trkpt>
      <trkpt lat="44.42916" lon="2.51457">
        <ele>487</ele>
        <time>2017-12-03T08:12:34.000Z</time>
      </trkpt>
      <trkpt lat="44.42916" lon="2.51483">
        <ele>483</ele>
        <time>2017-12-03T08:12:41.000Z</time>
      </trkpt>
      <trkpt lat="44.42915" lon="2.51493">
        <ele>478</ele>
        <time>2017-12-03T08:12:44.000Z</time>
      </trkpt>
      <trkpt lat="44.42905" lon="2.51516">
        <ele>483</ele>
        <time>2017-12-03T08:12:54.000Z</time>
      </trkpt>
      <trkpt lat="44.42902" lon="2.51521">
        <ele>485</ele>
        <time>2017-12-03T08:12:57.000Z</time>
      </trkpt>
      <trkpt lat="44.42901" lon="2.51522">
        <ele>485</ele>
        <time>2017-12-03T08:12:58.000Z</time>
      </trkpt>
      <trkpt lat="44.429" lon="2.51524">
        <ele>486</ele>
        <time>2017-12-03T08:13:00.000Z</time>
      </trkpt>
      <trkpt lat="44.42898" lon="2.51527">
        <ele>487</ele>
        <time>2017-12-03T08:13:05.000Z</time>
      </trkpt>
      <trkpt lat="44.42897" lon="2.51528">
        <ele>487</ele>
        <time>2017-12-03T08:13:06.000Z</time>
      </trkpt>
      <trkpt lat="44.42897" lon="2.51529">
        <ele>487</ele>
        <time>2017-12-03T08:13:07.000Z</time>
      </trkpt>
      <trkpt lat="44.42893" lon="2.51535">
        <ele>488</ele>
        <time>2017-12-03T08:13:12.000Z</time>
      </trkpt>
      <trkpt lat="44.42894" lon="2.51535">
        <ele>488</ele>
        <time>2017-12-03T08:13:14.000Z</time>
      </trkpt>
      <trkpt lat="44.42894" lon="2.51536">
        <ele>488</ele>
        <time>2017-12-03T08:13:16.000Z</time>
      </trkpt>
      <trkpt lat="44.4289" lon="2.51542">
        <ele>489</ele>
        <time>2017-12-03T08:13:32.000Z</time>
      </trkpt>
      <trkpt lat="44.42887" lon="2.5155">
        <ele>489</ele>
        <time>2017-12-03T08:13:38.000Z</time>
      </trkpt>
      <trkpt lat="44.42883" lon="2.51556">
        <ele>490</ele>
        <time>2017-12-03T08:13:43.000Z</time>
      </trkpt>
      <trkpt lat="44.4288" lon="2.51561">
        <ele>491</ele>
        <time>2017-12-03T08:13:48.000Z</time>
      </trkpt>
      <trkpt lat="44.42879" lon="2.51561">
        <ele>491</ele>
        <time>2017-12-03T08:13:49.000Z</time>
      </trkpt>
      <trkpt lat="44.42879" lon="2.51561">
        <ele>491</ele>
        <time>2017-12-03T08:13:50.000Z</time>
      </trkpt>
      <trkpt lat="44.42879" lon="2.51561">
        <ele>491</ele>
        <time>2017-12-03T08:13:55.000Z</time>
      </trkpt>
      <trkpt lat="44.4286" lon="2.51572">
        <ele>498</ele>
        <time>2017-12-03T08:14:48.000Z</time>
      </trkpt>
      <trkpt lat="44.42859" lon="2.51575">
        <ele>499</ele>
        <time>2017-12-03T08:14:50.000Z</time>
      </trkpt>
      <trkpt lat="44.42857" lon="2.51579">
        <ele>500</ele>
        <time>2017-12-03T08:14:53.000Z</time>
      </trkpt>
      <trkpt lat="44.42853" lon="2.51584">
        <ele>501</ele>
        <time>2017-12-03T08:14:56.000Z</time>
      </trkpt>
      <trkpt lat="44.42852" lon="2.51585">
        <ele>501</ele>
        <time>2017-12-03T08:14:57.000Z</time>
      </trkpt>
      <trkpt lat="44.4285" lon="2.51591">
        <ele>502</ele>
        <time>2017-12-03T08:15:00.000Z</time>
      </trkpt>
      <trkpt lat="44.42849" lon="2.51592">
        <ele>502</ele>
        <time>2017-12-03T08:15:01.000Z</time>
      </trkpt>
      <trkpt lat="44.42844" lon="2.51599">
        <ele>502</ele>
        <time>2017-12-03T08:15:05.000Z</time>
      </trkpt>
      <trkpt lat="44.42843" lon="2.51601">
        <ele>502</ele>
        <time>2017-12-03T08:15:06.000Z</time>
      </trkpt>
      <trkpt lat="44.42841" lon="2.51607">
        <ele>500</ele>
        <time>2017-12-03T08:15:09.000Z</time>
      </trkpt>
      <trkpt lat="44.42838" lon="2.51615">
        <ele>499</ele>
        <time>2017-12-03T08:15:13.000Z</time>
      </trkpt>
      <trkpt lat="44.42838" lon="2.51623">
        <ele>499</ele>
        <time>2017-12-03T08:15:17.000Z</time>
      </trkpt>
      <trkpt lat="44.42838" lon="2.51629">
        <ele>499</ele>
        <time>2017-12-03T08:15:20.000Z</time>
      </trkpt>
      <trkpt lat="44.42838" lon="2.51631">
        <ele>499</ele>
        <time>2017-12-03T08:15:21.000Z</time>
      </trkpt>
      <trkpt lat="44.42838" lon="2.51633">
        <ele>499</ele>
        <time>2017-12-03T08:15:22.000Z</time>
      </trkpt>
      <trkpt lat="44.42837" lon="2.51638">
        <ele>499</ele>
        <time>2017-12-03T08:15:25.000Z</time>
      </trkpt>
      <trkpt lat="44.42835" lon="2.51642">
        <ele>500</ele>
        <time>2017-12-03T08:15:27.000Z</time>
      </trkpt>
      <trkpt lat="44.42834" lon="2.51644">
        <ele>501</ele>
        <time>2017-12-03T08:15:28.000Z</time>
      </trkpt>
      <trkpt lat="44.42834" lon="2.51649">
        <ele>502</ele>
        <time>2017-12-03T08:15:31.000Z</time>
      </trkpt>
      <trkpt lat="44.42833" lon="2.51653">
        <ele>518</ele>
        <time>2017-12-03T08:15:33.000Z</time>
      </trkpt>
      <trkpt lat="44.42832" lon="2.51656">
        <ele>517</ele>
        <time>2017-12-03T08:15:35.000Z</time>
      </trkpt>
      <trkpt lat="44.42832" lon="2.51658">
        <ele>516</ele>
        <time>2017-12-03T08:15:36.000Z</time>
      </trkpt>
      <trkpt lat="44.42829" lon="2.51664">
        <ele>515</ele>
        <time>2017-12-03T08:15:40.000Z</time>
      </trkpt>
      <trkpt lat="44.42827" lon="2.5167">
        <ele>514</ele>
        <time>2017-12-03T08:15:44.000Z</time>
      </trkpt>
      <trkpt lat="44.42826" lon="2.51672">
        <ele>515</ele>
        <time>2017-12-03T08:15:45.000Z</time>
      </trkpt>
      <trkpt lat="44.42825" lon="2.51677">
        <ele>516</ele>
        <time>2017-12-03T08:15:48.000Z</time>
      </trkpt>
      <trkpt lat="44.42822" lon="2.51685">
        <ele>517</ele>
        <time>2017-12-03T08:15:53.000Z</time>
      </trkpt>
      <trkpt lat="44.42818" lon="2.51691">
        <ele>518</ele>
        <time>2017-12-03T08:15:57.000Z</time>
      </trkpt>
      <trkpt lat="44.42814" lon="2.51697">
        <ele>518</ele>
        <time>2017-12-03T08:16:00.000Z</time>
      </trkpt>
      <trkpt lat="44.42813" lon="2.51703">
        <ele>518</ele>
        <time>2017-12-03T08:16:04.000Z</time>
      </trkpt>
      <trkpt lat="44.42812" lon="2.51705">
        <ele>518</ele>
        <time>2017-12-03T08:16:06.000Z</time>
      </trkpt>
      <trkpt lat="44.42811" lon="2.51707">
        <ele>518</ele>
        <time>2017-12-03T08:16:08.000Z</time>
      </trkpt>
      <trkpt lat="44.42808" lon="2.51711">
        <ele>518</ele>
        <time>2017-12-03T08:16:11.000Z</time>
      </trkpt>
      <trkpt lat="44.42807" lon="2.51714">
        <ele>518</ele>
        <time>2017-12-03T08:16:13.000Z</time>
      </trkpt>
      <trkpt lat="44.42805" lon="2.51717">
        <ele>518</ele>
        <time>2017-12-03T08:16:15.000Z</time>
      </trkpt>
      <trkpt lat="44.42803" lon="2.51723">
        <ele>518</ele>
        <time>2017-12-03T08:16:19.000Z</time>
      </trkpt>
      <trkpt lat="44.42801" lon="2.51728">
        <ele>518</ele>
        <time>2017-12-03T08:16:22.000Z</time>
      </trkpt>
      <trkpt lat="44.428" lon="2.5173">
        <ele>518</ele>
        <time>2017-12-03T08:16:24.000Z</time>
      </trkpt>
      <trkpt lat="44.428" lon="2.51733">
        <ele>518</ele>
        <time>2017-12-03T08:16:26.000Z</time>
      </trkpt>
      <trkpt lat="44.42797" lon="2.51737">
        <ele>519</ele>
        <time>2017-12-03T08:16:30.000Z</time>
      </trkpt>
      <trkpt lat="44.42793" lon="2.51741">
        <ele>520</ele>
        <time>2017-12-03T08:16:34.000Z</time>
      </trkpt>
      <trkpt lat="44.4279" lon="2.51746">
        <ele>521</ele>
        <time>2017-12-03T08:16:38.000Z</time>
      </trkpt>
      <trkpt lat="44.42786" lon="2.5175">
        <ele>522</ele>
        <time>2017-12-03T08:16:42.000Z</time>
      </trkpt>
      <trkpt lat="44.42783" lon="2.51753">
        <ele>517</ele>
        <time>2017-12-03T08:16:45.000Z</time>
      </trkpt>
      <trkpt lat="44.42781" lon="2.51757">
        <ele>517</ele>
        <time>2017-12-03T08:16:48.000Z</time>
      </trkpt>
      <trkpt lat="44.42777" lon="2.51764">
        <ele>518</ele>
        <time>2017-12-03T08:16:53.000Z</time>
      </trkpt>
      <trkpt lat="44.42774" lon="2.51769">
        <ele>518</ele>
        <time>2017-12-03T08:16:57.000Z</time>
      </trkpt>
      <trkpt lat="44.42773" lon="2.51769">
        <ele>518</ele>
        <time>2017-12-03T08:16:58.000Z</time>
      </trkpt>
      <trkpt lat="44.4277" lon="2.51772">
        <ele>519</ele>
        <time>2017-12-03T08:17:01.000Z</time>
      </trkpt>
      <trkpt lat="44.42768" lon="2.51776">
        <ele>519</ele>
        <time>2017-12-03T08:17:05.000Z</time>
      </trkpt>
      <trkpt lat="44.42763" lon="2.51781">
        <ele>519</ele>
        <time>2017-12-03T08:17:10.000Z</time>
      </trkpt>
      <trkpt lat="44.42758" lon="2.51786">
        <ele>519</ele>
        <time>2017-12-03T08:17:14.000Z</time>
      </trkpt>
      <trkpt lat="44.42754" lon="2.51791">
        <ele>519</ele>
        <time>2017-12-03T08:17:18.000Z</time>
      </trkpt>
      <trkpt lat="44.4275" lon="2.51798">
        <ele>534</ele>
        <time>2017-12-03T08:17:23.000Z</time>
      </trkpt>
      <trkpt lat="44.42747" lon="2.51806">
        <ele>533</ele>
        <time>2017-12-03T08:17:28.000Z</time>
      </trkpt>
      <trkpt lat="44.42746" lon="2.51808">
        <ele>533</ele>
        <time>2017-12-03T08:17:30.000Z</time>
      </trkpt>
      <trkpt lat="44.42745" lon="2.51813">
        <ele>532</ele>
        <time>2017-12-03T08:17:33.000Z</time>
      </trkpt>
      <trkpt lat="44.42745" lon="2.51819">
        <ele>531</ele>
        <time>2017-12-03T08:17:37.000Z</time>
      </trkpt>
      <trkpt lat="44.42745" lon="2.51822">
        <ele>531</ele>
        <time>2017-12-03T08:17:40.000Z</time>
      </trkpt>
      <trkpt lat="44.42745" lon="2.51823">
        <ele>530</ele>
        <time>2017-12-03T08:17:41.000Z</time>
      </trkpt>
      <trkpt lat="44.42748" lon="2.51825">
        <ele>530</ele>
        <time>2017-12-03T08:17:45.000Z</time>
      </trkpt>
      <trkpt lat="44.42749" lon="2.51827">
        <ele>529</ele>
        <time>2017-12-03T08:17:47.000Z</time>
      </trkpt>
      <trkpt lat="44.4275" lon="2.51829">
        <ele>525</ele>
        <time>2017-12-03T08:17:49.000Z</time>
      </trkpt>
      <trkpt lat="44.42752" lon="2.51831">
        <ele>525</ele>
        <time>2017-12-03T08:17:51.000Z</time>
      </trkpt>
      <trkpt lat="44.42754" lon="2.51832">
        <ele>525</ele>
        <time>2017-12-03T08:17:53.000Z</time>
      </trkpt>
      <trkpt lat="44.42756" lon="2.51834">
        <ele>522</ele>
        <time>2017-12-03T08:18:08.000Z</time>
      </trkpt>
      <trkpt lat="44.42743" lon="2.51829">
        <ele>530</ele>
        <time>2017-12-03T08:18:58.000Z</time>
      </trkpt>
      <trkpt lat="44.42738" lon="2.51829">
        <ele>531</ele>
        <time>2017-12-03T08:19:02.000Z</time>
      </trkpt>
      <trkpt lat="44.42736" lon="2.5183">
        <ele>531</ele>
        <time>2017-12-03T08:19:04.000Z</time>
      </trkpt>
      <trkpt lat="44.42736" lon="2.5183">
        <ele>531</ele>
        <time>2017-12-03T08:19:06.000Z</time>
      </trkpt>
      <trkpt lat="44.42732" lon="2.51835">
        <ele>530</ele>
        <time>2017-12-03T08:19:12.000Z</time>
      </trkpt>
      <trkpt lat="44.42729" lon="2.51834">
        <ele>530</ele>
        <time>2017-12-03T08:19:15.000Z</time>
      </trkpt>
      <trkpt lat="44.42727" lon="2.51836">
        <ele>530</ele>
        <time>2017-12-03T08:19:18.000Z</time>
      </trkpt>
      <trkpt lat="44.42709" lon="2.51844">
        <ele>532</ele>
        <time>2017-12-03T08:19:34.000Z</time>
      </trkpt>
      <trkpt lat="44.42703" lon="2.51852">
        <ele>533</ele>
        <time>2017-12-03T08:19:39.000Z</time>
      </trkpt>
      <trkpt lat="44.42691" lon="2.51871">
        <ele>534</ele>
        <time>2017-12-03T08:19:53.000Z</time>
      </trkpt>
      <trkpt lat="44.4269" lon="2.51873">
        <ele>534</ele>
        <time>2017-12-03T08:19:55.000Z</time>
      </trkpt>
      <trkpt lat="44.42689" lon="2.51875">
        <ele>534</ele>
        <time>2017-12-03T08:19:56.000Z</time>
      </trkpt>
      <trkpt lat="44.42688" lon="2.51876">
        <ele>534</ele>
        <time>2017-12-03T08:19:57.000Z</time>
      </trkpt>
      <trkpt lat="44.42686" lon="2.51879">
        <ele>534</ele>
        <time>2017-12-03T08:19:59.000Z</time>
      </trkpt>
      <trkpt lat="44.42679" lon="2.519">
        <ele>535</ele>
        <time>2017-12-03T08:20:11.000Z</time>
      </trkpt>
      <trkpt lat="44.42666" lon="2.51915">
        <ele>540</ele>
        <time>2017-12-03T08:20:25.000Z</time>
      </trkpt>
      <trkpt lat="44.42662" lon="2.51914">
        <ele>541</ele>
        <time>2017-12-03T08:20:28.000Z</time>
      </trkpt>
      <trkpt lat="44.42657" lon="2.51913">
        <ele>541</ele>
        <time>2017-12-03T08:20:30.000Z</time>
      </trkpt>
      <trkpt lat="44.42641" lon="2.5192">
        <ele>540</ele>
        <time>2017-12-03T08:20:38.000Z</time>
      </trkpt>
      <trkpt lat="44.42627" lon="2.51926">
        <ele>541</ele>
        <time>2017-12-03T08:20:46.000Z</time>
      </trkpt>
      <trkpt lat="44.42608" lon="2.51928">
        <ele>542</ele>
        <time>2017-12-03T08:20:55.000Z</time>
      </trkpt>
      <trkpt lat="44.42589" lon="2.51933">
        <ele>542</ele>
        <time>2017-12-03T08:21:04.000Z</time>
      </trkpt>
      <trkpt lat="44.42588" lon="2.51934">
        <ele>542</ele>
        <time>2017-12-03T08:21:05.000Z</time>
      </trkpt>
      <trkpt lat="44.42578" lon="2.51958">
        <ele>544</ele>
        <time>2017-12-03T08:21:13.000Z</time>
      </trkpt>
      <trkpt lat="44.42573" lon="2.5198">
        <ele>544</ele>
        <time>2017-12-03T08:21:20.000Z</time>
      </trkpt>
      <trkpt lat="44.42555" lon="2.51982">
        <ele>544</ele>
        <time>2017-12-03T08:21:29.000Z</time>
      </trkpt>
      <trkpt lat="44.42544" lon="2.51983">
        <ele>544</ele>
        <time>2017-12-03T08:21:34.000Z</time>
      </trkpt>
      <trkpt lat="44.42538" lon="2.51983">
        <ele>544</ele>
        <time>2017-12-03T08:21:36.000Z</time>
      </trkpt>
      <trkpt lat="44.42533" lon="2.51989">
        <ele>544</ele>
        <time>2017-12-03T08:21:39.000Z</time>
      </trkpt>
      <trkpt lat="44.42528" lon="2.51993">
        <ele>544</ele>
        <time>2017-12-03T08:21:42.000Z</time>
      </trkpt>
      <trkpt lat="44.42529" lon="2.51997">
        <ele>544</ele>
        <time>2017-12-03T08:21:44.000Z</time>
      </trkpt>
      <trkpt lat="44.42532" lon="2.52006">
        <ele>544</ele>
        <time>2017-12-03T08:21:49.000Z</time>
      </trkpt>
      <trkpt lat="44.42532" lon="2.52007">
        <ele>544</ele>
        <time>2017-12-03T08:21:50.000Z</time>
      </trkpt>
      <trkpt lat="44.42536" lon="2.52032">
        <ele>544</ele>
        <time>2017-12-03T08:22:01.000Z</time>
      </trkpt>
      <trkpt lat="44.4253" lon="2.52057">
        <ele>544</ele>
        <time>2017-12-03T08:22:10.000Z</time>
      </trkpt>
      <trkpt lat="44.42527" lon="2.52082">
        <ele>544</ele>
        <time>2017-12-03T08:22:18.000Z</time>
      </trkpt>
      <trkpt lat="44.42521" lon="2.52106">
        <ele>544</ele>
        <time>2017-12-03T08:22:28.000Z</time>
      </trkpt>
      <trkpt lat="44.42516" lon="2.52131">
        <ele>544</ele>
        <time>2017-12-03T08:22:37.000Z</time>
      </trkpt>
      <trkpt lat="44.42517" lon="2.52136">
        <ele>544</ele>
        <time>2017-12-03T08:22:39.000Z</time>
      </trkpt>
      <trkpt lat="44.42517" lon="2.52138">
        <ele>544</ele>
        <time>2017-12-03T08:22:40.000Z</time>
      </trkpt>
      <trkpt lat="44.42518" lon="2.52141">
        <ele>544</ele>
        <time>2017-12-03T08:22:41.000Z</time>
      </trkpt>
      <trkpt lat="44.42513" lon="2.52166">
        <ele>544</ele>
        <time>2017-12-03T08:22:50.000Z</time>
      </trkpt>
      <trkpt lat="44.42512" lon="2.52169">
        <ele>544</ele>
        <time>2017-12-03T08:22:51.000Z</time>
      </trkpt>
      <trkpt lat="44.42504" lon="2.52194">
        <ele>544</ele>
        <time>2017-12-03T08:23:00.000Z</time>
      </trkpt>
      <trkpt lat="44.42503" lon="2.522">
        <ele>544</ele>
        <time>2017-12-03T08:23:02.000Z</time>
      </trkpt>
      <trkpt lat="44.42497" lon="2.52227">
        <ele>543</ele>
        <time>2017-12-03T08:23:11.000Z</time>
      </trkpt>
      <trkpt lat="44.42495" lon="2.52234">
        <ele>544</ele>
        <time>2017-12-03T08:23:13.000Z</time>
      </trkpt>
      <trkpt lat="44.42489" lon="2.52259">
        <ele>544</ele>
        <time>2017-12-03T08:23:22.000Z</time>
      </trkpt>
      <trkpt lat="44.42482" lon="2.52284">
        <ele>543</ele>
        <time>2017-12-03T08:23:31.000Z</time>
      </trkpt>
      <trkpt lat="44.42478" lon="2.5231">
        <ele>543</ele>
        <time>2017-12-03T08:23:39.000Z</time>
      </trkpt>
      <trkpt lat="44.42477" lon="2.52313">
        <ele>543</ele>
        <time>2017-12-03T08:23:40.000Z</time>
      </trkpt>
      <trkpt lat="44.42476" lon="2.52316">
        <ele>543</ele>
        <time>2017-12-03T08:23:41.000Z</time>
      </trkpt>
      <trkpt lat="44.42469" lon="2.52342">
        <ele>544</ele>
        <time>2017-12-03T08:23:50.000Z</time>
      </trkpt>
      <trkpt lat="44.42462" lon="2.52367">
        <ele>543</ele>
        <time>2017-12-03T08:23:58.000Z</time>
      </trkpt>
      <trkpt lat="44.4246" lon="2.52376">
        <ele>543</ele>
        <time>2017-12-03T08:24:01.000Z</time>
      </trkpt>
      <trkpt lat="44.42455" lon="2.524">
        <ele>543</ele>
        <time>2017-12-03T08:24:10.000Z</time>
      </trkpt>
      <trkpt lat="44.42451" lon="2.52415">
        <ele>543</ele>
        <time>2017-12-03T08:24:16.000Z</time>
      </trkpt>
      <trkpt lat="44.42445" lon="2.52437">
        <ele>544</ele>
        <time>2017-12-03T08:24:24.000Z</time>
      </trkpt>
      <trkpt lat="44.4244" lon="2.52439">
        <ele>543</ele>
        <time>2017-12-03T08:24:27.000Z</time>
      </trkpt>
      <trkpt lat="44.42439" lon="2.52441">
        <ele>543</ele>
        <time>2017-12-03T08:24:28.000Z</time>
      </trkpt>
      <trkpt lat="44.42438" lon="2.52444">
        <ele>543</ele>
        <time>2017-12-03T08:24:29.000Z</time>
      </trkpt>
      <trkpt lat="44.42437" lon="2.52454">
        <ele>544</ele>
        <time>2017-12-03T08:24:32.000Z</time>
      </trkpt>
      <trkpt lat="44.4243" lon="2.52475">
        <ele>543</ele>
        <time>2017-12-03T08:24:39.000Z</time>
      </trkpt>
      <trkpt lat="44.42426" lon="2.52484">
        <ele>542</ele>
        <time>2017-12-03T08:24:42.000Z</time>
      </trkpt>
      <trkpt lat="44.42422" lon="2.52494">
        <ele>541</ele>
        <time>2017-12-03T08:24:45.000Z</time>
      </trkpt>
      <trkpt lat="44.42419" lon="2.52505">
        <ele>540</ele>
        <time>2017-12-03T08:24:48.000Z</time>
      </trkpt>
      <trkpt lat="44.42417" lon="2.52516">
        <ele>542</ele>
        <time>2017-12-03T08:24:51.000Z</time>
      </trkpt>
      <trkpt lat="44.42416" lon="2.52522">
        <ele>535</ele>
        <time>2017-12-03T08:24:53.000Z</time>
      </trkpt>
      <trkpt lat="44.42416" lon="2.52548">
        <ele>535</ele>
        <time>2017-12-03T08:25:01.000Z</time>
      </trkpt>
      <trkpt lat="44.42411" lon="2.52572">
        <ele>538</ele>
        <time>2017-12-03T08:25:09.000Z</time>
      </trkpt>
      <trkpt lat="44.42411" lon="2.52596">
        <ele>538</ele>
        <time>2017-12-03T08:25:17.000Z</time>
      </trkpt>
      <trkpt lat="44.42403" lon="2.52619">
        <ele>537</ele>
        <time>2017-12-03T08:25:25.000Z</time>
      </trkpt>
      <trkpt lat="44.424" lon="2.52646">
        <ele>538</ele>
        <time>2017-12-03T08:25:33.000Z</time>
      </trkpt>
      <trkpt lat="44.42396" lon="2.52672">
        <ele>539</ele>
        <time>2017-12-03T08:25:41.000Z</time>
      </trkpt>
      <trkpt lat="44.42392" lon="2.52683">
        <ele>538</ele>
        <time>2017-12-03T08:25:45.000Z</time>
      </trkpt>
      <trkpt lat="44.42387" lon="2.52693">
        <ele>537</ele>
        <time>2017-12-03T08:25:49.000Z</time>
      </trkpt>
      <trkpt lat="44.42384" lon="2.52701">
        <ele>536</ele>
        <time>2017-12-03T08:25:52.000Z</time>
      </trkpt>
      <trkpt lat="44.42383" lon="2.52705">
        <ele>536</ele>
        <time>2017-12-03T08:25:54.000Z</time>
      </trkpt>
      <trkpt lat="44.42383" lon="2.52709">
        <ele>536</ele>
        <time>2017-12-03T08:25:56.000Z</time>
      </trkpt>
      <trkpt lat="44.42382" lon="2.52718">
        <ele>536</ele>
        <time>2017-12-03T08:25:59.000Z</time>
      </trkpt>
      <trkpt lat="44.42379" lon="2.52727">
        <ele>536</ele>
        <time>2017-12-03T08:26:02.000Z</time>
      </trkpt>
      <trkpt lat="44.42377" lon="2.52737">
        <ele>536</ele>
        <time>2017-12-03T08:26:06.000Z</time>
      </trkpt>
      <trkpt lat="44.42376" lon="2.52753">
        <ele>536</ele>
        <time>2017-12-03T08:26:11.000Z</time>
      </trkpt>
      <trkpt lat="44.42378" lon="2.52763">
        <ele>536</ele>
        <time>2017-12-03T08:26:15.000Z</time>
      </trkpt>
      <trkpt lat="44.42374" lon="2.52773">
        <ele>535</ele>
        <time>2017-12-03T08:26:21.000Z</time>
      </trkpt>
      <trkpt lat="44.42372" lon="2.52776">
        <ele>535</ele>
        <time>2017-12-03T08:26:23.000Z</time>
      </trkpt>
      <trkpt lat="44.42369" lon="2.52802">
        <ele>534</ele>
        <time>2017-12-03T08:26:36.000Z</time>
      </trkpt>
      <trkpt lat="44.42369" lon="2.52819">
        <ele>534</ele>
        <time>2017-12-03T08:26:42.000Z</time>
      </trkpt>
      <trkpt lat="44.42371" lon="2.52845">
        <ele>533</ele>
        <time>2017-12-03T08:26:51.000Z</time>
      </trkpt>
      <trkpt lat="44.4237" lon="2.52851">
        <ele>533</ele>
        <time>2017-12-03T08:26:53.000Z</time>
      </trkpt>
      <trkpt lat="44.42369" lon="2.5286">
        <ele>533</ele>
        <time>2017-12-03T08:26:56.000Z</time>
      </trkpt>
      <trkpt lat="44.42368" lon="2.5287">
        <ele>533</ele>
        <time>2017-12-03T08:26:59.000Z</time>
      </trkpt>
      <trkpt lat="44.42368" lon="2.52879">
        <ele>533</ele>
        <time>2017-12-03T08:27:02.000Z</time>
      </trkpt>
      <trkpt lat="44.42367" lon="2.52887">
        <ele>532</ele>
        <time>2017-12-03T08:27:05.000Z</time>
      </trkpt>
      <trkpt lat="44.42368" lon="2.52895">
        <ele>532</ele>
        <time>2017-12-03T08:27:08.000Z</time>
      </trkpt>
      <trkpt lat="44.42368" lon="2.52897">
        <ele>532</ele>
        <time>2017-12-03T08:27:09.000Z</time>
      </trkpt>
      <trkpt lat="44.42365" lon="2.52903">
        <ele>531</ele>
        <time>2017-12-03T08:27:12.000Z</time>
      </trkpt>
      <trkpt lat="44.42364" lon="2.52907">
        <ele>531</ele>
        <time>2017-12-03T08:27:13.000Z</time>
      </trkpt>
      <trkpt lat="44.42361" lon="2.5293">
        <ele>528</ele>
        <time>2017-12-03T08:27:22.000Z</time>
      </trkpt>
      <trkpt lat="44.4236" lon="2.52938">
        <ele>528</ele>
        <time>2017-12-03T08:27:25.000Z</time>
      </trkpt>
      <trkpt lat="44.42359" lon="2.52948">
        <ele>528</ele>
        <time>2017-12-03T08:27:29.000Z</time>
      </trkpt>
      <trkpt lat="44.42357" lon="2.52954">
        <ele>528</ele>
        <time>2017-12-03T08:27:31.000Z</time>
      </trkpt>
      <trkpt lat="44.42355" lon="2.52958">
        <ele>527</ele>
        <time>2017-12-03T08:27:33.000Z</time>
      </trkpt>
      <trkpt lat="44.42353" lon="2.52966">
        <ele>527</ele>
        <time>2017-12-03T08:27:35.000Z</time>
      </trkpt>
      <trkpt lat="44.42352" lon="2.52976">
        <ele>526</ele>
        <time>2017-12-03T08:27:38.000Z</time>
      </trkpt>
      <trkpt lat="44.42351" lon="2.52982">
        <ele>525</ele>
        <time>2017-12-03T08:27:40.000Z</time>
      </trkpt>
      <trkpt lat="44.4235" lon="2.52984">
        <ele>525</ele>
        <time>2017-12-03T08:27:42.000Z</time>
      </trkpt>
      <trkpt lat="44.42346" lon="2.52981">
        <ele>525</ele>
        <time>2017-12-03T08:27:45.000Z</time>
      </trkpt>
      <trkpt lat="44.42343" lon="2.52981">
        <ele>525</ele>
        <time>2017-12-03T08:27:47.000Z</time>
      </trkpt>
      <trkpt lat="44.42342" lon="2.52984">
        <ele>524</ele>
        <time>2017-12-03T08:27:49.000Z</time>
      </trkpt>
      <trkpt lat="44.42341" lon="2.52999">
        <ele>522</ele>
        <time>2017-12-03T08:27:54.000Z</time>
      </trkpt>
      <trkpt lat="44.42344" lon="2.53022">
        <ele>522</ele>
        <time>2017-12-03T08:28:01.000Z</time>
      </trkpt>
      <trkpt lat="44.42351" lon="2.53047">
        <ele>522</ele>
        <time>2017-12-03T08:28:09.000Z</time>
      </trkpt>
      <trkpt lat="44.42362" lon="2.53067">
        <ele>522</ele>
        <time>2017-12-03T08:28:16.000Z</time>
      </trkpt>
      <trkpt lat="44.42366" lon="2.53072">
        <ele>522</ele>
        <time>2017-12-03T08:28:20.000Z</time>
      </trkpt>
      <trkpt lat="44.42383" lon="2.53071">
        <ele>523</ele>
        <time>2017-12-03T08:28:29.000Z</time>
      </trkpt>
      <trkpt lat="44.42402" lon="2.5307">
        <ele>524</ele>
        <time>2017-12-03T08:28:38.000Z</time>
      </trkpt>
      <trkpt lat="44.42419" lon="2.53075">
        <ele>525</ele>
        <time>2017-12-03T08:28:44.000Z</time>
      </trkpt>
      <trkpt lat="44.42433" lon="2.53082">
        <ele>525</ele>
        <time>2017-12-03T08:28:54.000Z</time>
      </trkpt>
      <trkpt lat="44.42436" lon="2.53082">
        <ele>525</ele>
        <time>2017-12-03T08:28:57.000Z</time>
      </trkpt>
      <trkpt lat="44.42441" lon="2.53082">
        <ele>525</ele>
        <time>2017-12-03T08:29:00.000Z</time>
      </trkpt>
      <trkpt lat="44.42449" lon="2.53088">
        <ele>527</ele>
        <time>2017-12-03T08:29:06.000Z</time>
      </trkpt>
      <trkpt lat="44.42451" lon="2.53089">
        <ele>527</ele>
        <time>2017-12-03T08:29:08.000Z</time>
      </trkpt>
      <trkpt lat="44.42454" lon="2.53089">
        <ele>527</ele>
        <time>2017-12-03T08:29:10.000Z</time>
      </trkpt>
      <trkpt lat="44.42456" lon="2.5309">
        <ele>527</ele>
        <time>2017-12-03T08:29:11.000Z</time>
      </trkpt>
      <trkpt lat="44.42458" lon="2.53092">
        <ele>528</ele>
        <time>2017-12-03T08:29:13.000Z</time>
      </trkpt>
      <trkpt lat="44.42461" lon="2.53097">
        <ele>528</ele>
        <time>2017-12-03T08:29:17.000Z</time>
      </trkpt>
      <trkpt lat="44.42463" lon="2.53099">
        <ele>528</ele>
        <time>2017-12-03T08:29:19.000Z</time>
      </trkpt>
      <trkpt lat="44.42466" lon="2.53099">
        <ele>528</ele>
        <time>2017-12-03T08:29:21.000Z</time>
      </trkpt>
      <trkpt lat="44.42471" lon="2.53099">
        <ele>527</ele>
        <time>2017-12-03T08:29:24.000Z</time>
      </trkpt>
      <trkpt lat="44.42489" lon="2.53106">
        <ele>527</ele>
        <time>2017-12-03T08:29:32.000Z</time>
      </trkpt>
      <trkpt lat="44.425" lon="2.53117">
        <ele>528</ele>
        <time>2017-12-03T08:29:41.000Z</time>
      </trkpt>
      <trkpt lat="44.42501" lon="2.53119">
        <ele>529</ele>
        <time>2017-12-03T08:29:42.000Z</time>
      </trkpt>
      <trkpt lat="44.42503" lon="2.5312">
        <ele>529</ele>
        <time>2017-12-03T08:29:43.000Z</time>
      </trkpt>
      <trkpt lat="44.42506" lon="2.53125">
        <ele>530</ele>
        <time>2017-12-03T08:29:47.000Z</time>
      </trkpt>
      <trkpt lat="44.4251" lon="2.53129">
        <ele>530</ele>
        <time>2017-12-03T08:29:50.000Z</time>
      </trkpt>
      <trkpt lat="44.42511" lon="2.5313">
        <ele>530</ele>
        <time>2017-12-03T08:29:51.000Z</time>
      </trkpt>
      <trkpt lat="44.42513" lon="2.53135">
        <ele>531</ele>
        <time>2017-12-03T08:29:54.000Z</time>
      </trkpt>
      <trkpt lat="44.42514" lon="2.53137">
        <ele>531</ele>
        <time>2017-12-03T08:29:55.000Z</time>
      </trkpt>
      <trkpt lat="44.42516" lon="2.53138">
        <ele>531</ele>
        <time>2017-12-03T08:29:57.000Z</time>
      </trkpt>
      <trkpt lat="44.42519" lon="2.53141">
        <ele>531</ele>
        <time>2017-12-03T08:30:00.000Z</time>
      </trkpt>
      <trkpt lat="44.42522" lon="2.53145">
        <ele>532</ele>
        <time>2017-12-03T08:30:04.000Z</time>
      </trkpt>
      <trkpt lat="44.42523" lon="2.53145">
        <ele>532</ele>
        <time>2017-12-03T08:30:05.000Z</time>
      </trkpt>
      <trkpt lat="44.42525" lon="2.53146">
        <ele>532</ele>
        <time>2017-12-03T08:30:07.000Z</time>
      </trkpt>
      <trkpt lat="44.42531" lon="2.53149">
        <ele>532</ele>
        <time>2017-12-03T08:30:11.000Z</time>
      </trkpt>
      <trkpt lat="44.42535" lon="2.53154">
        <ele>532</ele>
        <time>2017-12-03T08:30:15.000Z</time>
      </trkpt>
      <trkpt lat="44.42538" lon="2.53154">
        <ele>532</ele>
        <time>2017-12-03T08:30:17.000Z</time>
      </trkpt>
      <trkpt lat="44.4254" lon="2.53152">
        <ele>532</ele>
        <time>2017-12-03T08:30:19.000Z</time>
      </trkpt>
      <trkpt lat="44.42546" lon="2.53147">
        <ele>532</ele>
        <time>2017-12-03T08:30:24.000Z</time>
      </trkpt>
      <trkpt lat="44.4255" lon="2.53145">
        <ele>532</ele>
        <time>2017-12-03T08:30:28.000Z</time>
      </trkpt>
      <trkpt lat="44.42553" lon="2.53143">
        <ele>532</ele>
        <time>2017-12-03T08:30:32.000Z</time>
      </trkpt>
      <trkpt lat="44.42554" lon="2.53142">
        <ele>532</ele>
        <time>2017-12-03T08:30:33.000Z</time>
      </trkpt>
      <trkpt lat="44.42557" lon="2.53141">
        <ele>532</ele>
        <time>2017-12-03T08:30:36.000Z</time>
      </trkpt>
      <trkpt lat="44.42557" lon="2.53141">
        <ele>532</ele>
        <time>2017-12-03T08:30:37.000Z</time>
      </trkpt>
      <trkpt lat="44.4256" lon="2.5314">
        <ele>532</ele>
        <time>2017-12-03T08:30:40.000Z</time>
      </trkpt>
      <trkpt lat="44.42561" lon="2.53139">
        <ele>532</ele>
        <time>2017-12-03T08:30:41.000Z</time>
      </trkpt>
      <trkpt lat="44.42563" lon="2.53135">
        <ele>531</ele>
        <time>2017-12-03T08:30:43.000Z</time>
      </trkpt>
      <trkpt lat="44.42578" lon="2.53121">
        <ele>530</ele>
        <time>2017-12-03T08:30:52.000Z</time>
      </trkpt>
      <trkpt lat="44.42584" lon="2.5312">
        <ele>537</ele>
        <time>2017-12-03T08:30:55.000Z</time>
      </trkpt>
      <trkpt lat="44.42592" lon="2.53117">
        <ele>537</ele>
        <time>2017-12-03T08:31:00.000Z</time>
      </trkpt>
      <trkpt lat="44.42598" lon="2.53117">
        <ele>537</ele>
        <time>2017-12-03T08:31:04.000Z</time>
      </trkpt>
      <trkpt lat="44.42601" lon="2.53116">
        <ele>538</ele>
        <time>2017-12-03T08:31:07.000Z</time>
      </trkpt>
      <trkpt lat="44.42605" lon="2.53115">
        <ele>538</ele>
        <time>2017-12-03T08:31:11.000Z</time>
      </trkpt>
      <trkpt lat="44.42612" lon="2.53113">
        <ele>539</ele>
        <time>2017-12-03T08:31:15.000Z</time>
      </trkpt>
      <trkpt lat="44.42618" lon="2.53112">
        <ele>539</ele>
        <time>2017-12-03T08:31:19.000Z</time>
      </trkpt>
      <trkpt lat="44.42621" lon="2.53111">
        <ele>540</ele>
        <time>2017-12-03T08:31:22.000Z</time>
      </trkpt>
      <trkpt lat="44.42622" lon="2.53111">
        <ele>540</ele>
        <time>2017-12-03T08:31:23.000Z</time>
      </trkpt>
      <trkpt lat="44.42624" lon="2.53111">
        <ele>540</ele>
        <time>2017-12-03T08:31:26.000Z</time>
      </trkpt>
      <trkpt lat="44.42626" lon="2.53111">
        <ele>540</ele>
        <time>2017-12-03T08:31:29.000Z</time>
      </trkpt>
      <trkpt lat="44.42627" lon="2.53111">
        <ele>541</ele>
        <time>2017-12-03T08:31:30.000Z</time>
      </trkpt>
      <trkpt lat="44.4263" lon="2.5311">
        <ele>541</ele>
        <time>2017-12-03T08:31:33.000Z</time>
      </trkpt>
      <trkpt lat="44.42634" lon="2.53107">
        <ele>541</ele>
        <time>2017-12-03T08:31:37.000Z</time>
      </trkpt>
      <trkpt lat="44.42637" lon="2.53107">
        <ele>542</ele>
        <time>2017-12-03T08:31:40.000Z</time>
      </trkpt>
      <trkpt lat="44.42645" lon="2.53107">
        <ele>543</ele>
        <time>2017-12-03T08:31:45.000Z</time>
      </trkpt>
      <trkpt lat="44.42653" lon="2.53106">
        <ele>544</ele>
        <time>2017-12-03T08:31:52.000Z</time>
      </trkpt>
      <trkpt lat="44.42655" lon="2.53105">
        <ele>544</ele>
        <time>2017-12-03T08:31:56.000Z</time>
      </trkpt>
      <trkpt lat="44.42657" lon="2.53105">
        <ele>544</ele>
        <time>2017-12-03T08:31:58.000Z</time>
      </trkpt>
      <trkpt lat="44.42659" lon="2.53105">
        <ele>545</ele>
        <time>2017-12-03T08:32:00.000Z</time>
      </trkpt>
      <trkpt lat="44.4266" lon="2.53105">
        <ele>545</ele>
        <time>2017-12-03T08:32:01.000Z</time>
      </trkpt>
      <trkpt lat="44.42662" lon="2.53105">
        <ele>545</ele>
        <time>2017-12-03T08:32:04.000Z</time>
      </trkpt>
      <trkpt lat="44.42669" lon="2.53109">
        <ele>552</ele>
        <time>2017-12-03T08:32:12.000Z</time>
      </trkpt>
      <trkpt lat="44.42671" lon="2.53111">
        <ele>552</ele>
        <time>2017-12-03T08:32:14.000Z</time>
      </trkpt>
      <trkpt lat="44.42673" lon="2.53113">
        <ele>552</ele>
        <time>2017-12-03T08:32:16.000Z</time>
      </trkpt>
      <trkpt lat="44.42678" lon="2.5312">
        <ele>552</ele>
        <time>2017-12-03T08:32:22.000Z</time>
      </trkpt>
      <trkpt lat="44.42685" lon="2.53127">
        <ele>553</ele>
        <time>2017-12-03T08:32:30.000Z</time>
      </trkpt>
      <trkpt lat="44.42704" lon="2.53132">
        <ele>553</ele>
        <time>2017-12-03T08:32:46.000Z</time>
      </trkpt>
      <trkpt lat="44.42708" lon="2.53135">
        <ele>553</ele>
        <time>2017-12-03T08:32:50.000Z</time>
      </trkpt>
      <trkpt lat="44.42711" lon="2.53137">
        <ele>554</ele>
        <time>2017-12-03T08:32:53.000Z</time>
      </trkpt>
      <trkpt lat="44.42719" lon="2.53161">
        <ele>554</ele>
        <time>2017-12-03T08:33:07.000Z</time>
      </trkpt>
      <trkpt lat="44.42723" lon="2.5318">
        <ele>556</ele>
        <time>2017-12-03T08:33:19.000Z</time>
      </trkpt>
      <trkpt lat="44.4274" lon="2.53171">
        <ele>557</ele>
        <time>2017-12-03T08:33:30.000Z</time>
      </trkpt>
      <trkpt lat="44.42756" lon="2.53158">
        <ele>557</ele>
        <time>2017-12-03T08:33:37.000Z</time>
      </trkpt>
      <trkpt lat="44.42773" lon="2.53145">
        <ele>556</ele>
        <time>2017-12-03T08:33:44.000Z</time>
      </trkpt>
      <trkpt lat="44.42778" lon="2.53141">
        <ele>556</ele>
        <time>2017-12-03T08:33:46.000Z</time>
      </trkpt>
      <trkpt lat="44.42794" lon="2.53128">
        <ele>556</ele>
        <time>2017-12-03T08:33:53.000Z</time>
      </trkpt>
      <trkpt lat="44.42806" lon="2.53118">
        <ele>555</ele>
        <time>2017-12-03T08:33:58.000Z</time>
      </trkpt>
      <trkpt lat="44.42823" lon="2.53104">
        <ele>554</ele>
        <time>2017-12-03T08:34:05.000Z</time>
      </trkpt>
      <trkpt lat="44.4283" lon="2.53099">
        <ele>554</ele>
        <time>2017-12-03T08:34:08.000Z</time>
      </trkpt>
      <trkpt lat="44.42842" lon="2.53092">
        <ele>553</ele>
        <time>2017-12-03T08:34:13.000Z</time>
      </trkpt>
      <trkpt lat="44.42855" lon="2.53085">
        <ele>554</ele>
        <time>2017-12-03T08:34:19.000Z</time>
      </trkpt>
      <trkpt lat="44.42874" lon="2.53076">
        <ele>549</ele>
        <time>2017-12-03T08:34:27.000Z</time>
      </trkpt>
      <trkpt lat="44.42886" lon="2.53071">
        <ele>549</ele>
        <time>2017-12-03T08:34:31.000Z</time>
      </trkpt>
      <trkpt lat="44.42904" lon="2.53064">
        <ele>549</ele>
        <time>2017-12-03T08:34:38.000Z</time>
      </trkpt>
      <trkpt lat="44.42909" lon="2.53061">
        <ele>549</ele>
        <time>2017-12-03T08:34:40.000Z</time>
      </trkpt>
      <trkpt lat="44.42928" lon="2.53053">
        <ele>549</ele>
        <time>2017-12-03T08:34:47.000Z</time>
      </trkpt>
      <trkpt lat="44.42947" lon="2.53048">
        <ele>548</ele>
        <time>2017-12-03T08:34:54.000Z</time>
      </trkpt>
      <trkpt lat="44.4295" lon="2.53047">
        <ele>548</ele>
        <time>2017-12-03T08:34:55.000Z</time>
      </trkpt>
      <trkpt lat="44.42969" lon="2.53041">
        <ele>548</ele>
        <time>2017-12-03T08:35:02.000Z</time>
      </trkpt>
      <trkpt lat="44.42976" lon="2.53038">
        <ele>548</ele>
        <time>2017-12-03T08:35:05.000Z</time>
      </trkpt>
      <trkpt lat="44.42996" lon="2.53032">
        <ele>547</ele>
        <time>2017-12-03T08:35:12.000Z</time>
      </trkpt>
      <trkpt lat="44.43004" lon="2.5303">
        <ele>546</ele>
        <time>2017-12-03T08:35:15.000Z</time>
      </trkpt>
      <trkpt lat="44.4302" lon="2.53025">
        <ele>546</ele>
        <time>2017-12-03T08:35:22.000Z</time>
      </trkpt>
      <trkpt lat="44.43036" lon="2.53019">
        <ele>545</ele>
        <time>2017-12-03T08:35:27.000Z</time>
      </trkpt>
      <trkpt lat="44.43057" lon="2.53015">
        <ele>545</ele>
        <time>2017-12-03T08:35:33.000Z</time>
      </trkpt>
      <trkpt lat="44.43077" lon="2.5301">
        <ele>543</ele>
        <time>2017-12-03T08:35:39.000Z</time>
      </trkpt>
      <trkpt lat="44.43083" lon="2.53008">
        <ele>543</ele>
        <time>2017-12-03T08:35:41.000Z</time>
      </trkpt>
      <trkpt lat="44.43101" lon="2.53004">
        <ele>543</ele>
        <time>2017-12-03T08:35:47.000Z</time>
      </trkpt>
      <trkpt lat="44.43117" lon="2.53001">
        <ele>543</ele>
        <time>2017-12-03T08:35:53.000Z</time>
      </trkpt>
      <trkpt lat="44.43137" lon="2.52998">
        <ele>540</ele>
        <time>2017-12-03T08:36:00.000Z</time>
      </trkpt>
      <trkpt lat="44.43155" lon="2.52997">
        <ele>540</ele>
        <time>2017-12-03T08:36:07.000Z</time>
      </trkpt>
      <trkpt lat="44.43174" lon="2.52996">
        <ele>540</ele>
        <time>2017-12-03T08:36:14.000Z</time>
      </trkpt>
      <trkpt lat="44.43194" lon="2.52994">
        <ele>539</ele>
        <time>2017-12-03T08:36:21.000Z</time>
      </trkpt>
      <trkpt lat="44.43213" lon="2.52993">
        <ele>538</ele>
        <time>2017-12-03T08:36:28.000Z</time>
      </trkpt>
      <trkpt lat="44.43233" lon="2.52991">
        <ele>538</ele>
        <time>2017-12-03T08:36:36.000Z</time>
      </trkpt>
      <trkpt lat="44.43253" lon="2.52988">
        <ele>538</ele>
        <time>2017-12-03T08:36:44.000Z</time>
      </trkpt>
      <trkpt lat="44.43272" lon="2.52984">
        <ele>538</ele>
        <time>2017-12-03T08:36:51.000Z</time>
      </trkpt>
      <trkpt lat="44.43288" lon="2.52981">
        <ele>538</ele>
        <time>2017-12-03T08:36:57.000Z</time>
      </trkpt>
      <trkpt lat="44.43309" lon="2.52978">
        <ele>538</ele>
        <time>2017-12-03T08:37:04.000Z</time>
      </trkpt>
      <trkpt lat="44.43328" lon="2.52975">
        <ele>538</ele>
        <time>2017-12-03T08:37:11.000Z</time>
      </trkpt>
      <trkpt lat="44.43333" lon="2.52974">
        <ele>538</ele>
        <time>2017-12-03T08:37:13.000Z</time>
      </trkpt>
      <trkpt lat="44.43352" lon="2.52971">
        <ele>539</ele>
        <time>2017-12-03T08:37:20.000Z</time>
      </trkpt>
      <trkpt lat="44.43371" lon="2.52965">
        <ele>539</ele>
        <time>2017-12-03T08:37:27.000Z</time>
      </trkpt>
      <trkpt lat="44.43389" lon="2.52955">
        <ele>539</ele>
        <time>2017-12-03T08:37:34.000Z</time>
      </trkpt>
      <trkpt lat="44.43406" lon="2.52944">
        <ele>539</ele>
        <time>2017-12-03T08:37:40.000Z</time>
      </trkpt>
      <trkpt lat="44.43424" lon="2.5293">
        <ele>540</ele>
        <time>2017-12-03T08:37:48.000Z</time>
      </trkpt>
      <trkpt lat="44.43432" lon="2.52924">
        <ele>540</ele>
        <time>2017-12-03T08:37:52.000Z</time>
      </trkpt>
      <trkpt lat="44.43448" lon="2.52912">
        <ele>542</ele>
        <time>2017-12-03T08:38:00.000Z</time>
      </trkpt>
      <trkpt lat="44.43451" lon="2.5291">
        <ele>542</ele>
        <time>2017-12-03T08:38:01.000Z</time>
      </trkpt>
      <trkpt lat="44.43464" lon="2.529">
        <ele>543</ele>
        <time>2017-12-03T08:38:08.000Z</time>
      </trkpt>
      <trkpt lat="44.43468" lon="2.52895">
        <ele>543</ele>
        <time>2017-12-03T08:38:11.000Z</time>
      </trkpt>
      <trkpt lat="44.43471" lon="2.52868">
        <ele>543</ele>
        <time>2017-12-03T08:38:19.000Z</time>
      </trkpt>
      <trkpt lat="44.43468" lon="2.5284">
        <ele>543</ele>
        <time>2017-12-03T08:38:27.000Z</time>
      </trkpt>
      <trkpt lat="44.43463" lon="2.52815">
        <ele>545</ele>
        <time>2017-12-03T08:38:34.000Z</time>
      </trkpt>
      <trkpt lat="44.4346" lon="2.5279">
        <ele>545</ele>
        <time>2017-12-03T08:38:42.000Z</time>
      </trkpt>
      <trkpt lat="44.43454" lon="2.52762">
        <ele>545</ele>
        <time>2017-12-03T08:38:50.000Z</time>
      </trkpt>
      <trkpt lat="44.43451" lon="2.52752">
        <ele>545</ele>
        <time>2017-12-03T08:38:53.000Z</time>
      </trkpt>
      <trkpt lat="44.43445" lon="2.52725">
        <ele>547</ele>
        <time>2017-12-03T08:39:01.000Z</time>
      </trkpt>
      <trkpt lat="44.43444" lon="2.52717">
        <ele>547</ele>
        <time>2017-12-03T08:39:04.000Z</time>
      </trkpt>
      <trkpt lat="44.43441" lon="2.52701">
        <ele>547</ele>
        <time>2017-12-03T08:39:10.000Z</time>
      </trkpt>
      <trkpt lat="44.4344" lon="2.52695">
        <ele>547</ele>
        <time>2017-12-03T08:39:12.000Z</time>
      </trkpt>
      <trkpt lat="44.43439" lon="2.52684">
        <ele>547</ele>
        <time>2017-12-03T08:39:16.000Z</time>
      </trkpt>
      <trkpt lat="44.4343" lon="2.52671">
        <ele>548</ele>
        <time>2017-12-03T08:39:22.000Z</time>
      </trkpt>
      <trkpt lat="44.43428" lon="2.52669">
        <ele>548</ele>
        <time>2017-12-03T08:39:23.000Z</time>
      </trkpt>
      <trkpt lat="44.43412" lon="2.52652">
        <ele>550</ele>
        <time>2017-12-03T08:39:31.000Z</time>
      </trkpt>
      <trkpt lat="44.43403" lon="2.52644">
        <ele>550</ele>
        <time>2017-12-03T08:39:35.000Z</time>
      </trkpt>
      <trkpt lat="44.43389" lon="2.5263">
        <ele>551</ele>
        <time>2017-12-03T08:39:42.000Z</time>
      </trkpt>
      <trkpt lat="44.43372" lon="2.52616">
        <ele>552</ele>
        <time>2017-12-03T08:39:51.000Z</time>
      </trkpt>
      <trkpt lat="44.43362" lon="2.52607">
        <ele>552</ele>
        <time>2017-12-03T08:39:56.000Z</time>
      </trkpt>
      <trkpt lat="44.43349" lon="2.52595">
        <ele>553</ele>
        <time>2017-12-03T08:40:03.000Z</time>
      </trkpt>
      <trkpt lat="44.43337" lon="2.52582">
        <ele>554</ele>
        <time>2017-12-03T08:40:10.000Z</time>
      </trkpt>
      <trkpt lat="44.43329" lon="2.52571">
        <ele>554</ele>
        <time>2017-12-03T08:40:15.000Z</time>
      </trkpt>
      <trkpt lat="44.43313" lon="2.52557">
        <ele>553</ele>
        <time>2017-12-03T08:40:23.000Z</time>
      </trkpt>
      <trkpt lat="44.43295" lon="2.52546">
        <ele>553</ele>
        <time>2017-12-03T08:40:31.000Z</time>
      </trkpt>
      <trkpt lat="44.43276" lon="2.52536">
        <ele>553</ele>
        <time>2017-12-03T08:40:39.000Z</time>
      </trkpt>
      <trkpt lat="44.43259" lon="2.52527">
        <ele>553</ele>
        <time>2017-12-03T08:40:46.000Z</time>
      </trkpt>
      <trkpt lat="44.43242" lon="2.52518">
        <ele>551</ele>
        <time>2017-12-03T08:40:53.000Z</time>
      </trkpt>
      <trkpt lat="44.43228" lon="2.52506">
        <ele>551</ele>
        <time>2017-12-03T08:40:59.000Z</time>
      </trkpt>
      <trkpt lat="44.43212" lon="2.52488">
        <ele>551</ele>
        <time>2017-12-03T08:41:06.000Z</time>
      </trkpt>
      <trkpt lat="44.43204" lon="2.52477">
        <ele>551</ele>
        <time>2017-12-03T08:41:10.000Z</time>
      </trkpt>
      <trkpt lat="44.43202" lon="2.52475">
        <ele>550</ele>
        <time>2017-12-03T08:41:11.000Z</time>
      </trkpt>
      <trkpt lat="44.43186" lon="2.52457">
        <ele>550</ele>
        <time>2017-12-03T08:41:18.000Z</time>
      </trkpt>
      <trkpt lat="44.43182" lon="2.52452">
        <ele>550</ele>
        <time>2017-12-03T08:41:20.000Z</time>
      </trkpt>
      <trkpt lat="44.43169" lon="2.52431">
        <ele>550</ele>
        <time>2017-12-03T08:41:27.000Z</time>
      </trkpt>
      <trkpt lat="44.43164" lon="2.52422">
        <ele>550</ele>
        <time>2017-12-03T08:41:30.000Z</time>
      </trkpt>
      <trkpt lat="44.43153" lon="2.52402">
        <ele>548</ele>
        <time>2017-12-03T08:41:37.000Z</time>
      </trkpt>
      <trkpt lat="44.43151" lon="2.52399">
        <ele>548</ele>
        <time>2017-12-03T08:41:38.000Z</time>
      </trkpt>
      <trkpt lat="44.43139" lon="2.52377">
        <ele>548</ele>
        <time>2017-12-03T08:41:45.000Z</time>
      </trkpt>
      <trkpt lat="44.43136" lon="2.52371">
        <ele>547</ele>
        <time>2017-12-03T08:41:47.000Z</time>
      </trkpt>
      <trkpt lat="44.43124" lon="2.52351">
        <ele>547</ele>
        <time>2017-12-03T08:41:54.000Z</time>
      </trkpt>
      <trkpt lat="44.43114" lon="2.52328">
        <ele>547</ele>
        <time>2017-12-03T08:42:02.000Z</time>
      </trkpt>
      <trkpt lat="44.43112" lon="2.52325">
        <ele>547</ele>
        <time>2017-12-03T08:42:03.000Z</time>
      </trkpt>
      <trkpt lat="44.431" lon="2.52305">
        <ele>547</ele>
        <time>2017-12-03T08:42:11.000Z</time>
      </trkpt>
      <trkpt lat="44.43092" lon="2.5228">
        <ele>548</ele>
        <time>2017-12-03T08:42:20.000Z</time>
      </trkpt>
      <trkpt lat="44.43085" lon="2.52255">
        <ele>550</ele>
        <time>2017-12-03T08:42:29.000Z</time>
      </trkpt>
      <trkpt lat="44.4308" lon="2.5223">
        <ele>551</ele>
        <time>2017-12-03T08:42:38.000Z</time>
      </trkpt>
      <trkpt lat="44.43079" lon="2.52227">
        <ele>551</ele>
        <time>2017-12-03T08:42:39.000Z</time>
      </trkpt>
      <trkpt lat="44.43076" lon="2.52201">
        <ele>550</ele>
        <time>2017-12-03T08:42:48.000Z</time>
      </trkpt>
      <trkpt lat="44.43076" lon="2.52194">
        <ele>550</ele>
        <time>2017-12-03T08:42:50.000Z</time>
      </trkpt>
      <trkpt lat="44.4308" lon="2.52186">
        <ele>550</ele>
        <time>2017-12-03T08:42:53.000Z</time>
      </trkpt>
      <trkpt lat="44.43086" lon="2.52163">
        <ele>549</ele>
        <time>2017-12-03T08:43:00.000Z</time>
      </trkpt>
      <trkpt lat="44.43082" lon="2.52146">
        <ele>549</ele>
        <time>2017-12-03T08:43:05.000Z</time>
      </trkpt>
      <trkpt lat="44.4308" lon="2.52128">
        <ele>548</ele>
        <time>2017-12-03T08:43:10.000Z</time>
      </trkpt>
      <trkpt lat="44.43081" lon="2.52112">
        <ele>548</ele>
        <time>2017-12-03T08:43:14.000Z</time>
      </trkpt>
      <trkpt lat="44.43087" lon="2.52095">
        <ele>546</ele>
        <time>2017-12-03T08:43:19.000Z</time>
      </trkpt>
      <trkpt lat="44.43091" lon="2.52079">
        <ele>545</ele>
        <time>2017-12-03T08:43:24.000Z</time>
      </trkpt>
      <trkpt lat="44.43094" lon="2.52058">
        <ele>542</ele>
        <time>2017-12-03T08:43:30.000Z</time>
      </trkpt>
      <trkpt lat="44.43096" lon="2.52031">
        <ele>540</ele>
        <time>2017-12-03T08:43:38.000Z</time>
      </trkpt>
      <trkpt lat="44.43087" lon="2.52005">
        <ele>540</ele>
        <time>2017-12-03T08:43:46.000Z</time>
      </trkpt>
      <trkpt lat="44.43081" lon="2.51997">
        <ele>537</ele>
        <time>2017-12-03T08:43:50.000Z</time>
      </trkpt>
      <trkpt lat="44.43083" lon="2.51988">
        <ele>533</ele>
        <time>2017-12-03T08:43:53.000Z</time>
      </trkpt>
      <trkpt lat="44.43088" lon="2.51982">
        <ele>535</ele>
        <time>2017-12-03T08:43:56.000Z</time>
      </trkpt>
      <trkpt lat="44.43105" lon="2.51968">
        <ele>532</ele>
        <time>2017-12-03T08:44:04.000Z</time>
      </trkpt>
      <trkpt lat="44.43106" lon="2.51956">
        <ele>530</ele>
        <time>2017-12-03T08:44:08.000Z</time>
      </trkpt>
      <trkpt lat="44.43104" lon="2.51944">
        <ele>528</ele>
        <time>2017-12-03T08:44:12.000Z</time>
      </trkpt>
      <trkpt lat="44.431" lon="2.51936">
        <ele>527</ele>
        <time>2017-12-03T08:44:15.000Z</time>
      </trkpt>
      <trkpt lat="44.43099" lon="2.51931">
        <ele>526</ele>
        <time>2017-12-03T08:44:17.000Z</time>
      </trkpt>
      <trkpt lat="44.43099" lon="2.51928">
        <ele>525</ele>
        <time>2017-12-03T08:44:18.000Z</time>
      </trkpt>
      <trkpt lat="44.43104" lon="2.51911">
        <ele>518</ele>
        <time>2017-12-03T08:44:23.000Z</time>
      </trkpt>
      <trkpt lat="44.4311" lon="2.51885">
        <ele>517</ele>
        <time>2017-12-03T08:44:31.000Z</time>
      </trkpt>
      <trkpt lat="44.43119" lon="2.51866">
        <ele>516</ele>
        <time>2017-12-03T08:44:38.000Z</time>
      </trkpt>
      <trkpt lat="44.43124" lon="2.51844">
        <ele>515</ele>
        <time>2017-12-03T08:44:47.000Z</time>
      </trkpt>
      <trkpt lat="44.43132" lon="2.51838">
        <ele>516</ele>
        <time>2017-12-03T08:44:53.000Z</time>
      </trkpt>
      <trkpt lat="44.43139" lon="2.51815">
        <ele>506</ele>
        <time>2017-12-03T08:45:02.000Z</time>
      </trkpt>
      <trkpt lat="44.43149" lon="2.51802">
        <ele>506</ele>
        <time>2017-12-03T08:45:08.000Z</time>
      </trkpt>
      <trkpt lat="44.43156" lon="2.51791">
        <ele>505</ele>
        <time>2017-12-03T08:45:13.000Z</time>
      </trkpt>
      <trkpt lat="44.43168" lon="2.51785">
        <ele>519</ele>
        <time>2017-12-03T08:45:19.000Z</time>
      </trkpt>
      <trkpt lat="44.43171" lon="2.51779">
        <ele>518</ele>
        <time>2017-12-03T08:45:22.000Z</time>
      </trkpt>
      <trkpt lat="44.43173" lon="2.51779">
        <ele>518</ele>
        <time>2017-12-03T08:45:23.000Z</time>
      </trkpt>
      <trkpt lat="44.43179" lon="2.51776">
        <ele>518</ele>
        <time>2017-12-03T08:45:27.000Z</time>
      </trkpt>
      <trkpt lat="44.4318" lon="2.51775">
        <ele>518</ele>
        <time>2017-12-03T08:45:28.000Z</time>
      </trkpt>
      <trkpt lat="44.4318" lon="2.51774">
        <ele>517</ele>
        <time>2017-12-03T08:45:29.000Z</time>
      </trkpt>
      <trkpt lat="44.4318" lon="2.51772">
        <ele>517</ele>
        <time>2017-12-03T08:45:31.000Z</time>
      </trkpt>
      <trkpt lat="44.43179" lon="2.51771">
        <ele>517</ele>
        <time>2017-12-03T08:45:32.000Z</time>
      </trkpt>
      <trkpt lat="44.43177" lon="2.51768">
        <ele>516</ele>
        <time>2017-12-03T08:45:34.000Z</time>
      </trkpt>
      <trkpt lat="44.43176" lon="2.51764">
        <ele>514</ele>
        <time>2017-12-03T08:45:36.000Z</time>
      </trkpt>
      <trkpt lat="44.43177" lon="2.51759">
        <ele>513</ele>
        <time>2017-12-03T08:45:38.000Z</time>
      </trkpt>
      <trkpt lat="44.4318" lon="2.51755">
        <ele>514</ele>
        <time>2017-12-03T08:45:40.000Z</time>
      </trkpt>
      <trkpt lat="44.43182" lon="2.51753">
        <ele>514</ele>
        <time>2017-12-03T08:45:42.000Z</time>
      </trkpt>
      <trkpt lat="44.43185" lon="2.51748">
        <ele>507</ele>
        <time>2017-12-03T08:45:45.000Z</time>
      </trkpt>
      <trkpt lat="44.43186" lon="2.51746">
        <ele>507</ele>
        <time>2017-12-03T08:45:46.000Z</time>
      </trkpt>
      <trkpt lat="44.43188" lon="2.51743">
        <ele>507</ele>
        <time>2017-12-03T08:45:48.000Z</time>
      </trkpt>
      <trkpt lat="44.43197" lon="2.5172">
        <ele>506</ele>
        <time>2017-12-03T08:46:00.000Z</time>
      </trkpt>
      <trkpt lat="44.43197" lon="2.51708">
        <ele>504</ele>
        <time>2017-12-03T08:46:05.000Z</time>
      </trkpt>
      <trkpt lat="44.43194" lon="2.51704">
        <ele>503</ele>
        <time>2017-12-03T08:46:08.000Z</time>
      </trkpt>
      <trkpt lat="44.43194" lon="2.51701">
        <ele>502</ele>
        <time>2017-12-03T08:46:11.000Z</time>
      </trkpt>
      <trkpt lat="44.43194" lon="2.517">
        <ele>502</ele>
        <time>2017-12-03T08:46:13.000Z</time>
      </trkpt>
      <trkpt lat="44.43217" lon="2.51702">
        <ele>506</ele>
        <time>2017-12-03T08:49:55.000Z</time>
      </trkpt>
      <trkpt lat="44.43219" lon="2.51701">
        <ele>507</ele>
        <time>2017-12-03T08:49:56.000Z</time>
      </trkpt>
      <trkpt lat="44.4322" lon="2.51701">
        <ele>507</ele>
        <time>2017-12-03T08:49:57.000Z</time>
      </trkpt>
      <trkpt lat="44.43222" lon="2.51701">
        <ele>507</ele>
        <time>2017-12-03T08:49:58.000Z</time>
      </trkpt>
      <trkpt lat="44.43226" lon="2.51701">
        <ele>508</ele>
        <time>2017-12-03T08:50:00.000Z</time>
      </trkpt>
      <trkpt lat="44.43232" lon="2.51693">
        <ele>508</ele>
        <time>2017-12-03T08:50:05.000Z</time>
      </trkpt>
      <trkpt lat="44.43239" lon="2.51688">
        <ele>508</ele>
        <time>2017-12-03T08:50:09.000Z</time>
      </trkpt>
      <trkpt lat="44.43257" lon="2.51685">
        <ele>517</ele>
        <time>2017-12-03T08:50:18.000Z</time>
      </trkpt>
      <trkpt lat="44.43268" lon="2.51681">
        <ele>518</ele>
        <time>2017-12-03T08:50:23.000Z</time>
      </trkpt>
      <trkpt lat="44.43285" lon="2.51666">
        <ele>500</ele>
        <time>2017-12-03T08:50:32.000Z</time>
      </trkpt>
      <trkpt lat="44.43287" lon="2.51665">
        <ele>500</ele>
        <time>2017-12-03T08:50:33.000Z</time>
      </trkpt>
      <trkpt lat="44.43291" lon="2.51666">
        <ele>501</ele>
        <time>2017-12-03T08:50:35.000Z</time>
      </trkpt>
      <trkpt lat="44.43309" lon="2.51668">
        <ele>522</ele>
        <time>2017-12-03T08:50:43.000Z</time>
      </trkpt>
      <trkpt lat="44.43321" lon="2.51663">
        <ele>510</ele>
        <time>2017-12-03T08:50:48.000Z</time>
      </trkpt>
      <trkpt lat="44.43337" lon="2.51649">
        <ele>511</ele>
        <time>2017-12-03T08:50:55.000Z</time>
      </trkpt>
      <trkpt lat="44.43342" lon="2.51647">
        <ele>510</ele>
        <time>2017-12-03T08:50:57.000Z</time>
      </trkpt>
      <trkpt lat="44.4336" lon="2.51637">
        <ele>506</ele>
        <time>2017-12-03T08:51:05.000Z</time>
      </trkpt>
      <trkpt lat="44.43377" lon="2.51633">
        <ele>506</ele>
        <time>2017-12-03T08:51:13.000Z</time>
      </trkpt>
      <trkpt lat="44.4338" lon="2.51634">
        <ele>506</ele>
        <time>2017-12-03T08:51:14.000Z</time>
      </trkpt>
      <trkpt lat="44.43397" lon="2.5164">
        <ele>510</ele>
        <time>2017-12-03T08:51:22.000Z</time>
      </trkpt>
      <trkpt lat="44.43405" lon="2.51647">
        <ele>514</ele>
        <time>2017-12-03T08:51:27.000Z</time>
      </trkpt>
      <trkpt lat="44.43408" lon="2.51649">
        <ele>516</ele>
        <time>2017-12-03T08:51:29.000Z</time>
      </trkpt>
      <trkpt lat="44.43409" lon="2.5165">
        <ele>516</ele>
        <time>2017-12-03T08:51:30.000Z</time>
      </trkpt>
      <trkpt lat="44.43415" lon="2.51648">
        <ele>516</ele>
        <time>2017-12-03T08:51:33.000Z</time>
      </trkpt>
      <trkpt lat="44.43421" lon="2.51646">
        <ele>512</ele>
        <time>2017-12-03T08:51:36.000Z</time>
      </trkpt>
      <trkpt lat="44.43426" lon="2.51646">
        <ele>511</ele>
        <time>2017-12-03T08:51:39.000Z</time>
      </trkpt>
      <trkpt lat="44.43442" lon="2.51647">
        <ele>507</ele>
        <time>2017-12-03T08:51:46.000Z</time>
      </trkpt>
      <trkpt lat="44.43449" lon="2.51658">
        <ele>508</ele>
        <time>2017-12-03T08:51:51.000Z</time>
      </trkpt>
      <trkpt lat="44.43455" lon="2.51669">
        <ele>524</ele>
        <time>2017-12-03T08:51:56.000Z</time>
      </trkpt>
      <trkpt lat="44.4346" lon="2.51681">
        <ele>524</ele>
        <time>2017-12-03T08:52:01.000Z</time>
      </trkpt>
      <trkpt lat="44.43461" lon="2.51684">
        <ele>524</ele>
        <time>2017-12-03T08:52:02.000Z</time>
      </trkpt>
      <trkpt lat="44.43466" lon="2.51697">
        <ele>524</ele>
        <time>2017-12-03T08:52:07.000Z</time>
      </trkpt>
      <trkpt lat="44.43474" lon="2.51721">
        <ele>526</ele>
        <time>2017-12-03T08:52:16.000Z</time>
      </trkpt>
      <trkpt lat="44.43482" lon="2.51735">
        <ele>526</ele>
        <time>2017-12-03T08:52:22.000Z</time>
      </trkpt>
      <trkpt lat="44.43495" lon="2.51752">
        <ele>529</ele>
        <time>2017-12-03T08:52:30.000Z</time>
      </trkpt>
      <trkpt lat="44.43498" lon="2.51777">
        <ele>533</ele>
        <time>2017-12-03T08:52:38.000Z</time>
      </trkpt>
      <trkpt lat="44.43497" lon="2.51804">
        <ele>535</ele>
        <time>2017-12-03T08:52:46.000Z</time>
      </trkpt>
      <trkpt lat="44.43492" lon="2.51829">
        <ele>537</ele>
        <time>2017-12-03T08:52:54.000Z</time>
      </trkpt>
      <trkpt lat="44.43498" lon="2.51842">
        <ele>538</ele>
        <time>2017-12-03T08:52:59.000Z</time>
      </trkpt>
      <trkpt lat="44.43517" lon="2.51845">
        <ele>534</ele>
        <time>2017-12-03T08:53:06.000Z</time>
      </trkpt>
      <trkpt lat="44.43536" lon="2.51847">
        <ele>531</ele>
        <time>2017-12-03T08:53:13.000Z</time>
      </trkpt>
      <trkpt lat="44.43554" lon="2.51849">
        <ele>529</ele>
        <time>2017-12-03T08:53:20.000Z</time>
      </trkpt>
      <trkpt lat="44.43567" lon="2.51854">
        <ele>527</ele>
        <time>2017-12-03T08:53:25.000Z</time>
      </trkpt>
      <trkpt lat="44.43569" lon="2.51856">
        <ele>527</ele>
        <time>2017-12-03T08:53:26.000Z</time>
      </trkpt>
      <trkpt lat="44.43581" lon="2.51868">
        <ele>528</ele>
        <time>2017-12-03T08:53:32.000Z</time>
      </trkpt>
      <trkpt lat="44.43582" lon="2.51879">
        <ele>530</ele>
        <time>2017-12-03T08:53:37.000Z</time>
      </trkpt>
      <trkpt lat="44.43585" lon="2.51878">
        <ele>525</ele>
        <time>2017-12-03T08:53:39.000Z</time>
      </trkpt>
      <trkpt lat="44.43591" lon="2.51875">
        <ele>524</ele>
        <time>2017-12-03T08:53:45.000Z</time>
      </trkpt>
      <trkpt lat="44.43594" lon="2.51873">
        <ele>524</ele>
        <time>2017-12-03T08:53:47.000Z</time>
      </trkpt>
      <trkpt lat="44.43603" lon="2.51872">
        <ele>524</ele>
        <time>2017-12-03T08:53:51.000Z</time>
      </trkpt>
      <trkpt lat="44.43613" lon="2.51871">
        <ele>524</ele>
        <time>2017-12-03T08:53:55.000Z</time>
      </trkpt>
      <trkpt lat="44.43615" lon="2.51871">
        <ele>524</ele>
        <time>2017-12-03T08:53:56.000Z</time>
      </trkpt>
      <trkpt lat="44.43621" lon="2.51872">
        <ele>524</ele>
        <time>2017-12-03T08:53:59.000Z</time>
      </trkpt>
      <trkpt lat="44.43623" lon="2.51872">
        <ele>524</ele>
        <time>2017-12-03T08:54:00.000Z</time>
      </trkpt>
      <trkpt lat="44.43636" lon="2.51867">
        <ele>523</ele>
        <time>2017-12-03T08:54:06.000Z</time>
      </trkpt>
      <trkpt lat="44.43653" lon="2.5186">
        <ele>521</ele>
        <time>2017-12-03T08:54:13.000Z</time>
      </trkpt>
      <trkpt lat="44.43657" lon="2.51861">
        <ele>521</ele>
        <time>2017-12-03T08:54:15.000Z</time>
      </trkpt>
      <trkpt lat="44.43669" lon="2.51858">
        <ele>519</ele>
        <time>2017-12-03T08:54:20.000Z</time>
      </trkpt>
      <trkpt lat="44.43689" lon="2.51855">
        <ele>519</ele>
        <time>2017-12-03T08:54:28.000Z</time>
      </trkpt>
      <trkpt lat="44.43691" lon="2.51853">
        <ele>519</ele>
        <time>2017-12-03T08:54:29.000Z</time>
      </trkpt>
      <trkpt lat="44.43706" lon="2.51852">
        <ele>519</ele>
        <time>2017-12-03T08:54:35.000Z</time>
      </trkpt>
      <trkpt lat="44.43717" lon="2.51853">
        <ele>519</ele>
        <time>2017-12-03T08:54:41.000Z</time>
      </trkpt>
      <trkpt lat="44.43725" lon="2.51848">
        <ele>518</ele>
        <time>2017-12-03T08:54:46.000Z</time>
      </trkpt>
      <trkpt lat="44.43738" lon="2.51843">
        <ele>516</ele>
        <time>2017-12-03T08:54:52.000Z</time>
      </trkpt>
      <trkpt lat="44.43756" lon="2.51841">
        <ele>514</ele>
        <time>2017-12-03T08:55:00.000Z</time>
      </trkpt>
      <trkpt lat="44.43758" lon="2.5184">
        <ele>514</ele>
        <time>2017-12-03T08:55:01.000Z</time>
      </trkpt>
      <trkpt lat="44.43774" lon="2.51845">
        <ele>515</ele>
        <time>2017-12-03T08:55:08.000Z</time>
      </trkpt>
      <trkpt lat="44.43785" lon="2.51857">
        <ele>516</ele>
        <time>2017-12-03T08:55:15.000Z</time>
      </trkpt>
      <trkpt lat="44.43796" lon="2.51868">
        <ele>517</ele>
        <time>2017-12-03T08:55:21.000Z</time>
      </trkpt>
      <trkpt lat="44.43804" lon="2.51872">
        <ele>517</ele>
        <time>2017-12-03T08:55:25.000Z</time>
      </trkpt>
      <trkpt lat="44.43809" lon="2.51875">
        <ele>517</ele>
        <time>2017-12-03T08:55:28.000Z</time>
      </trkpt>
      <trkpt lat="44.43814" lon="2.51887">
        <ele>519</ele>
        <time>2017-12-03T08:55:33.000Z</time>
      </trkpt>
      <trkpt lat="44.43815" lon="2.51889">
        <ele>519</ele>
        <time>2017-12-03T08:55:34.000Z</time>
      </trkpt>
      <trkpt lat="44.43822" lon="2.51898">
        <ele>520</ele>
        <time>2017-12-03T08:55:39.000Z</time>
      </trkpt>
      <trkpt lat="44.43825" lon="2.51902">
        <ele>521</ele>
        <time>2017-12-03T08:55:41.000Z</time>
      </trkpt>
      <trkpt lat="44.43828" lon="2.51905">
        <ele>522</ele>
        <time>2017-12-03T08:55:43.000Z</time>
      </trkpt>
      <trkpt lat="44.43846" lon="2.51895">
        <ele>519</ele>
        <time>2017-12-03T08:55:53.000Z</time>
      </trkpt>
      <trkpt lat="44.43864" lon="2.51888">
        <ele>518</ele>
        <time>2017-12-03T08:56:00.000Z</time>
      </trkpt>
      <trkpt lat="44.4388" lon="2.51881">
        <ele>517</ele>
        <time>2017-12-03T08:56:06.000Z</time>
      </trkpt>
      <trkpt lat="44.43895" lon="2.51867">
        <ele>516</ele>
        <time>2017-12-03T08:56:13.000Z</time>
      </trkpt>
      <trkpt lat="44.43908" lon="2.51848">
        <ele>515</ele>
        <time>2017-12-03T08:56:20.000Z</time>
      </trkpt>
      <trkpt lat="44.43909" lon="2.51846">
        <ele>515</ele>
        <time>2017-12-03T08:56:21.000Z</time>
      </trkpt>
      <trkpt lat="44.43921" lon="2.51825">
        <ele>515</ele>
        <time>2017-12-03T08:56:29.000Z</time>
      </trkpt>
      <trkpt lat="44.43924" lon="2.51819">
        <ele>516</ele>
        <time>2017-12-03T08:56:31.000Z</time>
      </trkpt>
      <trkpt lat="44.43925" lon="2.51816">
        <ele>516</ele>
        <time>2017-12-03T08:56:32.000Z</time>
      </trkpt>
      <trkpt lat="44.43933" lon="2.51791">
        <ele>516</ele>
        <time>2017-12-03T08:56:39.000Z</time>
      </trkpt>
      <trkpt lat="44.43934" lon="2.51763">
        <ele>514</ele>
        <time>2017-12-03T08:56:47.000Z</time>
      </trkpt>
      <trkpt lat="44.43939" lon="2.51738">
        <ele>512</ele>
        <time>2017-12-03T08:56:54.000Z</time>
      </trkpt>
      <trkpt lat="44.43946" lon="2.51711">
        <ele>514</ele>
        <time>2017-12-03T08:57:01.000Z</time>
      </trkpt>
      <trkpt lat="44.43947" lon="2.51707">
        <ele>514</ele>
        <time>2017-12-03T08:57:02.000Z</time>
      </trkpt>
      <trkpt lat="44.43953" lon="2.51685">
        <ele>514</ele>
        <time>2017-12-03T08:57:08.000Z</time>
      </trkpt>
      <trkpt lat="44.43959" lon="2.51664">
        <ele>514</ele>
        <time>2017-12-03T08:57:14.000Z</time>
      </trkpt>
      <trkpt lat="44.43971" lon="2.51643">
        <ele>515</ele>
        <time>2017-12-03T08:57:21.000Z</time>
      </trkpt>
      <trkpt lat="44.43978" lon="2.51638">
        <ele>515</ele>
        <time>2017-12-03T08:57:24.000Z</time>
      </trkpt>
      <trkpt lat="44.43996" lon="2.51631">
        <ele>516</ele>
        <time>2017-12-03T08:57:31.000Z</time>
      </trkpt>
      <trkpt lat="44.43999" lon="2.51606">
        <ele>517</ele>
        <time>2017-12-03T08:57:39.000Z</time>
      </trkpt>
      <trkpt lat="44.4399" lon="2.51584">
        <ele>517</ele>
        <time>2017-12-03T08:57:46.000Z</time>
      </trkpt>
      <trkpt lat="44.43978" lon="2.5156">
        <ele>516</ele>
        <time>2017-12-03T08:57:53.000Z</time>
      </trkpt>
      <trkpt lat="44.43964" lon="2.51539">
        <ele>515</ele>
        <time>2017-12-03T08:58:00.000Z</time>
      </trkpt>
      <trkpt lat="44.43958" lon="2.51531">
        <ele>515</ele>
        <time>2017-12-03T08:58:03.000Z</time>
      </trkpt>
      <trkpt lat="44.43945" lon="2.51511">
        <ele>514</ele>
        <time>2017-12-03T08:58:10.000Z</time>
      </trkpt>
      <trkpt lat="44.43936" lon="2.51486">
        <ele>513</ele>
        <time>2017-12-03T08:58:17.000Z</time>
      </trkpt>
      <trkpt lat="44.43934" lon="2.51479">
        <ele>513</ele>
        <time>2017-12-03T08:58:19.000Z</time>
      </trkpt>
      <trkpt lat="44.43929" lon="2.51454">
        <ele>512</ele>
        <time>2017-12-03T08:58:26.000Z</time>
      </trkpt>
      <trkpt lat="44.43927" lon="2.51429">
        <ele>510</ele>
        <time>2017-12-03T08:58:33.000Z</time>
      </trkpt>
      <trkpt lat="44.43931" lon="2.51405">
        <ele>508</ele>
        <time>2017-12-03T08:58:40.000Z</time>
      </trkpt>
      <trkpt lat="44.43935" lon="2.51395">
        <ele>508</ele>
        <time>2017-12-03T08:58:43.000Z</time>
      </trkpt>
      <trkpt lat="44.43944" lon="2.51374">
        <ele>508</ele>
        <time>2017-12-03T08:58:50.000Z</time>
      </trkpt>
      <trkpt lat="44.43953" lon="2.51351">
        <ele>508</ele>
        <time>2017-12-03T08:58:57.000Z</time>
      </trkpt>
      <trkpt lat="44.43964" lon="2.51331">
        <ele>506</ele>
        <time>2017-12-03T08:59:04.000Z</time>
      </trkpt>
      <trkpt lat="44.4397" lon="2.51304">
        <ele>506</ele>
        <time>2017-12-03T08:59:12.000Z</time>
      </trkpt>
      <trkpt lat="44.43972" lon="2.51286">
        <ele>505</ele>
        <time>2017-12-03T08:59:17.000Z</time>
      </trkpt>
      <trkpt lat="44.43978" lon="2.5126">
        <ele>507</ele>
        <time>2017-12-03T08:59:25.000Z</time>
      </trkpt>
      <trkpt lat="44.43979" lon="2.51257">
        <ele>507</ele>
        <time>2017-12-03T08:59:26.000Z</time>
      </trkpt>
      <trkpt lat="44.43989" lon="2.51235">
        <ele>506</ele>
        <time>2017-12-03T08:59:34.000Z</time>
      </trkpt>
      <trkpt lat="44.43993" lon="2.51227">
        <ele>505</ele>
        <time>2017-12-03T08:59:37.000Z</time>
      </trkpt>
      <trkpt lat="44.44006" lon="2.51206">
        <ele>518</ele>
        <time>2017-12-03T08:59:45.000Z</time>
      </trkpt>
      <trkpt lat="44.44011" lon="2.51195">
        <ele>518</ele>
        <time>2017-12-03T08:59:49.000Z</time>
      </trkpt>
      <trkpt lat="44.44018" lon="2.51185">
        <ele>518</ele>
        <time>2017-12-03T08:59:54.000Z</time>
      </trkpt>
      <trkpt lat="44.44028" lon="2.51184">
        <ele>519</ele>
        <time>2017-12-03T08:59:59.000Z</time>
      </trkpt>
      <trkpt lat="44.44035" lon="2.5118">
        <ele>520</ele>
        <time>2017-12-03T09:00:03.000Z</time>
      </trkpt>
      <trkpt lat="44.44042" lon="2.51176">
        <ele>520</ele>
        <time>2017-12-03T09:00:07.000Z</time>
      </trkpt>
      <trkpt lat="44.44049" lon="2.51172">
        <ele>521</ele>
        <time>2017-12-03T09:00:11.000Z</time>
      </trkpt>
      <trkpt lat="44.44065" lon="2.51166">
        <ele>526</ele>
        <time>2017-12-03T09:00:19.000Z</time>
      </trkpt>
      <trkpt lat="44.44084" lon="2.51159">
        <ele>531</ele>
        <time>2017-12-03T09:00:28.000Z</time>
      </trkpt>
      <trkpt lat="44.44098" lon="2.51152">
        <ele>533</ele>
        <time>2017-12-03T09:00:35.000Z</time>
      </trkpt>
      <trkpt lat="44.44103" lon="2.51144">
        <ele>534</ele>
        <time>2017-12-03T09:00:39.000Z</time>
      </trkpt>
      <trkpt lat="44.44107" lon="2.51138">
        <ele>534</ele>
        <time>2017-12-03T09:00:42.000Z</time>
      </trkpt>
      <trkpt lat="44.44114" lon="2.51129">
        <ele>535</ele>
        <time>2017-12-03T09:00:47.000Z</time>
      </trkpt>
      <trkpt lat="44.44116" lon="2.51128">
        <ele>535</ele>
        <time>2017-12-03T09:00:48.000Z</time>
      </trkpt>
      <trkpt lat="44.44121" lon="2.51125">
        <ele>535</ele>
        <time>2017-12-03T09:00:51.000Z</time>
      </trkpt>
      <trkpt lat="44.44127" lon="2.51123">
        <ele>536</ele>
        <time>2017-12-03T09:00:54.000Z</time>
      </trkpt>
      <trkpt lat="44.44131" lon="2.51122">
        <ele>536</ele>
        <time>2017-12-03T09:00:56.000Z</time>
      </trkpt>
      <trkpt lat="44.44139" lon="2.51121">
        <ele>536</ele>
        <time>2017-12-03T09:01:00.000Z</time>
      </trkpt>
      <trkpt lat="44.44151" lon="2.51121">
        <ele>537</ele>
        <time>2017-12-03T09:01:06.000Z</time>
      </trkpt>
      <trkpt lat="44.44164" lon="2.51119">
        <ele>537</ele>
        <time>2017-12-03T09:01:12.000Z</time>
      </trkpt>
      <trkpt lat="44.44174" lon="2.51118">
        <ele>542</ele>
        <time>2017-12-03T09:01:17.000Z</time>
      </trkpt>
      <trkpt lat="44.44184" lon="2.51118">
        <ele>542</ele>
        <time>2017-12-03T09:01:22.000Z</time>
      </trkpt>
      <trkpt lat="44.44195" lon="2.51117">
        <ele>543</ele>
        <time>2017-12-03T09:01:28.000Z</time>
      </trkpt>
      <trkpt lat="44.4421" lon="2.51118">
        <ele>543</ele>
        <time>2017-12-03T09:01:35.000Z</time>
      </trkpt>
      <trkpt lat="44.44224" lon="2.51124">
        <ele>543</ele>
        <time>2017-12-03T09:01:42.000Z</time>
      </trkpt>
      <trkpt lat="44.44242" lon="2.51133">
        <ele>543</ele>
        <time>2017-12-03T09:01:51.000Z</time>
      </trkpt>
      <trkpt lat="44.44261" lon="2.51139">
        <ele>546</ele>
        <time>2017-12-03T09:02:00.000Z</time>
      </trkpt>
      <trkpt lat="44.4428" lon="2.51142">
        <ele>547</ele>
        <time>2017-12-03T09:02:08.000Z</time>
      </trkpt>
      <trkpt lat="44.44288" lon="2.51144">
        <ele>547</ele>
        <time>2017-12-03T09:02:11.000Z</time>
      </trkpt>
      <trkpt lat="44.44308" lon="2.51149">
        <ele>547</ele>
        <time>2017-12-03T09:02:19.000Z</time>
      </trkpt>
      <trkpt lat="44.44328" lon="2.51153">
        <ele>547</ele>
        <time>2017-12-03T09:02:27.000Z</time>
      </trkpt>
      <trkpt lat="44.44339" lon="2.51164">
        <ele>547</ele>
        <time>2017-12-03T09:02:33.000Z</time>
      </trkpt>
      <trkpt lat="44.44358" lon="2.5116">
        <ele>548</ele>
        <time>2017-12-03T09:02:41.000Z</time>
      </trkpt>
      <trkpt lat="44.44377" lon="2.51152">
        <ele>548</ele>
        <time>2017-12-03T09:02:49.000Z</time>
      </trkpt>
      <trkpt lat="44.44383" lon="2.51154">
        <ele>548</ele>
        <time>2017-12-03T09:02:52.000Z</time>
      </trkpt>
      <trkpt lat="44.44401" lon="2.51153">
        <ele>548</ele>
        <time>2017-12-03T09:02:59.000Z</time>
      </trkpt>
      <trkpt lat="44.44403" lon="2.51153">
        <ele>548</ele>
        <time>2017-12-03T09:03:00.000Z</time>
      </trkpt>
      <trkpt lat="44.44417" lon="2.51162">
        <ele>548</ele>
        <time>2017-12-03T09:03:07.000Z</time>
      </trkpt>
      <trkpt lat="44.44431" lon="2.51169">
        <ele>550</ele>
        <time>2017-12-03T09:03:14.000Z</time>
      </trkpt>
      <trkpt lat="44.44441" lon="2.51173">
        <ele>551</ele>
        <time>2017-12-03T09:03:19.000Z</time>
      </trkpt>
      <trkpt lat="44.44459" lon="2.51179">
        <ele>552</ele>
        <time>2017-12-03T09:03:27.000Z</time>
      </trkpt>
      <trkpt lat="44.44461" lon="2.5118">
        <ele>552</ele>
        <time>2017-12-03T09:03:28.000Z</time>
      </trkpt>
      <trkpt lat="44.44481" lon="2.51183">
        <ele>552</ele>
        <time>2017-12-03T09:03:36.000Z</time>
      </trkpt>
      <trkpt lat="44.445" lon="2.51187">
        <ele>552</ele>
        <time>2017-12-03T09:03:44.000Z</time>
      </trkpt>
      <trkpt lat="44.4451" lon="2.51188">
        <ele>554</ele>
        <time>2017-12-03T09:03:49.000Z</time>
      </trkpt>
      <trkpt lat="44.4453" lon="2.51186">
        <ele>555</ele>
        <time>2017-12-03T09:03:58.000Z</time>
      </trkpt>
      <trkpt lat="44.44537" lon="2.51185">
        <ele>555</ele>
        <time>2017-12-03T09:04:01.000Z</time>
      </trkpt>
      <trkpt lat="44.44556" lon="2.51184">
        <ele>555</ele>
        <time>2017-12-03T09:04:08.000Z</time>
      </trkpt>
      <trkpt lat="44.44568" lon="2.51183">
        <ele>555</ele>
        <time>2017-12-03T09:04:13.000Z</time>
      </trkpt>
      <trkpt lat="44.44587" lon="2.51182">
        <ele>556</ele>
        <time>2017-12-03T09:04:21.000Z</time>
      </trkpt>
      <trkpt lat="44.44607" lon="2.5118">
        <ele>557</ele>
        <time>2017-12-03T09:04:29.000Z</time>
      </trkpt>
      <trkpt lat="44.44612" lon="2.51179">
        <ele>557</ele>
        <time>2017-12-03T09:04:31.000Z</time>
      </trkpt>
      <trkpt lat="44.4463" lon="2.51168">
        <ele>558</ele>
        <time>2017-12-03T09:04:39.000Z</time>
      </trkpt>
      <trkpt lat="44.44648" lon="2.51158">
        <ele>554</ele>
        <time>2017-12-03T09:04:47.000Z</time>
      </trkpt>
      <trkpt lat="44.44659" lon="2.5115">
        <ele>555</ele>
        <time>2017-12-03T09:04:53.000Z</time>
      </trkpt>
      <trkpt lat="44.44661" lon="2.5115">
        <ele>555</ele>
        <time>2017-12-03T09:04:55.000Z</time>
      </trkpt>
      <trkpt lat="44.44665" lon="2.51148">
        <ele>555</ele>
        <time>2017-12-03T09:05:03.000Z</time>
      </trkpt>
      <trkpt lat="44.44664" lon="2.5115">
        <ele>555</ele>
        <time>2017-12-03T09:06:26.000Z</time>
      </trkpt>
      <trkpt lat="44.44676" lon="2.5113">
        <ele>556</ele>
        <time>2017-12-03T09:06:39.000Z</time>
      </trkpt>
      <trkpt lat="44.44684" lon="2.51107">
        <ele>555</ele>
        <time>2017-12-03T09:06:52.000Z</time>
      </trkpt>
      <trkpt lat="44.44692" lon="2.51085">
        <ele>555</ele>
        <time>2017-12-03T09:07:05.000Z</time>
      </trkpt>
      <trkpt lat="44.44699" lon="2.51061">
        <ele>553</ele>
        <time>2017-12-03T09:07:18.000Z</time>
      </trkpt>
      <trkpt lat="44.44701" lon="2.51056">
        <ele>553</ele>
        <time>2017-12-03T09:07:21.000Z</time>
      </trkpt>
      <trkpt lat="44.44707" lon="2.51032">
        <ele>553</ele>
        <time>2017-12-03T09:07:30.000Z</time>
      </trkpt>
      <trkpt lat="44.44715" lon="2.51006">
        <ele>553</ele>
        <time>2017-12-03T09:07:39.000Z</time>
      </trkpt>
      <trkpt lat="44.44716" lon="2.51003">
        <ele>553</ele>
        <time>2017-12-03T09:07:40.000Z</time>
      </trkpt>
      <trkpt lat="44.44722" lon="2.50976">
        <ele>550</ele>
        <time>2017-12-03T09:07:48.000Z</time>
      </trkpt>
      <trkpt lat="44.44725" lon="2.50948">
        <ele>550</ele>
        <time>2017-12-03T09:07:56.000Z</time>
      </trkpt>
      <trkpt lat="44.44727" lon="2.50921">
        <ele>552</ele>
        <time>2017-12-03T09:08:03.000Z</time>
      </trkpt>
      <trkpt lat="44.44727" lon="2.50896">
        <ele>549</ele>
        <time>2017-12-03T09:08:10.000Z</time>
      </trkpt>
      <trkpt lat="44.44729" lon="2.50868">
        <ele>548</ele>
        <time>2017-12-03T09:08:18.000Z</time>
      </trkpt>
      <trkpt lat="44.44728" lon="2.5084">
        <ele>549</ele>
        <time>2017-12-03T09:08:26.000Z</time>
      </trkpt>
      <trkpt lat="44.44723" lon="2.50815">
        <ele>546</ele>
        <time>2017-12-03T09:08:34.000Z</time>
      </trkpt>
      <trkpt lat="44.4472" lon="2.50788">
        <ele>545</ele>
        <time>2017-12-03T09:08:41.000Z</time>
      </trkpt>
      <trkpt lat="44.44717" lon="2.5077">
        <ele>545</ele>
        <time>2017-12-03T09:08:46.000Z</time>
      </trkpt>
      <trkpt lat="44.44712" lon="2.50743">
        <ele>544</ele>
        <time>2017-12-03T09:08:53.000Z</time>
      </trkpt>
      <trkpt lat="44.44711" lon="2.50721">
        <ele>544</ele>
        <time>2017-12-03T09:08:59.000Z</time>
      </trkpt>
      <trkpt lat="44.44708" lon="2.50696">
        <ele>544</ele>
        <time>2017-12-03T09:09:07.000Z</time>
      </trkpt>
      <trkpt lat="44.44702" lon="2.50671">
        <ele>543</ele>
        <time>2017-12-03T09:09:15.000Z</time>
      </trkpt>
      <trkpt lat="44.44699" lon="2.5066">
        <ele>544</ele>
        <time>2017-12-03T09:09:19.000Z</time>
      </trkpt>
      <trkpt lat="44.44694" lon="2.50634">
        <ele>544</ele>
        <time>2017-12-03T09:09:26.000Z</time>
      </trkpt>
      <trkpt lat="44.44693" lon="2.5063">
        <ele>544</ele>
        <time>2017-12-03T09:09:27.000Z</time>
      </trkpt>
      <trkpt lat="44.44687" lon="2.50603">
        <ele>543</ele>
        <time>2017-12-03T09:09:35.000Z</time>
      </trkpt>
      <trkpt lat="44.44683" lon="2.50589">
        <ele>542</ele>
        <time>2017-12-03T09:09:39.000Z</time>
      </trkpt>
      <trkpt lat="44.44681" lon="2.50583">
        <ele>543</ele>
        <time>2017-12-03T09:09:41.000Z</time>
      </trkpt>
      <trkpt lat="44.44674" lon="2.50567">
        <ele>543</ele>
        <time>2017-12-03T09:09:46.000Z</time>
      </trkpt>
      <trkpt lat="44.44663" lon="2.50544">
        <ele>532</ele>
        <time>2017-12-03T09:09:55.000Z</time>
      </trkpt>
      <trkpt lat="44.44662" lon="2.50542">
        <ele>532</ele>
        <time>2017-12-03T09:09:56.000Z</time>
      </trkpt>
      <trkpt lat="44.44658" lon="2.50532">
        <ele>532</ele>
        <time>2017-12-03T09:10:00.000Z</time>
      </trkpt>
      <trkpt lat="44.44649" lon="2.50513">
        <ele>533</ele>
        <time>2017-12-03T09:10:08.000Z</time>
      </trkpt>
      <trkpt lat="44.4464" lon="2.50488">
        <ele>534</ele>
        <time>2017-12-03T09:10:18.000Z</time>
      </trkpt>
      <trkpt lat="44.44637" lon="2.50484">
        <ele>534</ele>
        <time>2017-12-03T09:10:20.000Z</time>
      </trkpt>
      <trkpt lat="44.44627" lon="2.50479">
        <ele>532</ele>
        <time>2017-12-03T09:10:24.000Z</time>
      </trkpt>
      <trkpt lat="44.44618" lon="2.50469">
        <ele>531</ele>
        <time>2017-12-03T09:10:28.000Z</time>
      </trkpt>
      <trkpt lat="44.44614" lon="2.50464">
        <ele>530</ele>
        <time>2017-12-03T09:10:30.000Z</time>
      </trkpt>
      <trkpt lat="44.4461" lon="2.50451">
        <ele>530</ele>
        <time>2017-12-03T09:10:34.000Z</time>
      </trkpt>
      <trkpt lat="44.44602" lon="2.50435">
        <ele>529</ele>
        <time>2017-12-03T09:10:39.000Z</time>
      </trkpt>
      <trkpt lat="44.446" lon="2.50432">
        <ele>529</ele>
        <time>2017-12-03T09:10:40.000Z</time>
      </trkpt>
      <trkpt lat="44.4459" lon="2.50413">
        <ele>527</ele>
        <time>2017-12-03T09:10:46.000Z</time>
      </trkpt>
      <trkpt lat="44.44585" lon="2.50394">
        <ele>530</ele>
        <time>2017-12-03T09:10:52.000Z</time>
      </trkpt>
      <trkpt lat="44.44584" lon="2.50392">
        <ele>530</ele>
        <time>2017-12-03T09:10:53.000Z</time>
      </trkpt>
      <trkpt lat="44.44579" lon="2.50387">
        <ele>516</ele>
        <time>2017-12-03T09:10:56.000Z</time>
      </trkpt>
      <trkpt lat="44.44574" lon="2.50376">
        <ele>515</ele>
        <time>2017-12-03T09:10:59.000Z</time>
      </trkpt>
      <trkpt lat="44.44569" lon="2.50363">
        <ele>516</ele>
        <time>2017-12-03T09:11:03.000Z</time>
      </trkpt>
      <trkpt lat="44.44566" lon="2.50348">
        <ele>517</ele>
        <time>2017-12-03T09:11:07.000Z</time>
      </trkpt>
      <trkpt lat="44.44564" lon="2.50335">
        <ele>518</ele>
        <time>2017-12-03T09:11:11.000Z</time>
      </trkpt>
      <trkpt lat="44.44561" lon="2.5032">
        <ele>517</ele>
        <time>2017-12-03T09:11:16.000Z</time>
      </trkpt>
      <trkpt lat="44.44557" lon="2.50308">
        <ele>514</ele>
        <time>2017-12-03T09:11:20.000Z</time>
      </trkpt>
      <trkpt lat="44.44551" lon="2.50296">
        <ele>513</ele>
        <time>2017-12-03T09:11:24.000Z</time>
      </trkpt>
      <trkpt lat="44.44549" lon="2.50291">
        <ele>512</ele>
        <time>2017-12-03T09:11:26.000Z</time>
      </trkpt>
      <trkpt lat="44.44546" lon="2.5028">
        <ele>511</ele>
        <time>2017-12-03T09:11:29.000Z</time>
      </trkpt>
      <trkpt lat="44.44546" lon="2.50267">
        <ele>511</ele>
        <time>2017-12-03T09:11:32.000Z</time>
      </trkpt>
      <trkpt lat="44.44546" lon="2.50255">
        <ele>511</ele>
        <time>2017-12-03T09:11:35.000Z</time>
      </trkpt>
      <trkpt lat="44.44546" lon="2.5024">
        <ele>504</ele>
        <time>2017-12-03T09:11:39.000Z</time>
      </trkpt>
      <trkpt lat="44.44545" lon="2.50236">
        <ele>504</ele>
        <time>2017-12-03T09:11:41.000Z</time>
      </trkpt>
      <trkpt lat="44.44545" lon="2.50232">
        <ele>504</ele>
        <time>2017-12-03T09:11:44.000Z</time>
      </trkpt>
      <trkpt lat="44.44545" lon="2.50231">
        <ele>503</ele>
        <time>2017-12-03T09:11:45.000Z</time>
      </trkpt>
      <trkpt lat="44.44545" lon="2.5023">
        <ele>503</ele>
        <time>2017-12-03T09:11:46.000Z</time>
      </trkpt>
      <trkpt lat="44.44546" lon="2.50228">
        <ele>503</ele>
        <time>2017-12-03T09:11:48.000Z</time>
      </trkpt>
      <trkpt lat="44.44546" lon="2.50227">
        <ele>503</ele>
        <time>2017-12-03T09:11:49.000Z</time>
      </trkpt>
      <trkpt lat="44.44547" lon="2.50224">
        <ele>503</ele>
        <time>2017-12-03T09:11:53.000Z</time>
      </trkpt>
      <trkpt lat="44.44548" lon="2.5022">
        <ele>503</ele>
        <time>2017-12-03T09:11:56.000Z</time>
      </trkpt>
      <trkpt lat="44.44548" lon="2.50217">
        <ele>503</ele>
        <time>2017-12-03T09:11:58.000Z</time>
      </trkpt>
      <trkpt lat="44.44548" lon="2.50215">
        <ele>503</ele>
        <time>2017-12-03T09:11:59.000Z</time>
      </trkpt>
      <trkpt lat="44.44546" lon="2.5021">
        <ele>502</ele>
        <time>2017-12-03T09:12:02.000Z</time>
      </trkpt>
      <trkpt lat="44.44546" lon="2.50208">
        <ele>502</ele>
        <time>2017-12-03T09:12:03.000Z</time>
      </trkpt>
      <trkpt lat="44.44545" lon="2.50204">
        <ele>501</ele>
        <time>2017-12-03T09:12:05.000Z</time>
      </trkpt>
      <trkpt lat="44.44545" lon="2.502">
        <ele>501</ele>
        <time>2017-12-03T09:12:07.000Z</time>
      </trkpt>
      <trkpt lat="44.44545" lon="2.50198">
        <ele>501</ele>
        <time>2017-12-03T09:12:08.000Z</time>
      </trkpt>
      <trkpt lat="44.44546" lon="2.50196">
        <ele>501</ele>
        <time>2017-12-03T09:12:09.000Z</time>
      </trkpt>
      <trkpt lat="44.44546" lon="2.50194">
        <ele>500</ele>
        <time>2017-12-03T09:12:10.000Z</time>
      </trkpt>
      <trkpt lat="44.44546" lon="2.50192">
        <ele>500</ele>
        <time>2017-12-03T09:12:11.000Z</time>
      </trkpt>
      <trkpt lat="44.44546" lon="2.50188">
        <ele>500</ele>
        <time>2017-12-03T09:12:13.000Z</time>
      </trkpt>
      <trkpt lat="44.44546" lon="2.50185">
        <ele>500</ele>
        <time>2017-12-03T09:12:15.000Z</time>
      </trkpt>
      <trkpt lat="44.44546" lon="2.50181">
        <ele>500</ele>
        <time>2017-12-03T09:12:17.000Z</time>
      </trkpt>
      <trkpt lat="44.44546" lon="2.50175">
        <ele>499</ele>
        <time>2017-12-03T09:12:20.000Z</time>
      </trkpt>
      <trkpt lat="44.44546" lon="2.50171">
        <ele>499</ele>
        <time>2017-12-03T09:12:23.000Z</time>
      </trkpt>
      <trkpt lat="44.44546" lon="2.50169">
        <ele>499</ele>
        <time>2017-12-03T09:12:25.000Z</time>
      </trkpt>
      <trkpt lat="44.44545" lon="2.50162">
        <ele>486</ele>
        <time>2017-12-03T09:12:28.000Z</time>
      </trkpt>
      <trkpt lat="44.44545" lon="2.50157">
        <ele>486</ele>
        <time>2017-12-03T09:12:30.000Z</time>
      </trkpt>
      <trkpt lat="44.44546" lon="2.50155">
        <ele>486</ele>
        <time>2017-12-03T09:12:31.000Z</time>
      </trkpt>
      <trkpt lat="44.44548" lon="2.50149">
        <ele>486</ele>
        <time>2017-12-03T09:12:34.000Z</time>
      </trkpt>
      <trkpt lat="44.4455" lon="2.50144">
        <ele>485</ele>
        <time>2017-12-03T09:12:37.000Z</time>
      </trkpt>
      <trkpt lat="44.4455" lon="2.50141">
        <ele>485</ele>
        <time>2017-12-03T09:12:40.000Z</time>
      </trkpt>
      <trkpt lat="44.44551" lon="2.50139">
        <ele>485</ele>
        <time>2017-12-03T09:12:43.000Z</time>
      </trkpt>
      <trkpt lat="44.44551" lon="2.50136">
        <ele>484</ele>
        <time>2017-12-03T09:12:46.000Z</time>
      </trkpt>
      <trkpt lat="44.44552" lon="2.50131">
        <ele>484</ele>
        <time>2017-12-03T09:12:48.000Z</time>
      </trkpt>
      <trkpt lat="44.44553" lon="2.50129">
        <ele>483</ele>
        <time>2017-12-03T09:12:49.000Z</time>
      </trkpt>
      <trkpt lat="44.44554" lon="2.50127">
        <ele>483</ele>
        <time>2017-12-03T09:12:50.000Z</time>
      </trkpt>
      <trkpt lat="44.44555" lon="2.50126">
        <ele>483</ele>
        <time>2017-12-03T09:12:51.000Z</time>
      </trkpt>
      <trkpt lat="44.44557" lon="2.50124">
        <ele>483</ele>
        <time>2017-12-03T09:12:53.000Z</time>
      </trkpt>
      <trkpt lat="44.44559" lon="2.50117">
        <ele>482</ele>
        <time>2017-12-03T09:12:57.000Z</time>
      </trkpt>
      <trkpt lat="44.44562" lon="2.50114">
        <ele>482</ele>
        <time>2017-12-03T09:12:59.000Z</time>
      </trkpt>
      <trkpt lat="44.44563" lon="2.50113">
        <ele>482</ele>
        <time>2017-12-03T09:13:00.000Z</time>
      </trkpt>
      <trkpt lat="44.44564" lon="2.50112">
        <ele>482</ele>
        <time>2017-12-03T09:13:01.000Z</time>
      </trkpt>
      <trkpt lat="44.44566" lon="2.50109">
        <ele>481</ele>
        <time>2017-12-03T09:13:03.000Z</time>
      </trkpt>
      <trkpt lat="44.44573" lon="2.50103">
        <ele>481</ele>
        <time>2017-12-03T09:13:07.000Z</time>
      </trkpt>
      <trkpt lat="44.44578" lon="2.50099">
        <ele>480</ele>
        <time>2017-12-03T09:13:10.000Z</time>
      </trkpt>
      <trkpt lat="44.4458" lon="2.50093">
        <ele>479</ele>
        <time>2017-12-03T09:13:13.000Z</time>
      </trkpt>
      <trkpt lat="44.44581" lon="2.50092">
        <ele>479</ele>
        <time>2017-12-03T09:13:14.000Z</time>
      </trkpt>
      <trkpt lat="44.44582" lon="2.50091">
        <ele>479</ele>
        <time>2017-12-03T09:13:16.000Z</time>
      </trkpt>
      <trkpt lat="44.44583" lon="2.50088">
        <ele>479</ele>
        <time>2017-12-03T09:13:19.000Z</time>
      </trkpt>
      <trkpt lat="44.44584" lon="2.50087">
        <ele>479</ele>
        <time>2017-12-03T09:13:20.000Z</time>
      </trkpt>
      <trkpt lat="44.44584" lon="2.50086">
        <ele>479</ele>
        <time>2017-12-03T09:13:22.000Z</time>
      </trkpt>
      <trkpt lat="44.4459" lon="2.50085">
        <ele>479</ele>
        <time>2017-12-03T09:13:28.000Z</time>
      </trkpt>
      <trkpt lat="44.4459" lon="2.50082">
        <ele>473</ele>
        <time>2017-12-03T09:13:31.000Z</time>
      </trkpt>
      <trkpt lat="44.44591" lon="2.50081">
        <ele>472</ele>
        <time>2017-12-03T09:13:33.000Z</time>
      </trkpt>
      <trkpt lat="44.44591" lon="2.50079">
        <ele>472</ele>
        <time>2017-12-03T09:13:34.000Z</time>
      </trkpt>
      <trkpt lat="44.44591" lon="2.50076">
        <ele>471</ele>
        <time>2017-12-03T09:13:36.000Z</time>
      </trkpt>
      <trkpt lat="44.44591" lon="2.50075">
        <ele>470</ele>
        <time>2017-12-03T09:13:37.000Z</time>
      </trkpt>
      <trkpt lat="44.4459" lon="2.50073">
        <ele>470</ele>
        <time>2017-12-03T09:13:38.000Z</time>
      </trkpt>
      <trkpt lat="44.4459" lon="2.50072">
        <ele>469</ele>
        <time>2017-12-03T09:13:39.000Z</time>
      </trkpt>
      <trkpt lat="44.4459" lon="2.50069">
        <ele>468</ele>
        <time>2017-12-03T09:13:40.000Z</time>
      </trkpt>
      <trkpt lat="44.44589" lon="2.50065">
        <ele>467</ele>
        <time>2017-12-03T09:13:42.000Z</time>
      </trkpt>
      <trkpt lat="44.4459" lon="2.50063">
        <ele>466</ele>
        <time>2017-12-03T09:13:44.000Z</time>
      </trkpt>
      <trkpt lat="44.4459" lon="2.5006">
        <ele>465</ele>
        <time>2017-12-03T09:13:46.000Z</time>
      </trkpt>
      <trkpt lat="44.4459" lon="2.50056">
        <ele>464</ele>
        <time>2017-12-03T09:13:48.000Z</time>
      </trkpt>
      <trkpt lat="44.44589" lon="2.50052">
        <ele>463</ele>
        <time>2017-12-03T09:13:50.000Z</time>
      </trkpt>
      <trkpt lat="44.44588" lon="2.50049">
        <ele>462</ele>
        <time>2017-12-03T09:13:52.000Z</time>
      </trkpt>
      <trkpt lat="44.44587" lon="2.50044">
        <ele>461</ele>
        <time>2017-12-03T09:13:54.000Z</time>
      </trkpt>
      <trkpt lat="44.44587" lon="2.50042">
        <ele>460</ele>
        <time>2017-12-03T09:13:56.000Z</time>
      </trkpt>
      <trkpt lat="44.44586" lon="2.50039">
        <ele>460</ele>
        <time>2017-12-03T09:13:58.000Z</time>
      </trkpt>
      <trkpt lat="44.44585" lon="2.50036">
        <ele>459</ele>
        <time>2017-12-03T09:14:00.000Z</time>
      </trkpt>
      <trkpt lat="44.44585" lon="2.50033">
        <ele>459</ele>
        <time>2017-12-03T09:14:02.000Z</time>
      </trkpt>
      <trkpt lat="44.44583" lon="2.50029">
        <ele>459</ele>
        <time>2017-12-03T09:14:04.000Z</time>
      </trkpt>
      <trkpt lat="44.44582" lon="2.50025">
        <ele>459</ele>
        <time>2017-12-03T09:14:06.000Z</time>
      </trkpt>
      <trkpt lat="44.44581" lon="2.50021">
        <ele>458</ele>
        <time>2017-12-03T09:14:08.000Z</time>
      </trkpt>
      <trkpt lat="44.44581" lon="2.50016">
        <ele>457</ele>
        <time>2017-12-03T09:14:10.000Z</time>
      </trkpt>
      <trkpt lat="44.44582" lon="2.50012">
        <ele>456</ele>
        <time>2017-12-03T09:14:12.000Z</time>
      </trkpt>
      <trkpt lat="44.44583" lon="2.50009">
        <ele>456</ele>
        <time>2017-12-03T09:14:14.000Z</time>
      </trkpt>
      <trkpt lat="44.44583" lon="2.50004">
        <ele>455</ele>
        <time>2017-12-03T09:14:17.000Z</time>
      </trkpt>
      <trkpt lat="44.44583" lon="2.50002">
        <ele>455</ele>
        <time>2017-12-03T09:14:18.000Z</time>
      </trkpt>
      <trkpt lat="44.44584" lon="2.49999">
        <ele>453</ele>
        <time>2017-12-03T09:14:20.000Z</time>
      </trkpt>
      <trkpt lat="44.44587" lon="2.49993">
        <ele>450</ele>
        <time>2017-12-03T09:14:23.000Z</time>
      </trkpt>
      <trkpt lat="44.44589" lon="2.49988">
        <ele>448</ele>
        <time>2017-12-03T09:14:26.000Z</time>
      </trkpt>
      <trkpt lat="44.44589" lon="2.49984">
        <ele>446</ele>
        <time>2017-12-03T09:14:29.000Z</time>
      </trkpt>
      <trkpt lat="44.44591" lon="2.4998">
        <ele>445</ele>
        <time>2017-12-03T09:14:31.000Z</time>
      </trkpt>
      <trkpt lat="44.44591" lon="2.49978">
        <ele>445</ele>
        <time>2017-12-03T09:14:32.000Z</time>
      </trkpt>
      <trkpt lat="44.44591" lon="2.49976">
        <ele>444</ele>
        <time>2017-12-03T09:14:33.000Z</time>
      </trkpt>
      <trkpt lat="44.44591" lon="2.49975">
        <ele>444</ele>
        <time>2017-12-03T09:14:35.000Z</time>
      </trkpt>
      <trkpt lat="44.4459" lon="2.49974">
        <ele>444</ele>
        <time>2017-12-03T09:14:36.000Z</time>
      </trkpt>
      <trkpt lat="44.44586" lon="2.49971">
        <ele>443</ele>
        <time>2017-12-03T09:14:42.000Z</time>
      </trkpt>
      <trkpt lat="44.44585" lon="2.49971">
        <ele>443</ele>
        <time>2017-12-03T09:14:44.000Z</time>
      </trkpt>
      <trkpt lat="44.44565" lon="2.49966">
        <ele>443</ele>
        <time>2017-12-03T09:14:56.000Z</time>
      </trkpt>
      <trkpt lat="44.44548" lon="2.49977">
        <ele>443</ele>
        <time>2017-12-03T09:15:05.000Z</time>
      </trkpt>
      <trkpt lat="44.44546" lon="2.49979">
        <ele>443</ele>
        <time>2017-12-03T09:15:06.000Z</time>
      </trkpt>
      <trkpt lat="44.44529" lon="2.49995">
        <ele>443</ele>
        <time>2017-12-03T09:15:15.000Z</time>
      </trkpt>
      <trkpt lat="44.44528" lon="2.49997">
        <ele>443</ele>
        <time>2017-12-03T09:15:16.000Z</time>
      </trkpt>
      <trkpt lat="44.44521" lon="2.50004">
        <ele>452</ele>
        <time>2017-12-03T09:15:20.000Z</time>
      </trkpt>
      <trkpt lat="44.44513" lon="2.50009">
        <ele>451</ele>
        <time>2017-12-03T09:15:24.000Z</time>
      </trkpt>
      <trkpt lat="44.44505" lon="2.50013">
        <ele>450</ele>
        <time>2017-12-03T09:15:28.000Z</time>
      </trkpt>
      <trkpt lat="44.44492" lon="2.5002">
        <ele>442</ele>
        <time>2017-12-03T09:15:35.000Z</time>
      </trkpt>
      <trkpt lat="44.44475" lon="2.50031">
        <ele>441</ele>
        <time>2017-12-03T09:15:43.000Z</time>
      </trkpt>
      <trkpt lat="44.4446" lon="2.50045">
        <ele>440</ele>
        <time>2017-12-03T09:15:50.000Z</time>
      </trkpt>
      <trkpt lat="44.44446" lon="2.50062">
        <ele>440</ele>
        <time>2017-12-03T09:15:57.000Z</time>
      </trkpt>
      <trkpt lat="44.44433" lon="2.50078">
        <ele>439</ele>
        <time>2017-12-03T09:16:03.000Z</time>
      </trkpt>
      <trkpt lat="44.44423" lon="2.50101">
        <ele>447</ele>
        <time>2017-12-03T09:16:10.000Z</time>
      </trkpt>
      <trkpt lat="44.44421" lon="2.50112">
        <ele>450</ele>
        <time>2017-12-03T09:16:13.000Z</time>
      </trkpt>
      <trkpt lat="44.44418" lon="2.50139">
        <ele>453</ele>
        <time>2017-12-03T09:16:20.000Z</time>
      </trkpt>
      <trkpt lat="44.44417" lon="2.50146">
        <ele>453</ele>
        <time>2017-12-03T09:16:22.000Z</time>
      </trkpt>
      <trkpt lat="44.44413" lon="2.50172">
        <ele>446</ele>
        <time>2017-12-03T09:16:29.000Z</time>
      </trkpt>
      <trkpt lat="44.44413" lon="2.50198">
        <ele>441</ele>
        <time>2017-12-03T09:16:37.000Z</time>
      </trkpt>
      <trkpt lat="44.44421" lon="2.50215">
        <ele>462</ele>
        <time>2017-12-03T09:16:44.000Z</time>
      </trkpt>
      <trkpt lat="44.44425" lon="2.50225">
        <ele>462</ele>
        <time>2017-12-03T09:16:48.000Z</time>
      </trkpt>
      <trkpt lat="44.4443" lon="2.50235">
        <ele>462</ele>
        <time>2017-12-03T09:16:53.000Z</time>
      </trkpt>
      <trkpt lat="44.44433" lon="2.50244">
        <ele>461</ele>
        <time>2017-12-03T09:16:57.000Z</time>
      </trkpt>
      <trkpt lat="44.44435" lon="2.50252">
        <ele>463</ele>
        <time>2017-12-03T09:17:01.000Z</time>
      </trkpt>
      <trkpt lat="44.44437" lon="2.50262">
        <ele>465</ele>
        <time>2017-12-03T09:17:05.000Z</time>
      </trkpt>
      <trkpt lat="44.44441" lon="2.50277">
        <ele>468</ele>
        <time>2017-12-03T09:17:11.000Z</time>
      </trkpt>
      <trkpt lat="44.44443" lon="2.50287">
        <ele>469</ele>
        <time>2017-12-03T09:17:15.000Z</time>
      </trkpt>
      <trkpt lat="44.44445" lon="2.503">
        <ele>470</ele>
        <time>2017-12-03T09:17:20.000Z</time>
      </trkpt>
      <trkpt lat="44.44449" lon="2.50313">
        <ele>470</ele>
        <time>2017-12-03T09:17:25.000Z</time>
      </trkpt>
      <trkpt lat="44.4445" lon="2.50316">
        <ele>471</ele>
        <time>2017-12-03T09:17:26.000Z</time>
      </trkpt>
      <trkpt lat="44.44452" lon="2.50322">
        <ele>471</ele>
        <time>2017-12-03T09:17:29.000Z</time>
      </trkpt>
      <trkpt lat="44.44452" lon="2.50327">
        <ele>471</ele>
        <time>2017-12-03T09:17:31.000Z</time>
      </trkpt>
      <trkpt lat="44.44453" lon="2.50336">
        <ele>470</ele>
        <time>2017-12-03T09:17:35.000Z</time>
      </trkpt>
      <trkpt lat="44.44454" lon="2.50344">
        <ele>470</ele>
        <time>2017-12-03T09:17:38.000Z</time>
      </trkpt>
      <trkpt lat="44.44454" lon="2.50354">
        <ele>470</ele>
        <time>2017-12-03T09:17:42.000Z</time>
      </trkpt>
      <trkpt lat="44.44456" lon="2.50362">
        <ele>470</ele>
        <time>2017-12-03T09:17:46.000Z</time>
      </trkpt>
      <trkpt lat="44.44458" lon="2.5037">
        <ele>471</ele>
        <time>2017-12-03T09:17:50.000Z</time>
      </trkpt>
      <trkpt lat="44.4446" lon="2.50376">
        <ele>471</ele>
        <time>2017-12-03T09:17:53.000Z</time>
      </trkpt>
      <trkpt lat="44.44462" lon="2.50384">
        <ele>471</ele>
        <time>2017-12-03T09:17:57.000Z</time>
      </trkpt>
      <trkpt lat="44.44465" lon="2.50391">
        <ele>472</ele>
        <time>2017-12-03T09:18:01.000Z</time>
      </trkpt>
      <trkpt lat="44.44472" lon="2.50401">
        <ele>473</ele>
        <time>2017-12-03T09:18:06.000Z</time>
      </trkpt>
      <trkpt lat="44.44476" lon="2.5041">
        <ele>475</ele>
        <time>2017-12-03T09:18:11.000Z</time>
      </trkpt>
      <trkpt lat="44.44479" lon="2.50422">
        <ele>473</ele>
        <time>2017-12-03T09:18:16.000Z</time>
      </trkpt>
      <trkpt lat="44.44484" lon="2.50443">
        <ele>470</ele>
        <time>2017-12-03T09:18:25.000Z</time>
      </trkpt>
      <trkpt lat="44.44493" lon="2.50465">
        <ele>470</ele>
        <time>2017-12-03T09:18:35.000Z</time>
      </trkpt>
      <trkpt lat="44.44505" lon="2.50485">
        <ele>487</ele>
        <time>2017-12-03T09:18:44.000Z</time>
      </trkpt>
      <trkpt lat="44.44514" lon="2.5051">
        <ele>484</ele>
        <time>2017-12-03T09:18:52.000Z</time>
      </trkpt>
      <trkpt lat="44.44516" lon="2.50514">
        <ele>486</ele>
        <time>2017-12-03T09:18:54.000Z</time>
      </trkpt>
      <trkpt lat="44.44522" lon="2.5053">
        <ele>488</ele>
        <time>2017-12-03T09:19:00.000Z</time>
      </trkpt>
      <trkpt lat="44.44526" lon="2.50537">
        <ele>489</ele>
        <time>2017-12-03T09:19:04.000Z</time>
      </trkpt>
      <trkpt lat="44.4453" lon="2.50545">
        <ele>489</ele>
        <time>2017-12-03T09:19:08.000Z</time>
      </trkpt>
      <trkpt lat="44.44534" lon="2.50554">
        <ele>490</ele>
        <time>2017-12-03T09:19:13.000Z</time>
      </trkpt>
      <trkpt lat="44.44537" lon="2.5056">
        <ele>490</ele>
        <time>2017-12-03T09:19:16.000Z</time>
      </trkpt>
      <trkpt lat="44.4454" lon="2.50571">
        <ele>490</ele>
        <time>2017-12-03T09:19:21.000Z</time>
      </trkpt>
      <trkpt lat="44.44542" lon="2.50581">
        <ele>491</ele>
        <time>2017-12-03T09:19:26.000Z</time>
      </trkpt>
      <trkpt lat="44.44543" lon="2.50583">
        <ele>491</ele>
        <time>2017-12-03T09:19:27.000Z</time>
      </trkpt>
      <trkpt lat="44.44546" lon="2.5059">
        <ele>487</ele>
        <time>2017-12-03T09:19:31.000Z</time>
      </trkpt>
      <trkpt lat="44.44549" lon="2.50609">
        <ele>487</ele>
        <time>2017-12-03T09:19:39.000Z</time>
      </trkpt>
      <trkpt lat="44.44557" lon="2.50632">
        <ele>487</ele>
        <time>2017-12-03T09:19:49.000Z</time>
      </trkpt>
      <trkpt lat="44.44559" lon="2.50636">
        <ele>487</ele>
        <time>2017-12-03T09:19:51.000Z</time>
      </trkpt>
      <trkpt lat="44.44564" lon="2.50657">
        <ele>490</ele>
        <time>2017-12-03T09:19:59.000Z</time>
      </trkpt>
      <trkpt lat="44.44568" lon="2.50683">
        <ele>486</ele>
        <time>2017-12-03T09:20:08.000Z</time>
      </trkpt>
      <trkpt lat="44.44571" lon="2.5071">
        <ele>483</ele>
        <time>2017-12-03T09:20:16.000Z</time>
      </trkpt>
      <trkpt lat="44.44576" lon="2.50737">
        <ele>485</ele>
        <time>2017-12-03T09:20:24.000Z</time>
      </trkpt>
      <trkpt lat="44.44583" lon="2.50754">
        <ele>488</ele>
        <time>2017-12-03T09:20:31.000Z</time>
      </trkpt>
      <trkpt lat="44.44584" lon="2.50758">
        <ele>496</ele>
        <time>2017-12-03T09:20:33.000Z</time>
      </trkpt>
      <trkpt lat="44.44589" lon="2.50767">
        <ele>500</ele>
        <time>2017-12-03T09:20:37.000Z</time>
      </trkpt>
      <trkpt lat="44.44591" lon="2.50774">
        <ele>502</ele>
        <time>2017-12-03T09:20:40.000Z</time>
      </trkpt>
      <trkpt lat="44.44591" lon="2.50777">
        <ele>503</ele>
        <time>2017-12-03T09:20:41.000Z</time>
      </trkpt>
      <trkpt lat="44.44594" lon="2.50792">
        <ele>504</ele>
        <time>2017-12-03T09:20:47.000Z</time>
      </trkpt>
      <trkpt lat="44.44595" lon="2.50794">
        <ele>505</ele>
        <time>2017-12-03T09:20:48.000Z</time>
      </trkpt>
      <trkpt lat="44.44595" lon="2.50798">
        <ele>504</ele>
        <time>2017-12-03T09:20:50.000Z</time>
      </trkpt>
      <trkpt lat="44.44596" lon="2.50807">
        <ele>504</ele>
        <time>2017-12-03T09:20:54.000Z</time>
      </trkpt>
      <trkpt lat="44.44597" lon="2.50822">
        <ele>501</ele>
        <time>2017-12-03T09:21:00.000Z</time>
      </trkpt>
      <trkpt lat="44.44597" lon="2.50826">
        <ele>500</ele>
        <time>2017-12-03T09:21:02.000Z</time>
      </trkpt>
      <trkpt lat="44.44599" lon="2.50836">
        <ele>501</ele>
        <time>2017-12-03T09:21:06.000Z</time>
      </trkpt>
      <trkpt lat="44.446" lon="2.50845">
        <ele>503</ele>
        <time>2017-12-03T09:21:10.000Z</time>
      </trkpt>
      <trkpt lat="44.44601" lon="2.50857">
        <ele>506</ele>
        <time>2017-12-03T09:21:16.000Z</time>
      </trkpt>
      <trkpt lat="44.44603" lon="2.50865">
        <ele>508</ele>
        <time>2017-12-03T09:21:20.000Z</time>
      </trkpt>
      <trkpt lat="44.44604" lon="2.50872">
        <ele>509</ele>
        <time>2017-12-03T09:21:23.000Z</time>
      </trkpt>
      <trkpt lat="44.44605" lon="2.50884">
        <ele>509</ele>
        <time>2017-12-03T09:21:28.000Z</time>
      </trkpt>
      <trkpt lat="44.44607" lon="2.50898">
        <ele>509</ele>
        <time>2017-12-03T09:21:35.000Z</time>
      </trkpt>
      <trkpt lat="44.4461" lon="2.50907">
        <ele>509</ele>
        <time>2017-12-03T09:21:40.000Z</time>
      </trkpt>
      <trkpt lat="44.44611" lon="2.50917">
        <ele>515</ele>
        <time>2017-12-03T09:21:45.000Z</time>
      </trkpt>
      <trkpt lat="44.44612" lon="2.50927">
        <ele>516</ele>
        <time>2017-12-03T09:21:51.000Z</time>
      </trkpt>
      <trkpt lat="44.44612" lon="2.50929">
        <ele>516</ele>
        <time>2017-12-03T09:21:52.000Z</time>
      </trkpt>
      <trkpt lat="44.44611" lon="2.50935">
        <ele>517</ele>
        <time>2017-12-03T09:21:55.000Z</time>
      </trkpt>
      <trkpt lat="44.4461" lon="2.50941">
        <ele>518</ele>
        <time>2017-12-03T09:21:58.000Z</time>
      </trkpt>
      <trkpt lat="44.44608" lon="2.50946">
        <ele>518</ele>
        <time>2017-12-03T09:22:01.000Z</time>
      </trkpt>
      <trkpt lat="44.44607" lon="2.50948">
        <ele>518</ele>
        <time>2017-12-03T09:22:02.000Z</time>
      </trkpt>
      <trkpt lat="44.44605" lon="2.50958">
        <ele>519</ele>
        <time>2017-12-03T09:22:08.000Z</time>
      </trkpt>
      <trkpt lat="44.44601" lon="2.50967">
        <ele>520</ele>
        <time>2017-12-03T09:22:14.000Z</time>
      </trkpt>
      <trkpt lat="44.44597" lon="2.50987">
        <ele>519</ele>
        <time>2017-12-03T09:22:25.000Z</time>
      </trkpt>
      <trkpt lat="44.44593" lon="2.50999">
        <ele>518</ele>
        <time>2017-12-03T09:22:31.000Z</time>
      </trkpt>
      <trkpt lat="44.44592" lon="2.51001">
        <ele>523</ele>
        <time>2017-12-03T09:22:32.000Z</time>
      </trkpt>
      <trkpt lat="44.44589" lon="2.51008">
        <ele>524</ele>
        <time>2017-12-03T09:22:37.000Z</time>
      </trkpt>
      <trkpt lat="44.44589" lon="2.5101">
        <ele>524</ele>
        <time>2017-12-03T09:22:38.000Z</time>
      </trkpt>
      <trkpt lat="44.44586" lon="2.5102">
        <ele>528</ele>
        <time>2017-12-03T09:22:43.000Z</time>
      </trkpt>
      <trkpt lat="44.44581" lon="2.51029">
        <ele>524</ele>
        <time>2017-12-03T09:22:48.000Z</time>
      </trkpt>
      <trkpt lat="44.4458" lon="2.51031">
        <ele>524</ele>
        <time>2017-12-03T09:22:50.000Z</time>
      </trkpt>
      <trkpt lat="44.44578" lon="2.51034">
        <ele>525</ele>
        <time>2017-12-03T09:22:52.000Z</time>
      </trkpt>
      <trkpt lat="44.44572" lon="2.51038">
        <ele>526</ele>
        <time>2017-12-03T09:22:56.000Z</time>
      </trkpt>
      <trkpt lat="44.44569" lon="2.5104">
        <ele>526</ele>
        <time>2017-12-03T09:22:59.000Z</time>
      </trkpt>
      <trkpt lat="44.44564" lon="2.51045">
        <ele>527</ele>
        <time>2017-12-03T09:23:04.000Z</time>
      </trkpt>
      <trkpt lat="44.4456" lon="2.51051">
        <ele>528</ele>
        <time>2017-12-03T09:23:09.000Z</time>
      </trkpt>
      <trkpt lat="44.4456" lon="2.51051">
        <ele>528</ele>
        <time>2017-12-03T09:23:11.000Z</time>
      </trkpt>
      <trkpt lat="44.44561" lon="2.51051">
        <ele>528</ele>
        <time>2017-12-03T09:23:13.000Z</time>
      </trkpt>
      <trkpt lat="44.44553" lon="2.51045">
        <ele>527</ele>
        <time>2017-12-03T09:24:24.000Z</time>
      </trkpt>
      <trkpt lat="44.44549" lon="2.51044">
        <ele>526</ele>
        <time>2017-12-03T09:24:26.000Z</time>
      </trkpt>
      <trkpt lat="44.44542" lon="2.51041">
        <ele>526</ele>
        <time>2017-12-03T09:24:30.000Z</time>
      </trkpt>
      <trkpt lat="44.44535" lon="2.51039">
        <ele>525</ele>
        <time>2017-12-03T09:24:34.000Z</time>
      </trkpt>
      <trkpt lat="44.44524" lon="2.51037">
        <ele>524</ele>
        <time>2017-12-03T09:24:40.000Z</time>
      </trkpt>
      <trkpt lat="44.44505" lon="2.5103">
        <ele>522</ele>
        <time>2017-12-03T09:24:48.000Z</time>
      </trkpt>
      <trkpt lat="44.44485" lon="2.51023">
        <ele>524</ele>
        <time>2017-12-03T09:24:57.000Z</time>
      </trkpt>
      <trkpt lat="44.44466" lon="2.51015">
        <ele>526</ele>
        <time>2017-12-03T09:25:06.000Z</time>
      </trkpt>
      <trkpt lat="44.44454" lon="2.51006">
        <ele>526</ele>
        <time>2017-12-03T09:25:12.000Z</time>
      </trkpt>
      <trkpt lat="44.44437" lon="2.50994">
        <ele>516</ele>
        <time>2017-12-03T09:25:21.000Z</time>
      </trkpt>
      <trkpt lat="44.44424" lon="2.50975">
        <ele>514</ele>
        <time>2017-12-03T09:25:28.000Z</time>
      </trkpt>
      <trkpt lat="44.44415" lon="2.50966">
        <ele>523</ele>
        <time>2017-12-03T09:25:32.000Z</time>
      </trkpt>
      <trkpt lat="44.44404" lon="2.50953">
        <ele>521</ele>
        <time>2017-12-03T09:25:37.000Z</time>
      </trkpt>
      <trkpt lat="44.44396" lon="2.50938">
        <ele>518</ele>
        <time>2017-12-03T09:25:42.000Z</time>
      </trkpt>
      <trkpt lat="44.44394" lon="2.50933">
        <ele>518</ele>
        <time>2017-12-03T09:25:44.000Z</time>
      </trkpt>
      <trkpt lat="44.44391" lon="2.50927">
        <ele>517</ele>
        <time>2017-12-03T09:25:46.000Z</time>
      </trkpt>
      <trkpt lat="44.44388" lon="2.50922">
        <ele>518</ele>
        <time>2017-12-03T09:25:48.000Z</time>
      </trkpt>
      <trkpt lat="44.44384" lon="2.50917">
        <ele>504</ele>
        <time>2017-12-03T09:25:50.000Z</time>
      </trkpt>
      <trkpt lat="44.44379" lon="2.50906">
        <ele>504</ele>
        <time>2017-12-03T09:25:53.000Z</time>
      </trkpt>
      <trkpt lat="44.44373" lon="2.50897">
        <ele>504</ele>
        <time>2017-12-03T09:25:56.000Z</time>
      </trkpt>
      <trkpt lat="44.44368" lon="2.50892">
        <ele>504</ele>
        <time>2017-12-03T09:25:58.000Z</time>
      </trkpt>
      <trkpt lat="44.44363" lon="2.50884">
        <ele>504</ele>
        <time>2017-12-03T09:26:01.000Z</time>
      </trkpt>
      <trkpt lat="44.44359" lon="2.50876">
        <ele>503</ele>
        <time>2017-12-03T09:26:04.000Z</time>
      </trkpt>
      <trkpt lat="44.44356" lon="2.5087">
        <ele>502</ele>
        <time>2017-12-03T09:26:06.000Z</time>
      </trkpt>
      <trkpt lat="44.4435" lon="2.50863">
        <ele>502</ele>
        <time>2017-12-03T09:26:09.000Z</time>
      </trkpt>
      <trkpt lat="44.44345" lon="2.50858">
        <ele>502</ele>
        <time>2017-12-03T09:26:12.000Z</time>
      </trkpt>
      <trkpt lat="44.44337" lon="2.50847">
        <ele>501</ele>
        <time>2017-12-03T09:26:16.000Z</time>
      </trkpt>
      <trkpt lat="44.44333" lon="2.50837">
        <ele>500</ele>
        <time>2017-12-03T09:26:19.000Z</time>
      </trkpt>
      <trkpt lat="44.44326" lon="2.50825">
        <ele>500</ele>
        <time>2017-12-03T09:26:23.000Z</time>
      </trkpt>
      <trkpt lat="44.44321" lon="2.50817">
        <ele>500</ele>
        <time>2017-12-03T09:26:26.000Z</time>
      </trkpt>
      <trkpt lat="44.44314" lon="2.5081">
        <ele>500</ele>
        <time>2017-12-03T09:26:29.000Z</time>
      </trkpt>
      <trkpt lat="44.443" lon="2.50792">
        <ele>500</ele>
        <time>2017-12-03T09:26:36.000Z</time>
      </trkpt>
      <trkpt lat="44.44295" lon="2.50787">
        <ele>500</ele>
        <time>2017-12-03T09:26:39.000Z</time>
      </trkpt>
      <trkpt lat="44.44286" lon="2.50776">
        <ele>499</ele>
        <time>2017-12-03T09:26:44.000Z</time>
      </trkpt>
      <trkpt lat="44.44282" lon="2.50771">
        <ele>499</ele>
        <time>2017-12-03T09:26:47.000Z</time>
      </trkpt>
      <trkpt lat="44.44267" lon="2.50753">
        <ele>499</ele>
        <time>2017-12-03T09:26:58.000Z</time>
      </trkpt>
      <trkpt lat="44.44253" lon="2.50736">
        <ele>490</ele>
        <time>2017-12-03T09:27:05.000Z</time>
      </trkpt>
      <trkpt lat="44.44239" lon="2.5072">
        <ele>497</ele>
        <time>2017-12-03T09:27:12.000Z</time>
      </trkpt>
      <trkpt lat="44.44224" lon="2.50704">
        <ele>496</ele>
        <time>2017-12-03T09:27:21.000Z</time>
      </trkpt>
      <trkpt lat="44.4422" lon="2.50702">
        <ele>496</ele>
        <time>2017-12-03T09:27:23.000Z</time>
      </trkpt>
      <trkpt lat="44.44205" lon="2.50687">
        <ele>496</ele>
        <time>2017-12-03T09:27:31.000Z</time>
      </trkpt>
      <trkpt lat="44.44189" lon="2.50675">
        <ele>497</ele>
        <time>2017-12-03T09:27:39.000Z</time>
      </trkpt>
      <trkpt lat="44.44177" lon="2.50665">
        <ele>488</ele>
        <time>2017-12-03T09:27:45.000Z</time>
      </trkpt>
      <trkpt lat="44.44162" lon="2.50656">
        <ele>492</ele>
        <time>2017-12-03T09:27:53.000Z</time>
      </trkpt>
      <trkpt lat="44.44143" lon="2.50655">
        <ele>491</ele>
        <time>2017-12-03T09:28:02.000Z</time>
      </trkpt>
      <trkpt lat="44.44134" lon="2.50655">
        <ele>491</ele>
        <time>2017-12-03T09:28:06.000Z</time>
      </trkpt>
      <trkpt lat="44.4412" lon="2.50648">
        <ele>491</ele>
        <time>2017-12-03T09:28:13.000Z</time>
      </trkpt>
      <trkpt lat="44.44118" lon="2.50646">
        <ele>491</ele>
        <time>2017-12-03T09:28:14.000Z</time>
      </trkpt>
      <trkpt lat="44.44107" lon="2.50625">
        <ele>488</ele>
        <time>2017-12-03T09:28:23.000Z</time>
      </trkpt>
      <trkpt lat="44.44106" lon="2.50623">
        <ele>488</ele>
        <time>2017-12-03T09:28:24.000Z</time>
      </trkpt>
      <trkpt lat="44.44095" lon="2.506">
        <ele>485</ele>
        <time>2017-12-03T09:28:34.000Z</time>
      </trkpt>
      <trkpt lat="44.44085" lon="2.50586">
        <ele>483</ele>
        <time>2017-12-03T09:28:41.000Z</time>
      </trkpt>
      <trkpt lat="44.44083" lon="2.50583">
        <ele>482</ele>
        <time>2017-12-03T09:28:43.000Z</time>
      </trkpt>
      <trkpt lat="44.44077" lon="2.50577">
        <ele>474</ele>
        <time>2017-12-03T09:28:48.000Z</time>
      </trkpt>
      <trkpt lat="44.44074" lon="2.50577">
        <ele>473</ele>
        <time>2017-12-03T09:28:51.000Z</time>
      </trkpt>
      <trkpt lat="44.44073" lon="2.50577">
        <ele>472</ele>
        <time>2017-12-03T09:28:53.000Z</time>
      </trkpt>
      <trkpt lat="44.44062" lon="2.50583">
        <ele>479</ele>
        <time>2017-12-03T09:29:06.000Z</time>
      </trkpt>
      <trkpt lat="44.4406" lon="2.50584">
        <ele>479</ele>
        <time>2017-12-03T09:29:08.000Z</time>
      </trkpt>
      <trkpt lat="44.44053" lon="2.50587">
        <ele>478</ele>
        <time>2017-12-03T09:29:12.000Z</time>
      </trkpt>
      <trkpt lat="44.44047" lon="2.5059">
        <ele>477</ele>
        <time>2017-12-03T09:29:15.000Z</time>
      </trkpt>
      <trkpt lat="44.44044" lon="2.50596">
        <ele>476</ele>
        <time>2017-12-03T09:29:18.000Z</time>
      </trkpt>
      <trkpt lat="44.44037" lon="2.50609">
        <ele>476</ele>
        <time>2017-12-03T09:29:25.000Z</time>
      </trkpt>
      <trkpt lat="44.44034" lon="2.50613">
        <ele>476</ele>
        <time>2017-12-03T09:29:28.000Z</time>
      </trkpt>
      <trkpt lat="44.44028" lon="2.50619">
        <ele>476</ele>
        <time>2017-12-03T09:29:32.000Z</time>
      </trkpt>
      <trkpt lat="44.44023" lon="2.50647">
        <ele>477</ele>
        <time>2017-12-03T09:29:41.000Z</time>
      </trkpt>
      <trkpt lat="44.44023" lon="2.5065">
        <ele>477</ele>
        <time>2017-12-03T09:29:42.000Z</time>
      </trkpt>
      <trkpt lat="44.44016" lon="2.50661">
        <ele>476</ele>
        <time>2017-12-03T09:29:47.000Z</time>
      </trkpt>
      <trkpt lat="44.4401" lon="2.50688">
        <ele>485</ele>
        <time>2017-12-03T09:29:55.000Z</time>
      </trkpt>
      <trkpt lat="44.44008" lon="2.50694">
        <ele>486</ele>
        <time>2017-12-03T09:29:57.000Z</time>
      </trkpt>
      <trkpt lat="44.44003" lon="2.50708">
        <ele>488</ele>
        <time>2017-12-03T09:30:02.000Z</time>
      </trkpt>
      <trkpt lat="44.44001" lon="2.50715">
        <ele>488</ele>
        <time>2017-12-03T09:30:05.000Z</time>
      </trkpt>
      <trkpt lat="44.43998" lon="2.50727">
        <ele>468</ele>
        <time>2017-12-03T09:30:10.000Z</time>
      </trkpt>
      <trkpt lat="44.43997" lon="2.50729">
        <ele>468</ele>
        <time>2017-12-03T09:30:11.000Z</time>
      </trkpt>
      <trkpt lat="44.43996" lon="2.50733">
        <ele>470</ele>
        <time>2017-12-03T09:30:13.000Z</time>
      </trkpt>
      <trkpt lat="44.43993" lon="2.50737">
        <ele>471</ele>
        <time>2017-12-03T09:30:15.000Z</time>
      </trkpt>
      <trkpt lat="44.43991" lon="2.5074">
        <ele>472</ele>
        <time>2017-12-03T09:30:17.000Z</time>
      </trkpt>
      <trkpt lat="44.43989" lon="2.50746">
        <ele>472</ele>
        <time>2017-12-03T09:30:20.000Z</time>
      </trkpt>
      <trkpt lat="44.43989" lon="2.5075">
        <ele>473</ele>
        <time>2017-12-03T09:30:22.000Z</time>
      </trkpt>
      <trkpt lat="44.43986" lon="2.50755">
        <ele>474</ele>
        <time>2017-12-03T09:30:25.000Z</time>
      </trkpt>
      <trkpt lat="44.43984" lon="2.50756">
        <ele>474</ele>
        <time>2017-12-03T09:30:26.000Z</time>
      </trkpt>
      <trkpt lat="44.43983" lon="2.50757">
        <ele>473</ele>
        <time>2017-12-03T09:30:27.000Z</time>
      </trkpt>
      <trkpt lat="44.43983" lon="2.50757">
        <ele>473</ele>
        <time>2017-12-03T09:30:28.000Z</time>
      </trkpt>
      <trkpt lat="44.43983" lon="2.50757">
        <ele>473</ele>
        <time>2017-12-03T09:30:29.000Z</time>
      </trkpt>
      <trkpt lat="44.43982" lon="2.50759">
        <ele>472</ele>
        <time>2017-12-03T09:30:32.000Z</time>
      </trkpt>
      <trkpt lat="44.43982" lon="2.50759">
        <ele>472</ele>
        <time>2017-12-03T09:30:33.000Z</time>
      </trkpt>
      <trkpt lat="44.4398" lon="2.50762">
        <ele>471</ele>
        <time>2017-12-03T09:30:38.000Z</time>
      </trkpt>
      <trkpt lat="44.43979" lon="2.50763">
        <ele>471</ele>
        <time>2017-12-03T09:30:39.000Z</time>
      </trkpt>
      <trkpt lat="44.43977" lon="2.50763">
        <ele>470</ele>
        <time>2017-12-03T09:30:41.000Z</time>
      </trkpt>
      <trkpt lat="44.43976" lon="2.50766">
        <ele>470</ele>
        <time>2017-12-03T09:30:43.000Z</time>
      </trkpt>
      <trkpt lat="44.43973" lon="2.50771">
        <ele>468</ele>
        <time>2017-12-03T09:30:47.000Z</time>
      </trkpt>
      <trkpt lat="44.43972" lon="2.50772">
        <ele>468</ele>
        <time>2017-12-03T09:30:48.000Z</time>
      </trkpt>
      <trkpt lat="44.4397" lon="2.50775">
        <ele>468</ele>
        <time>2017-12-03T09:30:50.000Z</time>
      </trkpt>
      <trkpt lat="44.43969" lon="2.50778">
        <ele>467</ele>
        <time>2017-12-03T09:30:52.000Z</time>
      </trkpt>
      <trkpt lat="44.43967" lon="2.5078">
        <ele>467</ele>
        <time>2017-12-03T09:30:54.000Z</time>
      </trkpt>
      <trkpt lat="44.43965" lon="2.50783">
        <ele>466</ele>
        <time>2017-12-03T09:30:57.000Z</time>
      </trkpt>
      <trkpt lat="44.43963" lon="2.50785">
        <ele>466</ele>
        <time>2017-12-03T09:30:59.000Z</time>
      </trkpt>
      <trkpt lat="44.43962" lon="2.50786">
        <ele>466</ele>
        <time>2017-12-03T09:31:00.000Z</time>
      </trkpt>
      <trkpt lat="44.43961" lon="2.50787">
        <ele>465</ele>
        <time>2017-12-03T09:31:01.000Z</time>
      </trkpt>
      <trkpt lat="44.43959" lon="2.50791">
        <ele>465</ele>
        <time>2017-12-03T09:31:03.000Z</time>
      </trkpt>
      <trkpt lat="44.43957" lon="2.50798">
        <ele>465</ele>
        <time>2017-12-03T09:31:06.000Z</time>
      </trkpt>
      <trkpt lat="44.43952" lon="2.50804">
        <ele>464</ele>
        <time>2017-12-03T09:31:09.000Z</time>
      </trkpt>
      <trkpt lat="44.43949" lon="2.50809">
        <ele>463</ele>
        <time>2017-12-03T09:31:11.000Z</time>
      </trkpt>
      <trkpt lat="44.43948" lon="2.50813">
        <ele>463</ele>
        <time>2017-12-03T09:31:13.000Z</time>
      </trkpt>
      <trkpt lat="44.43945" lon="2.50817">
        <ele>462</ele>
        <time>2017-12-03T09:31:15.000Z</time>
      </trkpt>
      <trkpt lat="44.43944" lon="2.50821">
        <ele>462</ele>
        <time>2017-12-03T09:31:17.000Z</time>
      </trkpt>
      <trkpt lat="44.43944" lon="2.50827">
        <ele>461</ele>
        <time>2017-12-03T09:31:20.000Z</time>
      </trkpt>
      <trkpt lat="44.43943" lon="2.50828">
        <ele>461</ele>
        <time>2017-12-03T09:31:21.000Z</time>
      </trkpt>
      <trkpt lat="44.43943" lon="2.50828">
        <ele>461</ele>
        <time>2017-12-03T09:31:24.000Z</time>
      </trkpt>
      <trkpt lat="44.43943" lon="2.50828">
        <ele>461</ele>
        <time>2017-12-03T09:31:25.000Z</time>
      </trkpt>
      <trkpt lat="44.43939" lon="2.50831">
        <ele>459</ele>
        <time>2017-12-03T09:31:49.000Z</time>
      </trkpt>
      <trkpt lat="44.43937" lon="2.50832">
        <ele>458</ele>
        <time>2017-12-03T09:31:50.000Z</time>
      </trkpt>
      <trkpt lat="44.43934" lon="2.50834">
        <ele>462</ele>
        <time>2017-12-03T09:31:52.000Z</time>
      </trkpt>
      <trkpt lat="44.4393" lon="2.50836">
        <ele>460</ele>
        <time>2017-12-03T09:31:54.000Z</time>
      </trkpt>
      <trkpt lat="44.43925" lon="2.5084">
        <ele>458</ele>
        <time>2017-12-03T09:31:57.000Z</time>
      </trkpt>
      <trkpt lat="44.4392" lon="2.50842">
        <ele>457</ele>
        <time>2017-12-03T09:32:00.000Z</time>
      </trkpt>
      <trkpt lat="44.43916" lon="2.50844">
        <ele>444</ele>
        <time>2017-12-03T09:32:03.000Z</time>
      </trkpt>
      <trkpt lat="44.43911" lon="2.50842">
        <ele>444</ele>
        <time>2017-12-03T09:32:06.000Z</time>
      </trkpt>
      <trkpt lat="44.43906" lon="2.5084">
        <ele>443</ele>
        <time>2017-12-03T09:32:08.000Z</time>
      </trkpt>
      <trkpt lat="44.43902" lon="2.50839">
        <ele>442</ele>
        <time>2017-12-03T09:32:10.000Z</time>
      </trkpt>
      <trkpt lat="44.43899" lon="2.50839">
        <ele>441</ele>
        <time>2017-12-03T09:32:12.000Z</time>
      </trkpt>
      <trkpt lat="44.43896" lon="2.50842">
        <ele>440</ele>
        <time>2017-12-03T09:32:14.000Z</time>
      </trkpt>
      <trkpt lat="44.43889" lon="2.50859">
        <ele>438</ele>
        <time>2017-12-03T09:32:23.000Z</time>
      </trkpt>
      <trkpt lat="44.43879" lon="2.50875">
        <ele>437</ele>
        <time>2017-12-03T09:32:31.000Z</time>
      </trkpt>
      <trkpt lat="44.43871" lon="2.50899">
        <ele>436</ele>
        <time>2017-12-03T09:32:38.000Z</time>
      </trkpt>
      <trkpt lat="44.43864" lon="2.50923">
        <ele>440</ele>
        <time>2017-12-03T09:32:47.000Z</time>
      </trkpt>
      <trkpt lat="44.43863" lon="2.50925">
        <ele>440</ele>
        <time>2017-12-03T09:32:48.000Z</time>
      </trkpt>
      <trkpt lat="44.43858" lon="2.5095">
        <ele>441</ele>
        <time>2017-12-03T09:32:55.000Z</time>
      </trkpt>
      <trkpt lat="44.4386" lon="2.50976">
        <ele>443</ele>
        <time>2017-12-03T09:33:03.000Z</time>
      </trkpt>
      <trkpt lat="44.43863" lon="2.51002">
        <ele>447</ele>
        <time>2017-12-03T09:33:11.000Z</time>
      </trkpt>
      <trkpt lat="44.43854" lon="2.51023">
        <ele>446</ele>
        <time>2017-12-03T09:33:18.000Z</time>
      </trkpt>
      <trkpt lat="44.43851" lon="2.51029">
        <ele>446</ele>
        <time>2017-12-03T09:33:20.000Z</time>
      </trkpt>
      <trkpt lat="44.43844" lon="2.51034">
        <ele>445</ele>
        <time>2017-12-03T09:33:23.000Z</time>
      </trkpt>
      <trkpt lat="44.43839" lon="2.51037">
        <ele>445</ele>
        <time>2017-12-03T09:33:25.000Z</time>
      </trkpt>
      <trkpt lat="44.43838" lon="2.51038">
        <ele>445</ele>
        <time>2017-12-03T09:33:26.000Z</time>
      </trkpt>
      <trkpt lat="44.43838" lon="2.51052">
        <ele>445</ele>
        <time>2017-12-03T09:33:30.000Z</time>
      </trkpt>
      <trkpt lat="44.43841" lon="2.51066">
        <ele>443</ele>
        <time>2017-12-03T09:33:33.000Z</time>
      </trkpt>
      <trkpt lat="44.43847" lon="2.51092">
        <ele>445</ele>
        <time>2017-12-03T09:33:41.000Z</time>
      </trkpt>
      <trkpt lat="44.43846" lon="2.51095">
        <ele>445</ele>
        <time>2017-12-03T09:33:42.000Z</time>
      </trkpt>
      <trkpt lat="44.4384" lon="2.51107">
        <ele>447</ele>
        <time>2017-12-03T09:33:46.000Z</time>
      </trkpt>
      <trkpt lat="44.43834" lon="2.51123">
        <ele>448</ele>
        <time>2017-12-03T09:33:51.000Z</time>
      </trkpt>
      <trkpt lat="44.43825" lon="2.51146">
        <ele>426</ele>
        <time>2017-12-03T09:33:58.000Z</time>
      </trkpt>
      <trkpt lat="44.43825" lon="2.51173">
        <ele>432</ele>
        <time>2017-12-03T09:34:05.000Z</time>
      </trkpt>
      <trkpt lat="44.43828" lon="2.51198">
        <ele>430</ele>
        <time>2017-12-03T09:34:12.000Z</time>
      </trkpt>
      <trkpt lat="44.43826" lon="2.51226">
        <ele>433</ele>
        <time>2017-12-03T09:34:20.000Z</time>
      </trkpt>
      <trkpt lat="44.4382" lon="2.51252">
        <ele>440</ele>
        <time>2017-12-03T09:34:27.000Z</time>
      </trkpt>
      <trkpt lat="44.4382" lon="2.51255">
        <ele>440</ele>
        <time>2017-12-03T09:34:28.000Z</time>
      </trkpt>
      <trkpt lat="44.43816" lon="2.51268">
        <ele>438</ele>
        <time>2017-12-03T09:34:32.000Z</time>
      </trkpt>
      <trkpt lat="44.43812" lon="2.51285">
        <ele>438</ele>
        <time>2017-12-03T09:34:37.000Z</time>
      </trkpt>
      <trkpt lat="44.43806" lon="2.51312">
        <ele>439</ele>
        <time>2017-12-03T09:34:44.000Z</time>
      </trkpt>
      <trkpt lat="44.43799" lon="2.51323">
        <ele>438</ele>
        <time>2017-12-03T09:34:48.000Z</time>
      </trkpt>
      <trkpt lat="44.43786" lon="2.51333">
        <ele>435</ele>
        <time>2017-12-03T09:34:53.000Z</time>
      </trkpt>
      <trkpt lat="44.43776" lon="2.51345">
        <ele>439</ele>
        <time>2017-12-03T09:34:58.000Z</time>
      </trkpt>
      <trkpt lat="44.43767" lon="2.51356">
        <ele>438</ele>
        <time>2017-12-03T09:35:02.000Z</time>
      </trkpt>
      <trkpt lat="44.43752" lon="2.51372">
        <ele>439</ele>
        <time>2017-12-03T09:35:09.000Z</time>
      </trkpt>
      <trkpt lat="44.43749" lon="2.51375">
        <ele>424</ele>
        <time>2017-12-03T09:35:10.000Z</time>
      </trkpt>
      <trkpt lat="44.43735" lon="2.51391">
        <ele>425</ele>
        <time>2017-12-03T09:35:16.000Z</time>
      </trkpt>
      <trkpt lat="44.43724" lon="2.51407">
        <ele>425</ele>
        <time>2017-12-03T09:35:21.000Z</time>
      </trkpt>
      <trkpt lat="44.43718" lon="2.51417">
        <ele>424</ele>
        <time>2017-12-03T09:35:24.000Z</time>
      </trkpt>
      <trkpt lat="44.43712" lon="2.51425">
        <ele>433</ele>
        <time>2017-12-03T09:35:27.000Z</time>
      </trkpt>
      <trkpt lat="44.437" lon="2.51443">
        <ele>433</ele>
        <time>2017-12-03T09:35:34.000Z</time>
      </trkpt>
      <trkpt lat="44.43686" lon="2.5146">
        <ele>434</ele>
        <time>2017-12-03T09:35:42.000Z</time>
      </trkpt>
      <trkpt lat="44.43681" lon="2.51469">
        <ele>435</ele>
        <time>2017-12-03T09:35:46.000Z</time>
      </trkpt>
      <trkpt lat="44.43666" lon="2.51482">
        <ele>431</ele>
        <time>2017-12-03T09:35:54.000Z</time>
      </trkpt>
      <trkpt lat="44.43665" lon="2.51479">
        <ele>430</ele>
        <time>2017-12-03T09:35:56.000Z</time>
      </trkpt>
      <trkpt lat="44.43665" lon="2.51474">
        <ele>428</ele>
        <time>2017-12-03T09:35:58.000Z</time>
      </trkpt>
      <trkpt lat="44.43671" lon="2.51465">
        <ele>434</ele>
        <time>2017-12-03T09:36:05.000Z</time>
      </trkpt>
      <trkpt lat="44.43673" lon="2.51462">
        <ele>433</ele>
        <time>2017-12-03T09:36:08.000Z</time>
      </trkpt>
      <trkpt lat="44.43675" lon="2.51458">
        <ele>433</ele>
        <time>2017-12-03T09:36:10.000Z</time>
      </trkpt>
      <trkpt lat="44.43675" lon="2.51456">
        <ele>432</ele>
        <time>2017-12-03T09:36:12.000Z</time>
      </trkpt>
      <trkpt lat="44.43675" lon="2.51452">
        <ele>432</ele>
        <time>2017-12-03T09:36:14.000Z</time>
      </trkpt>
      <trkpt lat="44.43675" lon="2.5145">
        <ele>431</ele>
        <time>2017-12-03T09:36:16.000Z</time>
      </trkpt>
      <trkpt lat="44.43674" lon="2.51444">
        <ele>430</ele>
        <time>2017-12-03T09:36:19.000Z</time>
      </trkpt>
      <trkpt lat="44.4367" lon="2.51442">
        <ele>429</ele>
        <time>2017-12-03T09:36:22.000Z</time>
      </trkpt>
      <trkpt lat="44.43666" lon="2.5144">
        <ele>421</ele>
        <time>2017-12-03T09:36:26.000Z</time>
      </trkpt>
      <trkpt lat="44.43663" lon="2.51438">
        <ele>421</ele>
        <time>2017-12-03T09:36:29.000Z</time>
      </trkpt>
      <trkpt lat="44.43661" lon="2.51437">
        <ele>421</ele>
        <time>2017-12-03T09:36:30.000Z</time>
      </trkpt>
      <trkpt lat="44.43659" lon="2.51436">
        <ele>421</ele>
        <time>2017-12-03T09:36:32.000Z</time>
      </trkpt>
      <trkpt lat="44.43656" lon="2.51435">
        <ele>421</ele>
        <time>2017-12-03T09:36:35.000Z</time>
      </trkpt>
      <trkpt lat="44.43655" lon="2.51435">
        <ele>421</ele>
        <time>2017-12-03T09:36:36.000Z</time>
      </trkpt>
      <trkpt lat="44.43653" lon="2.51435">
        <ele>421</ele>
        <time>2017-12-03T09:36:38.000Z</time>
      </trkpt>
      <trkpt lat="44.4365" lon="2.51433">
        <ele>421</ele>
        <time>2017-12-03T09:36:40.000Z</time>
      </trkpt>
      <trkpt lat="44.43646" lon="2.51432">
        <ele>421</ele>
        <time>2017-12-03T09:36:42.000Z</time>
      </trkpt>
      <trkpt lat="44.43629" lon="2.51441">
        <ele>421</ele>
        <time>2017-12-03T09:36:57.000Z</time>
      </trkpt>
      <trkpt lat="44.43626" lon="2.51442">
        <ele>421</ele>
        <time>2017-12-03T09:37:00.000Z</time>
      </trkpt>
      <trkpt lat="44.43608" lon="2.51452">
        <ele>421</ele>
        <time>2017-12-03T09:37:11.000Z</time>
      </trkpt>
      <trkpt lat="44.43595" lon="2.51456">
        <ele>421</ele>
        <time>2017-12-03T09:37:19.000Z</time>
      </trkpt>
      <trkpt lat="44.43584" lon="2.51471">
        <ele>423</ele>
      </trkpt>
      <trkpt lat="44.43534" lon="2.51474">
        <ele>425</ele>
      </trkpt>
      <trkpt lat="44.43506" lon="2.51427">
        <ele>419</ele>
      </trkpt>
      <trkpt lat="44.43492" lon="2.51401">
        <ele>412</ele>
      </trkpt>
      <trkpt lat="44.43508" lon="2.51352">
        <ele>406</ele>
      </trkpt>
      <trkpt lat="44.435" lon="2.51305">
        <ele>400</ele>
      </trkpt>
      <trkpt lat="44.43457" lon="2.51296">
        <ele>396</ele>
      </trkpt>
      <trkpt lat="44.43413" lon="2.51279">
        <ele>393</ele>
      </trkpt>
      <trkpt lat="44.43385" lon="2.51273">
        <ele>393</ele>
      </trkpt>
      <trkpt lat="44.43358" lon="2.51292">
        <ele>393</ele>
      </trkpt>
      <trkpt lat="44.43342" lon="2.51268">
        <ele>394</ele>
      </trkpt>
      <trkpt lat="44.43327" lon="2.51223">
        <ele>402</ele>
      </trkpt>
      <trkpt lat="44.4331" lon="2.51163">
        <ele>409</ele>
      </trkpt>
      <trkpt lat="44.43304" lon="2.5112">
        <ele>413</ele>
      </trkpt>
      <trkpt lat="44.43304" lon="2.51099">
        <ele>413</ele>
      </trkpt>
      <trkpt lat="44.43324" lon="2.5106">
        <ele>418</ele>
      </trkpt>
      <trkpt lat="44.43299" lon="2.51004">
        <ele>423</ele>
      </trkpt>
      <trkpt lat="44.43289" lon="2.50961">
        <ele>430</ele>
      </trkpt>
      <trkpt lat="44.43296" lon="2.50931">
        <ele>431</ele>
      </trkpt>
      <trkpt lat="44.43316" lon="2.50884">
        <ele>432</ele>
      </trkpt>
      <trkpt lat="44.43325" lon="2.50852">
        <ele>431</ele>
      </trkpt>
      <trkpt lat="44.43335" lon="2.50826">
        <ele>427</ele>
      </trkpt>
      <trkpt lat="44.4335" lon="2.50798">
        <ele>426</ele>
      </trkpt>
      <trkpt lat="44.43354" lon="2.5077">
        <ele>426</ele>
      </trkpt>
      <trkpt lat="44.43344" lon="2.50734">
        <ele>429</ele>
      </trkpt>
      <trkpt lat="44.4335" lon="2.50691">
        <ele>429</ele>
      </trkpt>
      <trkpt lat="44.43358" lon="2.50627">
        <ele>429</ele>
      </trkpt>
      <trkpt lat="44.43336" lon="2.5058">
        <ele>432</ele>
      </trkpt>
      <trkpt lat="44.43341" lon="2.50554">
        <ele>429</ele>
      </trkpt>
      <trkpt lat="44.43354" lon="2.50513">
        <ele>429</ele>
      </trkpt>
      <trkpt lat="44.43371" lon="2.50474">
        <ele>428</ele>
      </trkpt>
      <trkpt lat="44.43374" lon="2.50397">
        <ele>433</ele>
      </trkpt>
      <trkpt lat="44.43391" lon="2.50359">
        <ele>433</ele>
      </trkpt>
      <trkpt lat="44.43403" lon="2.5032">
        <ele>436</ele>
      </trkpt>
      <trkpt lat="44.43416" lon="2.5026">
        <ele>440</ele>
      </trkpt>
      <trkpt lat="44.43445" lon="2.50215">
        <ele>435</ele>
      </trkpt>
      <trkpt lat="44.43465" lon="2.50189">
        <ele>433</ele>
      </trkpt>
      <trkpt lat="44.43471" lon="2.50148">
        <ele>440</ele>
      </trkpt>
      <trkpt lat="44.43488" lon="2.50105">
        <ele>441</ele>
      </trkpt>
      <trkpt lat="44.43509" lon="2.50073">
        <ele>439</ele>
      </trkpt>
      <trkpt lat="44.43554" lon="2.50037">
        <ele>440</ele>
      </trkpt>
      <trkpt lat="44.43587" lon="2.50011">
        <ele>434</ele>
      </trkpt>
      <trkpt lat="44.43612" lon="2.49987">
        <ele>436</ele>
      </trkpt>
      <trkpt lat="44.43638" lon="2.49944">
        <ele>434</ele>
      </trkpt>
      <trkpt lat="44.43667" lon="2.49912">
        <ele>425</ele>
      </trkpt>
      <trkpt lat="44.43688" lon="2.49878">
        <ele>422</ele>
      </trkpt>
      <trkpt lat="44.43707" lon="2.49807">
        <ele>428</ele>
      </trkpt>
      <trkpt lat="44.43718" lon="2.4976">
        <ele>427</ele>
      </trkpt>
      <trkpt lat="44.43724" lon="2.49691">
        <ele>434</ele>
      </trkpt>
      <trkpt lat="44.43737" lon="2.49663">
        <ele>433</ele>
      </trkpt>
      <trkpt lat="44.4377" lon="2.49623">
        <ele>426</ele>
      </trkpt>
      <trkpt lat="44.43794" lon="2.49614">
        <ele>425</ele>
      </trkpt>
      <trkpt lat="44.43851" lon="2.49625">
        <ele>419</ele>
      </trkpt>
      <trkpt lat="44.43885" lon="2.49672">
        <ele>403</ele>
      </trkpt>
      <trkpt lat="44.43923" lon="2.49687">
        <ele>404</ele>
      </trkpt>
      <trkpt lat="44.43949" lon="2.49708">
        <ele>400</ele>
      </trkpt>
      <trkpt lat="44.44003" lon="2.49764">
        <ele>386</ele>
      </trkpt>
      <trkpt lat="44.4405" lon="2.4976">
        <ele>382</ele>
      </trkpt>
      <trkpt lat="44.4409" lon="2.49786">
        <ele>374</ele>
      </trkpt>
      <trkpt lat="44.44134" lon="2.49811">
        <ele>369</ele>
      </trkpt>
      <trkpt lat="44.44168" lon="2.49796">
        <ele>356</ele>
      </trkpt>
      <trkpt lat="44.44199" lon="2.4976">
        <ele>357</ele>
      </trkpt>
      <trkpt lat="44.44226" lon="2.49723">
        <ele>360</ele>
      </trkpt>
      <trkpt lat="44.44243" lon="2.49695">
        <ele>360</ele>
      </trkpt>
      <trkpt lat="44.44263" lon="2.49663">
        <ele>353</ele>
      </trkpt>
      <trkpt lat="44.44287" lon="2.49605">
        <ele>351</ele>
      </trkpt>
      <trkpt lat="44.44297" lon="2.49586">
        <ele>349</ele>
      </trkpt>
      <trkpt lat="44.44337" lon="2.49543">
        <ele>339</ele>
      </trkpt>
      <trkpt lat="44.44352" lon="2.49504">
        <ele>340</ele>
      </trkpt>
      <trkpt lat="44.44393" lon="2.49517">
        <ele>338</ele>
      </trkpt>
      <trkpt lat="44.44431" lon="2.49515">
        <ele>345</ele>
      </trkpt>
      <trkpt lat="44.44481" lon="2.49432">
        <ele>337</ele>
      </trkpt>
      <trkpt lat="44.4452" lon="2.49346">
        <ele>334</ele>
      </trkpt>
      <trkpt lat="44.44548" lon="2.49198">
        <ele>340</ele>
      </trkpt>
      <trkpt lat="44.44579" lon="2.4905">
        <ele>335</ele>
      </trkpt>
      <trkpt lat="44.44611" lon="2.48912">
        <ele>330</ele>
      </trkpt>
      <trkpt lat="44.44625" lon="2.48805">
        <ele>325</ele>
      </trkpt>
      <trkpt lat="44.44654" lon="2.48661">
        <ele>318</ele>
      </trkpt>
      <trkpt lat="44.44695" lon="2.48442">
        <ele>318</ele>
      </trkpt>
      <trkpt lat="44.44661" lon="2.48425">
        <ele>316</ele>
      </trkpt>
      <trkpt lat="44.44611" lon="2.48404">
        <ele>323</ele>
      </trkpt>
      <trkpt lat="44.44608" lon="2.48354">
        <ele>327</ele>
      </trkpt>
      <trkpt lat="44.44602" lon="2.48262">
        <ele>339</ele>
      </trkpt>
      <trkpt lat="44.44575" lon="2.48178">
        <ele>359</ele>
      </trkpt>
      <trkpt lat="44.44565" lon="2.4812">
        <ele>370</ele>
      </trkpt>
      <trkpt lat="44.44553" lon="2.48191">
        <ele>367</ele>
      </trkpt>
      <trkpt lat="44.44533" lon="2.48275">
        <ele>364</ele>
      </trkpt>
      <trkpt lat="44.44497" lon="2.48326">
        <ele>371</ele>
      </trkpt>
      <trkpt lat="44.44499" lon="2.48286">
        <ele>380</ele>
      </trkpt>
      <trkpt lat="44.44499" lon="2.48148">
        <ele>395</ele>
      </trkpt>
      <trkpt lat="44.4447" lon="2.48146">
        <ele>398</ele>
      </trkpt>
      <trkpt lat="44.44418" lon="2.48123">
        <ele>403</ele>
      </trkpt>
      <trkpt lat="44.44382" lon="2.4809">
        <ele>409</ele>
      </trkpt>
      <trkpt lat="44.44337" lon="2.48058">
        <ele>417</ele>
      </trkpt>
      <trkpt lat="44.44295" lon="2.48048">
        <ele>422</ele>
      </trkpt>
      <trkpt lat="44.44231" lon="2.48052">
        <ele>420</ele>
      </trkpt>
      <trkpt lat="44.44194" lon="2.48039">
        <ele>419</ele>
      </trkpt>
      <trkpt lat="44.44154" lon="2.47981">
        <ele>421</ele>
      </trkpt>
      <trkpt lat="44.44111" lon="2.47897">
        <ele>425</ele>
      </trkpt>
      <trkpt lat="44.44084" lon="2.4782">
        <ele>424</ele>
      </trkpt>
      <trkpt lat="44.44053" lon="2.47751">
        <ele>418</ele>
      </trkpt>
      <trkpt lat="44.43992" lon="2.47623">
        <ele>422</ele>
      </trkpt>
      <trkpt lat="44.43938" lon="2.47605">
        <ele>423</ele>
      </trkpt>
      <trkpt lat="44.43908" lon="2.47582">
        <ele>428</ele>
      </trkpt>
      <trkpt lat="44.43885" lon="2.47543">
        <ele>433</ele>
      </trkpt>
      <trkpt lat="44.43849" lon="2.47528">
        <ele>436</ele>
      </trkpt>
      <trkpt lat="44.43776" lon="2.47436">
        <ele>452</ele>
      </trkpt>
      <trkpt lat="44.4376" lon="2.47436">
        <ele>453</ele>
      </trkpt>
      <trkpt lat="44.43774" lon="2.4749">
        <ele>454</ele>
      </trkpt>
      <trkpt lat="44.43774" lon="2.47522">
        <ele>452</ele>
      </trkpt>
      <trkpt lat="44.43748" lon="2.47552">
        <ele>462</ele>
      </trkpt>
      <trkpt lat="44.43727" lon="2.4756">
        <ele>463</ele>
      </trkpt>
      <trkpt lat="44.43681" lon="2.47511">
        <ele>472</ele>
      </trkpt>
      <trkpt lat="44.43659" lon="2.47526">
        <ele>481</ele>
      </trkpt>
      <trkpt lat="44.43615" lon="2.47578">
        <ele>486</ele>
      </trkpt>
      <trkpt lat="44.4361" lon="2.47545">
        <ele>486</ele>
      </trkpt>
      <trkpt lat="44.43583" lon="2.47477">
        <ele>499</ele>
      </trkpt>
      <trkpt lat="44.4354" lon="2.47425">
        <ele>501</ele>
      </trkpt>
      <trkpt lat="44.43482" lon="2.47393">
        <ele>511</ele>
      </trkpt>
      <trkpt lat="44.43491" lon="2.47425">
        <ele>510</ele>
      </trkpt>
      <trkpt lat="44.43471" lon="2.47415">
        <ele>511</ele>
      </trkpt>
      <trkpt lat="44.43426" lon="2.47365">
        <ele>515</ele>
      </trkpt>
      <trkpt lat="44.43414" lon="2.47324">
        <ele>522</ele>
      </trkpt>
      <trkpt lat="44.43399" lon="2.47275">
        <ele>524</ele>
      </trkpt>
      <trkpt lat="44.43361" lon="2.47236">
        <ele>525</ele>
      </trkpt>
      <trkpt lat="44.43313" lon="2.47219">
        <ele>526</ele>
      </trkpt>
      <trkpt lat="44.43243" lon="2.47224">
        <ele>527</ele>
      </trkpt>
      <trkpt lat="44.43192" lon="2.4726">
        <ele>526</ele>
      </trkpt>
      <trkpt lat="44.43158" lon="2.4726">
        <ele>529</ele>
      </trkpt>
      <trkpt lat="44.43106" lon="2.47322">
        <ele>530</ele>
      </trkpt>
      <trkpt lat="44.43091" lon="2.47372">
        <ele>533</ele>
      </trkpt>
      <trkpt lat="44.43077" lon="2.4741">
        <ele>538</ele>
      </trkpt>
      <trkpt lat="44.43073" lon="2.47483">
        <ele>542</ele>
      </trkpt>
      <trkpt lat="44.43045" lon="2.47522">
        <ele>543</ele>
      </trkpt>
    </trkseg>
  </trk>
</gpx>